<?xml version="1.0" encoding="UTF-8" standalone="no" ?>
<gpx xmlns="http://www.topografix.com/GPX/1/1" xmlns:xsi="http://www.w3.org/2001/XMLSchema-instance" xsi:schemaLocation="http://www.topografix.com/GPX/1/1 http://www.topografix.com/GPX/1/1/gpx.xsd" version="1.1" creator="VisuGPX - https://www.visugpx.com">
  <metadata>
    <name>Die. Pas de Bret. Pas de Sagatte</name>
    <desc><![CDATA[Pas de réelle difficultés, à condition que le sentier soit sec.]]></desc>
  </metadata>
  <trk>
    <name><![CDATA[28-MARS-19 14:53:32]]></name>
    <trkseg>
      <trkpt lat="44.75131" lon="5.37313">
        <ele>276.04</ele>
        <time>2019-03-28T08:58:20Z</time>
      </trkpt>
      <trkpt lat="44.75132" lon="5.37313">
        <ele>269.79</ele>
        <time>2019-03-28T08:58:21Z</time>
      </trkpt>
      <trkpt lat="44.75132" lon="5.37313">
        <ele>273.15</ele>
        <time>2019-03-28T08:58:22Z</time>
      </trkpt>
      <trkpt lat="44.7513" lon="5.37317">
        <ele>267.86</ele>
        <time>2019-03-28T08:58:26Z</time>
      </trkpt>
      <trkpt lat="44.7513" lon="5.37317">
        <ele>274.11</ele>
        <time>2019-03-28T08:58:27Z</time>
      </trkpt>
      <trkpt lat="44.7513" lon="5.37317">
        <ele>269.79</ele>
        <time>2019-03-28T08:58:28Z</time>
      </trkpt>
      <trkpt lat="44.7513" lon="5.37317">
        <ele>273.63</ele>
        <time>2019-03-28T08:58:29Z</time>
      </trkpt>
      <trkpt lat="44.7513" lon="5.37317">
        <ele>261.62</ele>
        <time>2019-03-28T08:58:32Z</time>
      </trkpt>
      <trkpt lat="44.7513" lon="5.37317">
        <ele>273.63</ele>
        <time>2019-03-28T08:58:33Z</time>
      </trkpt>
      <trkpt lat="44.7513" lon="5.37318">
        <ele>268.35</ele>
        <time>2019-03-28T08:58:34Z</time>
      </trkpt>
      <trkpt lat="44.75129" lon="5.37318">
        <ele>273.15</ele>
        <time>2019-03-28T08:58:35Z</time>
      </trkpt>
      <trkpt lat="44.75129" lon="5.37317">
        <ele>268.35</ele>
        <time>2019-03-28T08:58:37Z</time>
      </trkpt>
      <trkpt lat="44.7513" lon="5.37317">
        <ele>272.67</ele>
        <time>2019-03-28T08:58:38Z</time>
      </trkpt>
      <trkpt lat="44.75131" lon="5.37317">
        <ele>264.5</ele>
        <time>2019-03-28T08:58:40Z</time>
      </trkpt>
      <trkpt lat="44.75132" lon="5.37317">
        <ele>283.25</ele>
        <time>2019-03-28T08:58:41Z</time>
      </trkpt>
      <trkpt lat="44.75131" lon="5.37317">
        <ele>289.97</ele>
        <time>2019-03-28T08:58:43Z</time>
      </trkpt>
      <trkpt lat="44.75131" lon="5.37317">
        <ele>294.3</ele>
        <time>2019-03-28T08:58:44Z</time>
      </trkpt>
      <trkpt lat="44.75131" lon="5.37317">
        <ele>298.15</ele>
        <time>2019-03-28T08:58:45Z</time>
      </trkpt>
      <trkpt lat="44.75131" lon="5.37317">
        <ele>301.99</ele>
        <time>2019-03-28T08:58:46Z</time>
      </trkpt>
      <trkpt lat="44.75134" lon="5.37318">
        <ele>311.12</ele>
        <time>2019-03-28T08:58:50Z</time>
      </trkpt>
      <trkpt lat="44.75134" lon="5.37318">
        <ele>309.68</ele>
        <time>2019-03-28T08:58:51Z</time>
      </trkpt>
      <trkpt lat="44.75134" lon="5.37318">
        <ele>305.84</ele>
        <time>2019-03-28T08:58:52Z</time>
      </trkpt>
      <trkpt lat="44.75134" lon="5.37318">
        <ele>316.89</ele>
        <time>2019-03-28T08:58:53Z</time>
      </trkpt>
      <trkpt lat="44.75134" lon="5.37318">
        <ele>312.57</ele>
        <time>2019-03-28T08:58:54Z</time>
      </trkpt>
      <trkpt lat="44.75134" lon="5.37318">
        <ele>320.74</ele>
        <time>2019-03-28T08:58:58Z</time>
      </trkpt>
      <trkpt lat="44.75133" lon="5.37318">
        <ele>326.02</ele>
        <time>2019-03-28T08:59:00Z</time>
      </trkpt>
      <trkpt lat="44.75133" lon="5.37318">
        <ele>328.91</ele>
        <time>2019-03-28T08:59:01Z</time>
      </trkpt>
      <trkpt lat="44.75131" lon="5.37318">
        <ele>334.2</ele>
        <time>2019-03-28T08:59:03Z</time>
      </trkpt>
      <trkpt lat="44.7513" lon="5.37318">
        <ele>346.21</ele>
        <time>2019-03-28T08:59:04Z</time>
      </trkpt>
      <trkpt lat="44.75128" lon="5.37318">
        <ele>339.96</ele>
        <time>2019-03-28T08:59:05Z</time>
      </trkpt>
      <trkpt lat="44.75128" lon="5.37318">
        <ele>344.29</ele>
        <time>2019-03-28T08:59:07Z</time>
      </trkpt>
      <trkpt lat="44.75129" lon="5.37318">
        <ele>351.98</ele>
        <time>2019-03-28T08:59:09Z</time>
      </trkpt>
      <trkpt lat="44.75129" lon="5.37318">
        <ele>350.06</ele>
        <time>2019-03-28T08:59:10Z</time>
      </trkpt>
      <trkpt lat="44.75129" lon="5.37318">
        <ele>354.38</ele>
        <time>2019-03-28T08:59:12Z</time>
      </trkpt>
      <trkpt lat="44.75128" lon="5.37317">
        <ele>362.55</ele>
        <time>2019-03-28T08:59:14Z</time>
      </trkpt>
      <trkpt lat="44.75128" lon="5.37317">
        <ele>359.19</ele>
        <time>2019-03-28T08:59:15Z</time>
      </trkpt>
      <trkpt lat="44.75128" lon="5.37317">
        <ele>366.88</ele>
        <time>2019-03-28T08:59:16Z</time>
      </trkpt>
      <trkpt lat="44.75128" lon="5.37316">
        <ele>362.55</ele>
        <time>2019-03-28T08:59:17Z</time>
      </trkpt>
      <trkpt lat="44.75127" lon="5.37316">
        <ele>370.73</ele>
        <time>2019-03-28T08:59:18Z</time>
      </trkpt>
      <trkpt lat="44.75127" lon="5.37315">
        <ele>364.48</ele>
        <time>2019-03-28T08:59:19Z</time>
      </trkpt>
      <trkpt lat="44.75127" lon="5.37315">
        <ele>356.31</ele>
        <time>2019-03-28T08:59:21Z</time>
      </trkpt>
      <trkpt lat="44.75127" lon="5.37315">
        <ele>370.24</ele>
        <time>2019-03-28T08:59:22Z</time>
      </trkpt>
      <trkpt lat="44.75127" lon="5.37315">
        <ele>368.32</ele>
        <time>2019-03-28T08:59:23Z</time>
      </trkpt>
      <trkpt lat="44.75127" lon="5.37315">
        <ele>372.65</ele>
        <time>2019-03-28T08:59:24Z</time>
      </trkpt>
      <trkpt lat="44.75127" lon="5.37314">
        <ele>367.84</ele>
        <time>2019-03-28T08:59:25Z</time>
      </trkpt>
      <trkpt lat="44.75127" lon="5.37314">
        <ele>371.21</ele>
        <time>2019-03-28T08:59:26Z</time>
      </trkpt>
      <trkpt lat="44.75128" lon="5.37314">
        <ele>369.28</ele>
        <time>2019-03-28T08:59:27Z</time>
      </trkpt>
      <trkpt lat="44.75128" lon="5.37314">
        <ele>363.52</ele>
        <time>2019-03-28T08:59:28Z</time>
      </trkpt>
      <trkpt lat="44.75128" lon="5.37314">
        <ele>371.69</ele>
        <time>2019-03-28T08:59:29Z</time>
      </trkpt>
      <trkpt lat="44.75134" lon="5.37314">
        <ele>373.13</ele>
        <time>2019-03-28T08:59:36Z</time>
      </trkpt>
      <trkpt lat="44.75134" lon="5.37313">
        <ele>376.97</ele>
        <time>2019-03-28T08:59:39Z</time>
      </trkpt>
      <trkpt lat="44.75136" lon="5.3731">
        <ele>379.38</ele>
        <time>2019-03-28T08:59:46Z</time>
      </trkpt>
      <trkpt lat="44.75136" lon="5.3731">
        <ele>373.13</ele>
        <time>2019-03-28T08:59:47Z</time>
      </trkpt>
      <trkpt lat="44.75137" lon="5.3731">
        <ele>381.3</ele>
        <time>2019-03-28T08:59:48Z</time>
      </trkpt>
      <trkpt lat="44.75138" lon="5.37309">
        <ele>381.78</ele>
        <time>2019-03-28T08:59:50Z</time>
      </trkpt>
      <trkpt lat="44.75141" lon="5.37308">
        <ele>385.15</ele>
        <time>2019-03-28T08:59:54Z</time>
      </trkpt>
      <trkpt lat="44.75142" lon="5.37308">
        <ele>385.63</ele>
        <time>2019-03-28T08:59:55Z</time>
      </trkpt>
      <trkpt lat="44.75143" lon="5.37309">
        <ele>386.59</ele>
        <time>2019-03-28T08:59:57Z</time>
      </trkpt>
      <trkpt lat="44.75148" lon="5.37309">
        <ele>388.99</ele>
        <time>2019-03-28T09:00:02Z</time>
      </trkpt>
      <trkpt lat="44.75149" lon="5.3731">
        <ele>389.95</ele>
        <time>2019-03-28T09:00:03Z</time>
      </trkpt>
      <trkpt lat="44.7515" lon="5.3731">
        <ele>390.91</ele>
        <time>2019-03-28T09:00:05Z</time>
      </trkpt>
      <trkpt lat="44.75154" lon="5.37315">
        <ele>392.84</ele>
        <time>2019-03-28T09:00:10Z</time>
      </trkpt>
      <trkpt lat="44.75156" lon="5.37318">
        <ele>394.28</ele>
        <time>2019-03-28T09:00:13Z</time>
      </trkpt>
      <trkpt lat="44.75157" lon="5.3732">
        <ele>394.76</ele>
        <time>2019-03-28T09:00:15Z</time>
      </trkpt>
      <trkpt lat="44.75162" lon="5.37323">
        <ele>397.16</ele>
        <time>2019-03-28T09:00:23Z</time>
      </trkpt>
      <trkpt lat="44.75165" lon="5.37318">
        <ele>398.6</ele>
        <time>2019-03-28T09:00:27Z</time>
      </trkpt>
      <trkpt lat="44.75167" lon="5.37316">
        <ele>401.49</ele>
        <time>2019-03-28T09:00:29Z</time>
      </trkpt>
      <trkpt lat="44.75171" lon="5.37317">
        <ele>399.08</ele>
        <time>2019-03-28T09:00:33Z</time>
      </trkpt>
      <trkpt lat="44.75177" lon="5.37317">
        <ele>399.08</ele>
        <time>2019-03-28T09:00:37Z</time>
      </trkpt>
      <trkpt lat="44.75187" lon="5.37313">
        <ele>400.53</ele>
        <time>2019-03-28T09:00:47Z</time>
      </trkpt>
      <trkpt lat="44.75193" lon="5.37309">
        <ele>401.49</ele>
        <time>2019-03-28T09:00:58Z</time>
      </trkpt>
      <trkpt lat="44.75197" lon="5.37311">
        <ele>401.97</ele>
        <time>2019-03-28T09:01:06Z</time>
      </trkpt>
      <trkpt lat="44.75205" lon="5.37307">
        <ele>402.45</ele>
        <time>2019-03-28T09:01:16Z</time>
      </trkpt>
      <trkpt lat="44.75213" lon="5.37302">
        <ele>401.97</ele>
        <time>2019-03-28T09:01:26Z</time>
      </trkpt>
      <trkpt lat="44.75215" lon="5.37302">
        <ele>400.53</ele>
        <time>2019-03-28T09:01:31Z</time>
      </trkpt>
      <trkpt lat="44.75217" lon="5.37302">
        <ele>401.97</ele>
        <time>2019-03-28T09:01:33Z</time>
      </trkpt>
      <trkpt lat="44.75222" lon="5.37303">
        <ele>402.45</ele>
        <time>2019-03-28T09:01:39Z</time>
      </trkpt>
      <trkpt lat="44.7523" lon="5.3731">
        <ele>404.85</ele>
        <time>2019-03-28T09:01:45Z</time>
      </trkpt>
      <trkpt lat="44.75232" lon="5.37311">
        <ele>402.93</ele>
        <time>2019-03-28T09:01:47Z</time>
      </trkpt>
      <trkpt lat="44.75244" lon="5.37315">
        <ele>402.93</ele>
        <time>2019-03-28T09:02:00Z</time>
      </trkpt>
      <trkpt lat="44.75248" lon="5.37316">
        <ele>401.97</ele>
        <time>2019-03-28T09:02:03Z</time>
      </trkpt>
      <trkpt lat="44.75249" lon="5.37316">
        <ele>400.53</ele>
        <time>2019-03-28T09:02:04Z</time>
      </trkpt>
      <trkpt lat="44.75249" lon="5.37316">
        <ele>406.77</ele>
        <time>2019-03-28T09:02:05Z</time>
      </trkpt>
      <trkpt lat="44.7525" lon="5.37317">
        <ele>403.89</ele>
        <time>2019-03-28T09:02:06Z</time>
      </trkpt>
      <trkpt lat="44.75251" lon="5.37318">
        <ele>402.45</ele>
        <time>2019-03-28T09:02:07Z</time>
      </trkpt>
      <trkpt lat="44.75252" lon="5.37318">
        <ele>402.45</ele>
        <time>2019-03-28T09:02:08Z</time>
      </trkpt>
      <trkpt lat="44.75253" lon="5.37322">
        <ele>402.93</ele>
        <time>2019-03-28T09:02:09Z</time>
      </trkpt>
      <trkpt lat="44.75254" lon="5.37323">
        <ele>402.45</ele>
        <time>2019-03-28T09:02:10Z</time>
      </trkpt>
      <trkpt lat="44.75255" lon="5.37325">
        <ele>401.01</ele>
        <time>2019-03-28T09:02:11Z</time>
      </trkpt>
      <trkpt lat="44.75255" lon="5.37326">
        <ele>403.89</ele>
        <time>2019-03-28T09:02:12Z</time>
      </trkpt>
      <trkpt lat="44.75262" lon="5.37332">
        <ele>409.18</ele>
        <time>2019-03-28T09:02:20Z</time>
      </trkpt>
      <trkpt lat="44.75263" lon="5.37332">
        <ele>403.89</ele>
        <time>2019-03-28T09:02:21Z</time>
      </trkpt>
      <trkpt lat="44.7527" lon="5.37338">
        <ele>404.85</ele>
        <time>2019-03-28T09:02:34Z</time>
      </trkpt>
      <trkpt lat="44.75274" lon="5.3734">
        <ele>403.41</ele>
        <time>2019-03-28T09:02:40Z</time>
      </trkpt>
      <trkpt lat="44.75284" lon="5.37344">
        <ele>404.85</ele>
        <time>2019-03-28T09:02:53Z</time>
      </trkpt>
      <trkpt lat="44.7529" lon="5.37344">
        <ele>405.81</ele>
        <time>2019-03-28T09:03:04Z</time>
      </trkpt>
      <trkpt lat="44.75296" lon="5.37349">
        <ele>405.33</ele>
        <time>2019-03-28T09:03:15Z</time>
      </trkpt>
      <trkpt lat="44.75308" lon="5.37365">
        <ele>406.29</ele>
        <time>2019-03-28T09:03:28Z</time>
      </trkpt>
      <trkpt lat="44.75308" lon="5.37366">
        <ele>406.77</ele>
        <time>2019-03-28T09:03:29Z</time>
      </trkpt>
      <trkpt lat="44.75315" lon="5.37373">
        <ele>407.26</ele>
        <time>2019-03-28T09:03:44Z</time>
      </trkpt>
      <trkpt lat="44.75313" lon="5.37382">
        <ele>406.77</ele>
        <time>2019-03-28T09:03:58Z</time>
      </trkpt>
      <trkpt lat="44.7531" lon="5.37398">
        <ele>406.77</ele>
        <time>2019-03-28T09:04:13Z</time>
      </trkpt>
      <trkpt lat="44.75299" lon="5.37424">
        <ele>407.26</ele>
        <time>2019-03-28T09:04:26Z</time>
      </trkpt>
      <trkpt lat="44.75284" lon="5.37434">
        <ele>408.7</ele>
        <time>2019-03-28T09:04:39Z</time>
      </trkpt>
      <trkpt lat="44.75267" lon="5.37448">
        <ele>409.66</ele>
        <time>2019-03-28T09:04:54Z</time>
      </trkpt>
      <trkpt lat="44.75264" lon="5.37458">
        <ele>410.14</ele>
        <time>2019-03-28T09:05:09Z</time>
      </trkpt>
      <trkpt lat="44.7526" lon="5.37469">
        <ele>412.06</ele>
        <time>2019-03-28T09:05:21Z</time>
      </trkpt>
      <trkpt lat="44.7525" lon="5.37484">
        <ele>413.98</ele>
        <time>2019-03-28T09:05:34Z</time>
      </trkpt>
      <trkpt lat="44.75251" lon="5.3749">
        <ele>413.98</ele>
        <time>2019-03-28T09:05:37Z</time>
      </trkpt>
      <trkpt lat="44.7525" lon="5.37499">
        <ele>412.54</ele>
        <time>2019-03-28T09:05:39Z</time>
      </trkpt>
      <trkpt lat="44.7525" lon="5.37505">
        <ele>414.47</ele>
        <time>2019-03-28T09:05:41Z</time>
      </trkpt>
      <trkpt lat="44.75233" lon="5.37502">
        <ele>413.5</ele>
        <time>2019-03-28T09:05:50Z</time>
      </trkpt>
      <trkpt lat="44.7524" lon="5.37507">
        <ele>414.95</ele>
        <time>2019-03-28T09:06:02Z</time>
      </trkpt>
      <trkpt lat="44.75249" lon="5.3753">
        <ele>415.43</ele>
        <time>2019-03-28T09:06:15Z</time>
      </trkpt>
      <trkpt lat="44.75255" lon="5.37538">
        <ele>416.39</ele>
        <time>2019-03-28T09:06:23Z</time>
      </trkpt>
      <trkpt lat="44.75265" lon="5.37547">
        <ele>416.87</ele>
        <time>2019-03-28T09:06:37Z</time>
      </trkpt>
      <trkpt lat="44.75274" lon="5.3755">
        <ele>417.83</ele>
        <time>2019-03-28T09:06:47Z</time>
      </trkpt>
      <trkpt lat="44.75285" lon="5.37558">
        <ele>417.83</ele>
        <time>2019-03-28T09:06:58Z</time>
      </trkpt>
      <trkpt lat="44.75293" lon="5.3757">
        <ele>418.31</ele>
        <time>2019-03-28T09:07:09Z</time>
      </trkpt>
      <trkpt lat="44.75306" lon="5.37583">
        <ele>419.27</ele>
        <time>2019-03-28T09:07:20Z</time>
      </trkpt>
      <trkpt lat="44.75313" lon="5.37595">
        <ele>419.75</ele>
        <time>2019-03-28T09:07:33Z</time>
      </trkpt>
      <trkpt lat="44.75329" lon="5.37606">
        <ele>419.75</ele>
        <time>2019-03-28T09:07:44Z</time>
      </trkpt>
      <trkpt lat="44.75341" lon="5.37625">
        <ele>419.75</ele>
        <time>2019-03-28T09:07:54Z</time>
      </trkpt>
      <trkpt lat="44.75346" lon="5.37637">
        <ele>420.71</ele>
        <time>2019-03-28T09:08:05Z</time>
      </trkpt>
      <trkpt lat="44.75352" lon="5.37649">
        <ele>420.71</ele>
        <time>2019-03-28T09:08:15Z</time>
      </trkpt>
      <trkpt lat="44.75361" lon="5.3766">
        <ele>420.23</ele>
        <time>2019-03-28T09:08:27Z</time>
      </trkpt>
      <trkpt lat="44.75369" lon="5.37672">
        <ele>421.19</ele>
        <time>2019-03-28T09:08:39Z</time>
      </trkpt>
      <trkpt lat="44.75379" lon="5.37682">
        <ele>421.19</ele>
        <time>2019-03-28T09:08:50Z</time>
      </trkpt>
      <trkpt lat="44.75389" lon="5.37695">
        <ele>422.16</ele>
        <time>2019-03-28T09:09:03Z</time>
      </trkpt>
      <trkpt lat="44.75399" lon="5.37707">
        <ele>422.64</ele>
        <time>2019-03-28T09:09:14Z</time>
      </trkpt>
      <trkpt lat="44.75411" lon="5.37724">
        <ele>423.12</ele>
        <time>2019-03-28T09:09:26Z</time>
      </trkpt>
      <trkpt lat="44.75419" lon="5.37738">
        <ele>423.12</ele>
        <time>2019-03-28T09:09:37Z</time>
      </trkpt>
      <trkpt lat="44.75426" lon="5.37747">
        <ele>423.6</ele>
        <time>2019-03-28T09:09:46Z</time>
      </trkpt>
      <trkpt lat="44.75434" lon="5.37756">
        <ele>423.6</ele>
        <time>2019-03-28T09:09:56Z</time>
      </trkpt>
      <trkpt lat="44.75438" lon="5.37762">
        <ele>423.12</ele>
        <time>2019-03-28T09:10:01Z</time>
      </trkpt>
      <trkpt lat="44.75441" lon="5.37772">
        <ele>423.12</ele>
        <time>2019-03-28T09:10:05Z</time>
      </trkpt>
      <trkpt lat="44.75447" lon="5.37781">
        <ele>423.12</ele>
        <time>2019-03-28T09:10:14Z</time>
      </trkpt>
      <trkpt lat="44.75454" lon="5.37798">
        <ele>424.08</ele>
        <time>2019-03-28T09:10:25Z</time>
      </trkpt>
      <trkpt lat="44.75458" lon="5.37813">
        <ele>425.04</ele>
        <time>2019-03-28T09:10:35Z</time>
      </trkpt>
      <trkpt lat="44.7546" lon="5.37818">
        <ele>425.04</ele>
        <time>2019-03-28T09:10:40Z</time>
      </trkpt>
      <trkpt lat="44.75465" lon="5.3784">
        <ele>424.56</ele>
        <time>2019-03-28T09:10:52Z</time>
      </trkpt>
      <trkpt lat="44.75471" lon="5.37854">
        <ele>425.04</ele>
        <time>2019-03-28T09:11:04Z</time>
      </trkpt>
      <trkpt lat="44.75476" lon="5.3787">
        <ele>425.04</ele>
        <time>2019-03-28T09:11:16Z</time>
      </trkpt>
      <trkpt lat="44.75484" lon="5.37883">
        <ele>426.48</ele>
        <time>2019-03-28T09:11:28Z</time>
      </trkpt>
      <trkpt lat="44.75493" lon="5.37894">
        <ele>426.48</ele>
        <time>2019-03-28T09:11:39Z</time>
      </trkpt>
      <trkpt lat="44.755" lon="5.37899">
        <ele>426</ele>
        <time>2019-03-28T09:11:50Z</time>
      </trkpt>
      <trkpt lat="44.75503" lon="5.37899">
        <ele>425.52</ele>
        <time>2019-03-28T09:12:04Z</time>
      </trkpt>
      <trkpt lat="44.75504" lon="5.37901">
        <ele>425.04</ele>
        <time>2019-03-28T09:12:15Z</time>
      </trkpt>
      <trkpt lat="44.75505" lon="5.37906">
        <ele>425.52</ele>
        <time>2019-03-28T09:12:33Z</time>
      </trkpt>
      <trkpt lat="44.75505" lon="5.37906">
        <ele>428.89</ele>
        <time>2019-03-28T09:12:35Z</time>
      </trkpt>
      <trkpt lat="44.75505" lon="5.37907">
        <ele>426</ele>
        <time>2019-03-28T09:12:36Z</time>
      </trkpt>
      <trkpt lat="44.75506" lon="5.37908">
        <ele>425.52</ele>
        <time>2019-03-28T09:12:53Z</time>
      </trkpt>
      <trkpt lat="44.75506" lon="5.37909">
        <ele>426.96</ele>
        <time>2019-03-28T09:13:08Z</time>
      </trkpt>
      <trkpt lat="44.75507" lon="5.37908">
        <ele>423.12</ele>
        <time>2019-03-28T09:13:30Z</time>
      </trkpt>
      <trkpt lat="44.75507" lon="5.37908">
        <ele>424.56</ele>
        <time>2019-03-28T09:13:31Z</time>
      </trkpt>
      <trkpt lat="44.75507" lon="5.37908">
        <ele>426</ele>
        <time>2019-03-28T09:13:33Z</time>
      </trkpt>
      <trkpt lat="44.75506" lon="5.37908">
        <ele>425.52</ele>
        <time>2019-03-28T09:13:54Z</time>
      </trkpt>
      <trkpt lat="44.75506" lon="5.37908">
        <ele>425.52</ele>
        <time>2019-03-28T09:14:11Z</time>
      </trkpt>
      <trkpt lat="44.75506" lon="5.37908">
        <ele>426</ele>
        <time>2019-03-28T09:14:31Z</time>
      </trkpt>
      <trkpt lat="44.75505" lon="5.37908">
        <ele>426</ele>
        <time>2019-03-28T09:14:54Z</time>
      </trkpt>
      <trkpt lat="44.75506" lon="5.37913">
        <ele>426.96</ele>
        <time>2019-03-28T09:15:06Z</time>
      </trkpt>
      <trkpt lat="44.75508" lon="5.37923">
        <ele>426.96</ele>
        <time>2019-03-28T09:15:15Z</time>
      </trkpt>
      <trkpt lat="44.75507" lon="5.37938">
        <ele>426.96</ele>
        <time>2019-03-28T09:15:25Z</time>
      </trkpt>
      <trkpt lat="44.75507" lon="5.37952">
        <ele>427.92</ele>
        <time>2019-03-28T09:15:34Z</time>
      </trkpt>
      <trkpt lat="44.75506" lon="5.37961">
        <ele>428.4</ele>
        <time>2019-03-28T09:15:44Z</time>
      </trkpt>
      <trkpt lat="44.75501" lon="5.3797">
        <ele>430.33</ele>
        <time>2019-03-28T09:15:57Z</time>
      </trkpt>
      <trkpt lat="44.75499" lon="5.37982">
        <ele>428.4</ele>
        <time>2019-03-28T09:16:09Z</time>
      </trkpt>
      <trkpt lat="44.75498" lon="5.37999">
        <ele>429.37</ele>
        <time>2019-03-28T09:16:19Z</time>
      </trkpt>
      <trkpt lat="44.75496" lon="5.38004">
        <ele>430.81</ele>
        <time>2019-03-28T09:16:26Z</time>
      </trkpt>
      <trkpt lat="44.75493" lon="5.38007">
        <ele>429.37</ele>
        <time>2019-03-28T09:16:28Z</time>
      </trkpt>
      <trkpt lat="44.75489" lon="5.38023">
        <ele>429.85</ele>
        <time>2019-03-28T09:16:39Z</time>
      </trkpt>
      <trkpt lat="44.75486" lon="5.38045">
        <ele>429.85</ele>
        <time>2019-03-28T09:16:52Z</time>
      </trkpt>
      <trkpt lat="44.75486" lon="5.38046">
        <ele>429.37</ele>
        <time>2019-03-28T09:16:53Z</time>
      </trkpt>
      <trkpt lat="44.75484" lon="5.38053">
        <ele>429.85</ele>
        <time>2019-03-28T09:16:57Z</time>
      </trkpt>
      <trkpt lat="44.7548" lon="5.38066">
        <ele>429.85</ele>
        <time>2019-03-28T09:17:05Z</time>
      </trkpt>
      <trkpt lat="44.75476" lon="5.38079">
        <ele>430.81</ele>
        <time>2019-03-28T09:17:14Z</time>
      </trkpt>
      <trkpt lat="44.75471" lon="5.38088">
        <ele>429.85</ele>
        <time>2019-03-28T09:17:23Z</time>
      </trkpt>
      <trkpt lat="44.75472" lon="5.38093">
        <ele>431.29</ele>
        <time>2019-03-28T09:17:26Z</time>
      </trkpt>
      <trkpt lat="44.75466" lon="5.38104">
        <ele>431.29</ele>
        <time>2019-03-28T09:17:37Z</time>
      </trkpt>
      <trkpt lat="44.75464" lon="5.38112">
        <ele>431.77</ele>
        <time>2019-03-28T09:17:45Z</time>
      </trkpt>
      <trkpt lat="44.75459" lon="5.38118">
        <ele>431.29</ele>
        <time>2019-03-28T09:17:55Z</time>
      </trkpt>
      <trkpt lat="44.75454" lon="5.3813">
        <ele>431.29</ele>
        <time>2019-03-28T09:18:07Z</time>
      </trkpt>
      <trkpt lat="44.75449" lon="5.38143">
        <ele>432.73</ele>
        <time>2019-03-28T09:18:19Z</time>
      </trkpt>
      <trkpt lat="44.75443" lon="5.38154">
        <ele>433.21</ele>
        <time>2019-03-28T09:18:30Z</time>
      </trkpt>
      <trkpt lat="44.7544" lon="5.3817">
        <ele>434.65</ele>
        <time>2019-03-28T09:18:42Z</time>
      </trkpt>
      <trkpt lat="44.75431" lon="5.38186">
        <ele>435.61</ele>
        <time>2019-03-28T09:18:55Z</time>
      </trkpt>
      <trkpt lat="44.75426" lon="5.38195">
        <ele>436.58</ele>
        <time>2019-03-28T09:19:07Z</time>
      </trkpt>
      <trkpt lat="44.75422" lon="5.382">
        <ele>439.46</ele>
        <time>2019-03-28T09:19:22Z</time>
      </trkpt>
      <trkpt lat="44.7542" lon="5.38212">
        <ele>439.94</ele>
        <time>2019-03-28T09:19:35Z</time>
      </trkpt>
      <trkpt lat="44.75412" lon="5.38231">
        <ele>441.86</ele>
        <time>2019-03-28T09:19:49Z</time>
      </trkpt>
      <trkpt lat="44.75402" lon="5.38249">
        <ele>442.34</ele>
        <time>2019-03-28T09:19:57Z</time>
      </trkpt>
      <trkpt lat="44.75394" lon="5.38259">
        <ele>443.79</ele>
        <time>2019-03-28T09:20:10Z</time>
      </trkpt>
      <trkpt lat="44.75389" lon="5.3827">
        <ele>445.23</ele>
        <time>2019-03-28T09:20:20Z</time>
      </trkpt>
      <trkpt lat="44.75385" lon="5.38278">
        <ele>443.79</ele>
        <time>2019-03-28T09:20:26Z</time>
      </trkpt>
      <trkpt lat="44.75363" lon="5.38307">
        <ele>446.19</ele>
        <time>2019-03-28T09:20:38Z</time>
      </trkpt>
      <trkpt lat="44.75365" lon="5.38327">
        <ele>445.71</ele>
        <time>2019-03-28T09:20:49Z</time>
      </trkpt>
      <trkpt lat="44.75365" lon="5.38327">
        <ele>446.19</ele>
        <time>2019-03-28T09:21:04Z</time>
      </trkpt>
      <trkpt lat="44.75366" lon="5.38327">
        <ele>445.71</ele>
        <time>2019-03-28T09:21:26Z</time>
      </trkpt>
      <trkpt lat="44.7537" lon="5.38329">
        <ele>446.67</ele>
        <time>2019-03-28T09:21:40Z</time>
      </trkpt>
      <trkpt lat="44.75371" lon="5.38333">
        <ele>447.15</ele>
        <time>2019-03-28T09:21:51Z</time>
      </trkpt>
      <trkpt lat="44.75375" lon="5.38342">
        <ele>448.11</ele>
        <time>2019-03-28T09:22:01Z</time>
      </trkpt>
      <trkpt lat="44.75381" lon="5.3836">
        <ele>448.59</ele>
        <time>2019-03-28T09:22:12Z</time>
      </trkpt>
      <trkpt lat="44.75386" lon="5.38372">
        <ele>449.07</ele>
        <time>2019-03-28T09:22:24Z</time>
      </trkpt>
      <trkpt lat="44.75388" lon="5.3838">
        <ele>450.52</ele>
        <time>2019-03-28T09:22:36Z</time>
      </trkpt>
      <trkpt lat="44.75391" lon="5.38391">
        <ele>451.96</ele>
        <time>2019-03-28T09:22:47Z</time>
      </trkpt>
      <trkpt lat="44.75392" lon="5.38395">
        <ele>452.92</ele>
        <time>2019-03-28T09:22:58Z</time>
      </trkpt>
      <trkpt lat="44.75392" lon="5.38406">
        <ele>454.84</ele>
        <time>2019-03-28T09:23:08Z</time>
      </trkpt>
      <trkpt lat="44.75396" lon="5.38417">
        <ele>455.8</ele>
        <time>2019-03-28T09:23:17Z</time>
      </trkpt>
      <trkpt lat="44.75397" lon="5.38418">
        <ele>456.76</ele>
        <time>2019-03-28T09:23:27Z</time>
      </trkpt>
      <trkpt lat="44.75401" lon="5.38428">
        <ele>458.21</ele>
        <time>2019-03-28T09:23:38Z</time>
      </trkpt>
      <trkpt lat="44.75401" lon="5.38439">
        <ele>460.13</ele>
        <time>2019-03-28T09:23:50Z</time>
      </trkpt>
      <trkpt lat="44.75407" lon="5.38458">
        <ele>462.05</ele>
        <time>2019-03-28T09:24:02Z</time>
      </trkpt>
      <trkpt lat="44.75407" lon="5.38466">
        <ele>462.53</ele>
        <time>2019-03-28T09:24:06Z</time>
      </trkpt>
      <trkpt lat="44.75411" lon="5.38491">
        <ele>463.49</ele>
        <time>2019-03-28T09:24:16Z</time>
      </trkpt>
      <trkpt lat="44.75411" lon="5.38492">
        <ele>463.49</ele>
        <time>2019-03-28T09:24:17Z</time>
      </trkpt>
      <trkpt lat="44.75415" lon="5.38509">
        <ele>463.01</ele>
        <time>2019-03-28T09:24:28Z</time>
      </trkpt>
      <trkpt lat="44.75415" lon="5.3851">
        <ele>464.93</ele>
        <time>2019-03-28T09:24:29Z</time>
      </trkpt>
      <trkpt lat="44.7542" lon="5.38526">
        <ele>465.9</ele>
        <time>2019-03-28T09:24:39Z</time>
      </trkpt>
      <trkpt lat="44.75421" lon="5.38534">
        <ele>468.3</ele>
        <time>2019-03-28T09:24:45Z</time>
      </trkpt>
      <trkpt lat="44.75421" lon="5.38536">
        <ele>466.38</ele>
        <time>2019-03-28T09:24:47Z</time>
      </trkpt>
      <trkpt lat="44.75422" lon="5.38537">
        <ele>467.82</ele>
        <time>2019-03-28T09:24:48Z</time>
      </trkpt>
      <trkpt lat="44.75425" lon="5.38545">
        <ele>468.3</ele>
        <time>2019-03-28T09:24:55Z</time>
      </trkpt>
      <trkpt lat="44.75435" lon="5.38558">
        <ele>469.74</ele>
        <time>2019-03-28T09:25:07Z</time>
      </trkpt>
      <trkpt lat="44.75437" lon="5.38559">
        <ele>469.74</ele>
        <time>2019-03-28T09:25:11Z</time>
      </trkpt>
      <trkpt lat="44.75442" lon="5.38569">
        <ele>471.66</ele>
        <time>2019-03-28T09:25:19Z</time>
      </trkpt>
      <trkpt lat="44.75443" lon="5.3857">
        <ele>469.74</ele>
        <time>2019-03-28T09:25:20Z</time>
      </trkpt>
      <trkpt lat="44.75446" lon="5.38576">
        <ele>472.63</ele>
        <time>2019-03-28T09:25:24Z</time>
      </trkpt>
      <trkpt lat="44.75447" lon="5.38577">
        <ele>471.66</ele>
        <time>2019-03-28T09:25:25Z</time>
      </trkpt>
      <trkpt lat="44.75454" lon="5.38588">
        <ele>473.59</ele>
        <time>2019-03-28T09:25:35Z</time>
      </trkpt>
      <trkpt lat="44.75455" lon="5.38589">
        <ele>472.14</ele>
        <time>2019-03-28T09:25:36Z</time>
      </trkpt>
      <trkpt lat="44.75464" lon="5.38605">
        <ele>472.63</ele>
        <time>2019-03-28T09:25:49Z</time>
      </trkpt>
      <trkpt lat="44.75464" lon="5.38605">
        <ele>474.55</ele>
        <time>2019-03-28T09:25:50Z</time>
      </trkpt>
      <trkpt lat="44.75466" lon="5.38608">
        <ele>475.03</ele>
        <time>2019-03-28T09:25:53Z</time>
      </trkpt>
      <trkpt lat="44.75467" lon="5.3861">
        <ele>475.51</ele>
        <time>2019-03-28T09:25:55Z</time>
      </trkpt>
      <trkpt lat="44.75468" lon="5.38611">
        <ele>473.11</ele>
        <time>2019-03-28T09:25:56Z</time>
      </trkpt>
      <trkpt lat="44.75468" lon="5.38612">
        <ele>475.99</ele>
        <time>2019-03-28T09:25:57Z</time>
      </trkpt>
      <trkpt lat="44.75478" lon="5.38635">
        <ele>475.99</ele>
        <time>2019-03-28T09:26:08Z</time>
      </trkpt>
      <trkpt lat="44.75497" lon="5.38667">
        <ele>477.43</ele>
        <time>2019-03-28T09:26:22Z</time>
      </trkpt>
      <trkpt lat="44.75502" lon="5.38675">
        <ele>478.87</ele>
        <time>2019-03-28T09:26:33Z</time>
      </trkpt>
      <trkpt lat="44.755" lon="5.38692">
        <ele>478.87</ele>
        <time>2019-03-28T09:26:44Z</time>
      </trkpt>
      <trkpt lat="44.75497" lon="5.38702">
        <ele>479.84</ele>
        <time>2019-03-28T09:26:55Z</time>
      </trkpt>
      <trkpt lat="44.75486" lon="5.38705">
        <ele>480.8</ele>
        <time>2019-03-28T09:27:05Z</time>
      </trkpt>
      <trkpt lat="44.75484" lon="5.38704">
        <ele>481.76</ele>
        <time>2019-03-28T09:27:15Z</time>
      </trkpt>
      <trkpt lat="44.75486" lon="5.38711">
        <ele>483.68</ele>
        <time>2019-03-28T09:27:25Z</time>
      </trkpt>
      <trkpt lat="44.75486" lon="5.38724">
        <ele>485.12</ele>
        <time>2019-03-28T09:27:32Z</time>
      </trkpt>
      <trkpt lat="44.75488" lon="5.38737">
        <ele>486.08</ele>
        <time>2019-03-28T09:27:40Z</time>
      </trkpt>
      <trkpt lat="44.7549" lon="5.38747">
        <ele>487.05</ele>
        <time>2019-03-28T09:27:50Z</time>
      </trkpt>
      <trkpt lat="44.75494" lon="5.38753">
        <ele>488.97</ele>
        <time>2019-03-28T09:28:01Z</time>
      </trkpt>
      <trkpt lat="44.75499" lon="5.38766">
        <ele>489.93</ele>
        <time>2019-03-28T09:28:11Z</time>
      </trkpt>
      <trkpt lat="44.75504" lon="5.38772">
        <ele>490.41</ele>
        <time>2019-03-28T09:28:20Z</time>
      </trkpt>
      <trkpt lat="44.7551" lon="5.38781">
        <ele>490.89</ele>
        <time>2019-03-28T09:28:29Z</time>
      </trkpt>
      <trkpt lat="44.7551" lon="5.38784">
        <ele>491.37</ele>
        <time>2019-03-28T09:28:31Z</time>
      </trkpt>
      <trkpt lat="44.75511" lon="5.38786">
        <ele>493.29</ele>
        <time>2019-03-28T09:28:33Z</time>
      </trkpt>
      <trkpt lat="44.75514" lon="5.38798">
        <ele>493.29</ele>
        <time>2019-03-28T09:28:39Z</time>
      </trkpt>
      <trkpt lat="44.7552" lon="5.3881">
        <ele>494.26</ele>
        <time>2019-03-28T09:28:51Z</time>
      </trkpt>
      <trkpt lat="44.75524" lon="5.38822">
        <ele>494.26</ele>
        <time>2019-03-28T09:29:01Z</time>
      </trkpt>
      <trkpt lat="44.75527" lon="5.3883">
        <ele>497.14</ele>
        <time>2019-03-28T09:29:09Z</time>
      </trkpt>
      <trkpt lat="44.75531" lon="5.3884">
        <ele>496.66</ele>
        <time>2019-03-28T09:29:20Z</time>
      </trkpt>
      <trkpt lat="44.7554" lon="5.38852">
        <ele>496.18</ele>
        <time>2019-03-28T09:29:31Z</time>
      </trkpt>
      <trkpt lat="44.7555" lon="5.38864">
        <ele>496.66</ele>
        <time>2019-03-28T09:29:42Z</time>
      </trkpt>
      <trkpt lat="44.75557" lon="5.38877">
        <ele>498.1</ele>
        <time>2019-03-28T09:29:52Z</time>
      </trkpt>
      <trkpt lat="44.75558" lon="5.38881">
        <ele>498.58</ele>
        <time>2019-03-28T09:29:55Z</time>
      </trkpt>
      <trkpt lat="44.7556" lon="5.38884">
        <ele>499.06</ele>
        <time>2019-03-28T09:29:57Z</time>
      </trkpt>
      <trkpt lat="44.75565" lon="5.38893">
        <ele>499.54</ele>
        <time>2019-03-28T09:30:05Z</time>
      </trkpt>
      <trkpt lat="44.75571" lon="5.389">
        <ele>500.5</ele>
        <time>2019-03-28T09:30:15Z</time>
      </trkpt>
      <trkpt lat="44.75577" lon="5.38908">
        <ele>502.43</ele>
        <time>2019-03-28T09:30:25Z</time>
      </trkpt>
      <trkpt lat="44.75581" lon="5.38918">
        <ele>502.43</ele>
        <time>2019-03-28T09:30:34Z</time>
      </trkpt>
      <trkpt lat="44.75583" lon="5.38927">
        <ele>502.91</ele>
        <time>2019-03-28T09:30:39Z</time>
      </trkpt>
      <trkpt lat="44.75586" lon="5.38938">
        <ele>503.87</ele>
        <time>2019-03-28T09:30:49Z</time>
      </trkpt>
      <trkpt lat="44.75588" lon="5.38945">
        <ele>505.79</ele>
        <time>2019-03-28T09:30:56Z</time>
      </trkpt>
      <trkpt lat="44.75593" lon="5.38955">
        <ele>507.23</ele>
        <time>2019-03-28T09:31:06Z</time>
      </trkpt>
      <trkpt lat="44.75597" lon="5.38967">
        <ele>507.71</ele>
        <time>2019-03-28T09:31:17Z</time>
      </trkpt>
      <trkpt lat="44.75601" lon="5.3898">
        <ele>508.19</ele>
        <time>2019-03-28T09:31:30Z</time>
      </trkpt>
      <trkpt lat="44.75603" lon="5.38984">
        <ele>510.6</ele>
        <time>2019-03-28T09:31:35Z</time>
      </trkpt>
      <trkpt lat="44.75603" lon="5.38998">
        <ele>511.08</ele>
        <time>2019-03-28T09:31:45Z</time>
      </trkpt>
      <trkpt lat="44.75604" lon="5.39013">
        <ele>513</ele>
        <time>2019-03-28T09:31:56Z</time>
      </trkpt>
      <trkpt lat="44.75596" lon="5.39037">
        <ele>514.92</ele>
        <time>2019-03-28T09:32:11Z</time>
      </trkpt>
      <trkpt lat="44.75591" lon="5.39047">
        <ele>516.37</ele>
        <time>2019-03-28T09:32:23Z</time>
      </trkpt>
      <trkpt lat="44.75589" lon="5.39052">
        <ele>517.33</ele>
        <time>2019-03-28T09:32:34Z</time>
      </trkpt>
      <trkpt lat="44.75581" lon="5.39052">
        <ele>518.29</ele>
        <time>2019-03-28T09:32:45Z</time>
      </trkpt>
      <trkpt lat="44.75562" lon="5.39047">
        <ele>518.29</ele>
        <time>2019-03-28T09:32:57Z</time>
      </trkpt>
      <trkpt lat="44.75555" lon="5.39042">
        <ele>518.77</ele>
        <time>2019-03-28T09:33:02Z</time>
      </trkpt>
      <trkpt lat="44.7555" lon="5.39039">
        <ele>519.25</ele>
        <time>2019-03-28T09:33:06Z</time>
      </trkpt>
      <trkpt lat="44.75536" lon="5.39035">
        <ele>520.69</ele>
        <time>2019-03-28T09:33:17Z</time>
      </trkpt>
      <trkpt lat="44.75536" lon="5.39035">
        <ele>520.69</ele>
        <time>2019-03-28T09:33:18Z</time>
      </trkpt>
      <trkpt lat="44.75527" lon="5.3903">
        <ele>521.17</ele>
        <time>2019-03-28T09:33:29Z</time>
      </trkpt>
      <trkpt lat="44.75522" lon="5.39023">
        <ele>521.65</ele>
        <time>2019-03-28T09:33:39Z</time>
      </trkpt>
      <trkpt lat="44.75519" lon="5.39015">
        <ele>524.06</ele>
        <time>2019-03-28T09:33:50Z</time>
      </trkpt>
      <trkpt lat="44.75514" lon="5.39008">
        <ele>525.02</ele>
        <time>2019-03-28T09:34:02Z</time>
      </trkpt>
      <trkpt lat="44.75513" lon="5.39003">
        <ele>526.94</ele>
        <time>2019-03-28T09:34:12Z</time>
      </trkpt>
      <trkpt lat="44.75508" lon="5.3901">
        <ele>528.86</ele>
        <time>2019-03-28T09:34:25Z</time>
      </trkpt>
      <trkpt lat="44.75505" lon="5.39015">
        <ele>529.34</ele>
        <time>2019-03-28T09:34:36Z</time>
      </trkpt>
      <trkpt lat="44.75503" lon="5.39027">
        <ele>530.79</ele>
        <time>2019-03-28T09:34:46Z</time>
      </trkpt>
      <trkpt lat="44.75497" lon="5.39032">
        <ele>533.19</ele>
        <time>2019-03-28T09:34:56Z</time>
      </trkpt>
      <trkpt lat="44.75494" lon="5.39044">
        <ele>532.71</ele>
        <time>2019-03-28T09:35:06Z</time>
      </trkpt>
      <trkpt lat="44.75488" lon="5.3905">
        <ele>532.71</ele>
        <time>2019-03-28T09:35:15Z</time>
      </trkpt>
      <trkpt lat="44.75485" lon="5.39063">
        <ele>533.67</ele>
        <time>2019-03-28T09:35:25Z</time>
      </trkpt>
      <trkpt lat="44.75474" lon="5.39084">
        <ele>536.55</ele>
        <time>2019-03-28T09:35:36Z</time>
      </trkpt>
      <trkpt lat="44.75471" lon="5.3909">
        <ele>537.99</ele>
        <time>2019-03-28T09:35:46Z</time>
      </trkpt>
      <trkpt lat="44.75469" lon="5.39095">
        <ele>539.92</ele>
        <time>2019-03-28T09:35:56Z</time>
      </trkpt>
      <trkpt lat="44.75472" lon="5.3911">
        <ele>540.4</ele>
        <time>2019-03-28T09:36:07Z</time>
      </trkpt>
      <trkpt lat="44.75478" lon="5.39114">
        <ele>541.36</ele>
        <time>2019-03-28T09:36:18Z</time>
      </trkpt>
      <trkpt lat="44.75479" lon="5.39115">
        <ele>541.84</ele>
        <time>2019-03-28T09:36:19Z</time>
      </trkpt>
      <trkpt lat="44.75479" lon="5.39141">
        <ele>543.76</ele>
        <time>2019-03-28T09:36:30Z</time>
      </trkpt>
      <trkpt lat="44.7548" lon="5.39146">
        <ele>543.28</ele>
        <time>2019-03-28T09:36:45Z</time>
      </trkpt>
      <trkpt lat="44.7548" lon="5.39153">
        <ele>545.2</ele>
        <time>2019-03-28T09:37:00Z</time>
      </trkpt>
      <trkpt lat="44.75475" lon="5.39162">
        <ele>547.13</ele>
        <time>2019-03-28T09:37:10Z</time>
      </trkpt>
      <trkpt lat="44.75469" lon="5.39168">
        <ele>546.65</ele>
        <time>2019-03-28T09:37:20Z</time>
      </trkpt>
      <trkpt lat="44.75468" lon="5.39168">
        <ele>548.09</ele>
        <time>2019-03-28T09:37:23Z</time>
      </trkpt>
      <trkpt lat="44.75466" lon="5.39172">
        <ele>547.61</ele>
        <time>2019-03-28T09:37:50Z</time>
      </trkpt>
      <trkpt lat="44.75463" lon="5.39177">
        <ele>548.57</ele>
        <time>2019-03-28T09:38:17Z</time>
      </trkpt>
      <trkpt lat="44.75466" lon="5.39165">
        <ele>549.53</ele>
        <time>2019-03-28T09:38:29Z</time>
      </trkpt>
      <trkpt lat="44.75466" lon="5.39164">
        <ele>546.65</ele>
        <time>2019-03-28T09:38:30Z</time>
      </trkpt>
      <trkpt lat="44.75466" lon="5.3916">
        <ele>546.17</ele>
        <time>2019-03-28T09:38:40Z</time>
      </trkpt>
      <trkpt lat="44.75464" lon="5.39159">
        <ele>545.2</ele>
        <time>2019-03-28T09:38:55Z</time>
      </trkpt>
      <trkpt lat="44.75463" lon="5.39158">
        <ele>549.05</ele>
        <time>2019-03-28T09:39:07Z</time>
      </trkpt>
      <trkpt lat="44.75463" lon="5.39158">
        <ele>545.2</ele>
        <time>2019-03-28T09:39:08Z</time>
      </trkpt>
      <trkpt lat="44.75463" lon="5.39157">
        <ele>545.2</ele>
        <time>2019-03-28T09:39:33Z</time>
      </trkpt>
      <trkpt lat="44.75462" lon="5.39156">
        <ele>546.17</ele>
        <time>2019-03-28T09:39:56Z</time>
      </trkpt>
      <trkpt lat="44.75461" lon="5.39155">
        <ele>544.72</ele>
        <time>2019-03-28T09:39:58Z</time>
      </trkpt>
      <trkpt lat="44.7546" lon="5.39153">
        <ele>545.69</ele>
        <time>2019-03-28T09:40:24Z</time>
      </trkpt>
      <trkpt lat="44.75461" lon="5.39154">
        <ele>545.2</ele>
        <time>2019-03-28T09:40:48Z</time>
      </trkpt>
      <trkpt lat="44.75462" lon="5.39154">
        <ele>544.72</ele>
        <time>2019-03-28T09:41:10Z</time>
      </trkpt>
      <trkpt lat="44.75462" lon="5.39154">
        <ele>545.69</ele>
        <time>2019-03-28T09:41:12Z</time>
      </trkpt>
      <trkpt lat="44.75468" lon="5.3916">
        <ele>546.65</ele>
        <time>2019-03-28T09:41:23Z</time>
      </trkpt>
      <trkpt lat="44.75469" lon="5.39166">
        <ele>548.57</ele>
        <time>2019-03-28T09:41:34Z</time>
      </trkpt>
      <trkpt lat="44.7547" lon="5.39172">
        <ele>550.49</ele>
        <time>2019-03-28T09:41:45Z</time>
      </trkpt>
      <trkpt lat="44.7547" lon="5.39172">
        <ele>551.45</ele>
        <time>2019-03-28T09:41:47Z</time>
      </trkpt>
      <trkpt lat="44.75472" lon="5.39182">
        <ele>552.9</ele>
        <time>2019-03-28T09:41:56Z</time>
      </trkpt>
      <trkpt lat="44.75469" lon="5.39187">
        <ele>551.93</ele>
        <time>2019-03-28T09:42:07Z</time>
      </trkpt>
      <trkpt lat="44.75469" lon="5.39188">
        <ele>556.26</ele>
        <time>2019-03-28T09:42:08Z</time>
      </trkpt>
      <trkpt lat="44.75464" lon="5.392">
        <ele>555.78</ele>
        <time>2019-03-28T09:42:20Z</time>
      </trkpt>
      <trkpt lat="44.75463" lon="5.39206">
        <ele>557.7</ele>
        <time>2019-03-28T09:42:33Z</time>
      </trkpt>
      <trkpt lat="44.75463" lon="5.39209">
        <ele>558.66</ele>
        <time>2019-03-28T09:42:46Z</time>
      </trkpt>
      <trkpt lat="44.75455" lon="5.39218">
        <ele>559.62</ele>
        <time>2019-03-28T09:42:59Z</time>
      </trkpt>
      <trkpt lat="44.7544" lon="5.39231">
        <ele>561.07</ele>
        <time>2019-03-28T09:43:13Z</time>
      </trkpt>
      <trkpt lat="44.75432" lon="5.3924">
        <ele>562.99</ele>
        <time>2019-03-28T09:43:28Z</time>
      </trkpt>
      <trkpt lat="44.75419" lon="5.39245">
        <ele>563.47</ele>
        <time>2019-03-28T09:43:41Z</time>
      </trkpt>
      <trkpt lat="44.75411" lon="5.3926">
        <ele>564.43</ele>
        <time>2019-03-28T09:43:53Z</time>
      </trkpt>
      <trkpt lat="44.75409" lon="5.39256">
        <ele>565.39</ele>
        <time>2019-03-28T09:44:05Z</time>
      </trkpt>
      <trkpt lat="44.75409" lon="5.39255">
        <ele>567.8</ele>
        <time>2019-03-28T09:44:16Z</time>
      </trkpt>
      <trkpt lat="44.75411" lon="5.39254">
        <ele>569.24</ele>
        <time>2019-03-28T09:44:24Z</time>
      </trkpt>
      <trkpt lat="44.75416" lon="5.39254">
        <ele>571.16</ele>
        <time>2019-03-28T09:44:35Z</time>
      </trkpt>
      <trkpt lat="44.75421" lon="5.39254">
        <ele>573.08</ele>
        <time>2019-03-28T09:44:46Z</time>
      </trkpt>
      <trkpt lat="44.75427" lon="5.39254">
        <ele>573.56</ele>
        <time>2019-03-28T09:44:56Z</time>
      </trkpt>
      <trkpt lat="44.75428" lon="5.39256">
        <ele>574.04</ele>
        <time>2019-03-28T09:45:08Z</time>
      </trkpt>
      <trkpt lat="44.75428" lon="5.39261">
        <ele>575.97</ele>
        <time>2019-03-28T09:45:18Z</time>
      </trkpt>
      <trkpt lat="44.7543" lon="5.39268">
        <ele>576.93</ele>
        <time>2019-03-28T09:45:26Z</time>
      </trkpt>
      <trkpt lat="44.75435" lon="5.3928">
        <ele>577.41</ele>
        <time>2019-03-28T09:45:34Z</time>
      </trkpt>
      <trkpt lat="44.75437" lon="5.3929">
        <ele>579.33</ele>
        <time>2019-03-28T09:45:46Z</time>
      </trkpt>
      <trkpt lat="44.75436" lon="5.393">
        <ele>581.25</ele>
        <time>2019-03-28T09:45:56Z</time>
      </trkpt>
      <trkpt lat="44.75435" lon="5.39304">
        <ele>582.22</ele>
        <time>2019-03-28T09:46:02Z</time>
      </trkpt>
      <trkpt lat="44.75434" lon="5.39305">
        <ele>583.66</ele>
        <time>2019-03-28T09:46:13Z</time>
      </trkpt>
      <trkpt lat="44.75433" lon="5.39307">
        <ele>584.14</ele>
        <time>2019-03-28T09:46:16Z</time>
      </trkpt>
      <trkpt lat="44.75432" lon="5.39321">
        <ele>585.58</ele>
        <time>2019-03-28T09:46:27Z</time>
      </trkpt>
      <trkpt lat="44.75432" lon="5.39328">
        <ele>587.5</ele>
        <time>2019-03-28T09:46:37Z</time>
      </trkpt>
      <trkpt lat="44.75432" lon="5.39334">
        <ele>588.95</ele>
        <time>2019-03-28T09:46:47Z</time>
      </trkpt>
      <trkpt lat="44.75432" lon="5.3934">
        <ele>589.43</ele>
        <time>2019-03-28T09:46:57Z</time>
      </trkpt>
      <trkpt lat="44.75432" lon="5.39343">
        <ele>591.35</ele>
        <time>2019-03-28T09:47:03Z</time>
      </trkpt>
      <trkpt lat="44.75433" lon="5.39349">
        <ele>590.87</ele>
        <time>2019-03-28T09:47:12Z</time>
      </trkpt>
      <trkpt lat="44.75432" lon="5.39349">
        <ele>594.23</ele>
        <time>2019-03-28T09:47:15Z</time>
      </trkpt>
      <trkpt lat="44.75434" lon="5.39357">
        <ele>594.71</ele>
        <time>2019-03-28T09:47:24Z</time>
      </trkpt>
      <trkpt lat="44.75435" lon="5.39362">
        <ele>595.67</ele>
        <time>2019-03-28T09:47:33Z</time>
      </trkpt>
      <trkpt lat="44.75436" lon="5.39366">
        <ele>596.15</ele>
        <time>2019-03-28T09:47:59Z</time>
      </trkpt>
      <trkpt lat="44.75438" lon="5.39381">
        <ele>598.56</ele>
        <time>2019-03-28T09:48:11Z</time>
      </trkpt>
      <trkpt lat="44.75438" lon="5.39385">
        <ele>600</ele>
        <time>2019-03-28T09:48:22Z</time>
      </trkpt>
      <trkpt lat="44.75436" lon="5.39389">
        <ele>602.4</ele>
        <time>2019-03-28T09:48:31Z</time>
      </trkpt>
      <trkpt lat="44.75434" lon="5.394">
        <ele>603.36</ele>
        <time>2019-03-28T09:48:43Z</time>
      </trkpt>
      <trkpt lat="44.75435" lon="5.39401">
        <ele>606.73</ele>
        <time>2019-03-28T09:48:55Z</time>
      </trkpt>
      <trkpt lat="44.75434" lon="5.39401">
        <ele>606.73</ele>
        <time>2019-03-28T09:48:56Z</time>
      </trkpt>
      <trkpt lat="44.75437" lon="5.39402">
        <ele>607.21</ele>
        <time>2019-03-28T09:49:07Z</time>
      </trkpt>
      <trkpt lat="44.75436" lon="5.39402">
        <ele>610.09</ele>
        <time>2019-03-28T09:49:17Z</time>
      </trkpt>
      <trkpt lat="44.75435" lon="5.39404">
        <ele>606.73</ele>
        <time>2019-03-28T09:49:21Z</time>
      </trkpt>
      <trkpt lat="44.75436" lon="5.39408">
        <ele>611.54</ele>
        <time>2019-03-28T09:49:25Z</time>
      </trkpt>
      <trkpt lat="44.75436" lon="5.39409">
        <ele>610.57</ele>
        <time>2019-03-28T09:49:26Z</time>
      </trkpt>
      <trkpt lat="44.75437" lon="5.3941">
        <ele>609.61</ele>
        <time>2019-03-28T09:49:28Z</time>
      </trkpt>
      <trkpt lat="44.75444" lon="5.3942">
        <ele>612.02</ele>
        <time>2019-03-28T09:49:40Z</time>
      </trkpt>
      <trkpt lat="44.75449" lon="5.3943">
        <ele>612.5</ele>
        <time>2019-03-28T09:49:51Z</time>
      </trkpt>
      <trkpt lat="44.75455" lon="5.39453">
        <ele>614.42</ele>
        <time>2019-03-28T09:50:04Z</time>
      </trkpt>
      <trkpt lat="44.75456" lon="5.39459">
        <ele>616.34</ele>
        <time>2019-03-28T09:50:13Z</time>
      </trkpt>
      <trkpt lat="44.75458" lon="5.39473">
        <ele>617.3</ele>
        <time>2019-03-28T09:50:25Z</time>
      </trkpt>
      <trkpt lat="44.75462" lon="5.39487">
        <ele>618.75</ele>
        <time>2019-03-28T09:50:38Z</time>
      </trkpt>
      <trkpt lat="44.75463" lon="5.39498">
        <ele>621.63</ele>
        <time>2019-03-28T09:50:52Z</time>
      </trkpt>
      <trkpt lat="44.75465" lon="5.39506">
        <ele>621.15</ele>
        <time>2019-03-28T09:51:02Z</time>
      </trkpt>
      <trkpt lat="44.75465" lon="5.39511">
        <ele>623.07</ele>
        <time>2019-03-28T09:51:13Z</time>
      </trkpt>
      <trkpt lat="44.75465" lon="5.39518">
        <ele>624.99</ele>
        <time>2019-03-28T09:51:26Z</time>
      </trkpt>
      <trkpt lat="44.75467" lon="5.39531">
        <ele>627.4</ele>
        <time>2019-03-28T09:51:38Z</time>
      </trkpt>
      <trkpt lat="44.75468" lon="5.39545">
        <ele>628.36</ele>
        <time>2019-03-28T09:51:50Z</time>
      </trkpt>
      <trkpt lat="44.7547" lon="5.39555">
        <ele>628.84</ele>
        <time>2019-03-28T09:52:01Z</time>
      </trkpt>
      <trkpt lat="44.75471" lon="5.39558">
        <ele>630.28</ele>
        <time>2019-03-28T09:52:03Z</time>
      </trkpt>
      <trkpt lat="44.75472" lon="5.39568">
        <ele>630.76</ele>
        <time>2019-03-28T09:52:15Z</time>
      </trkpt>
      <trkpt lat="44.75473" lon="5.39569">
        <ele>634.13</ele>
        <time>2019-03-28T09:52:17Z</time>
      </trkpt>
      <trkpt lat="44.75474" lon="5.39574">
        <ele>630.76</ele>
        <time>2019-03-28T09:52:19Z</time>
      </trkpt>
      <trkpt lat="44.75477" lon="5.39588">
        <ele>634.61</ele>
        <time>2019-03-28T09:52:30Z</time>
      </trkpt>
      <trkpt lat="44.75479" lon="5.39593">
        <ele>633.17</ele>
        <time>2019-03-28T09:52:38Z</time>
      </trkpt>
      <trkpt lat="44.75481" lon="5.39602">
        <ele>635.57</ele>
        <time>2019-03-28T09:52:48Z</time>
      </trkpt>
      <trkpt lat="44.75486" lon="5.39618">
        <ele>636.05</ele>
        <time>2019-03-28T09:53:02Z</time>
      </trkpt>
      <trkpt lat="44.75489" lon="5.39626">
        <ele>636.53</ele>
        <time>2019-03-28T09:53:17Z</time>
      </trkpt>
      <trkpt lat="44.75491" lon="5.39636">
        <ele>636.05</ele>
        <time>2019-03-28T09:53:33Z</time>
      </trkpt>
      <trkpt lat="44.75492" lon="5.39644">
        <ele>635.57</ele>
        <time>2019-03-28T09:53:53Z</time>
      </trkpt>
      <trkpt lat="44.75493" lon="5.39649">
        <ele>635.09</ele>
        <time>2019-03-28T09:54:14Z</time>
      </trkpt>
      <trkpt lat="44.75493" lon="5.39652">
        <ele>634.13</ele>
        <time>2019-03-28T09:54:39Z</time>
      </trkpt>
      <trkpt lat="44.75494" lon="5.39654">
        <ele>634.13</ele>
        <time>2019-03-28T09:54:56Z</time>
      </trkpt>
      <trkpt lat="44.75495" lon="5.39657">
        <ele>633.65</ele>
        <time>2019-03-28T09:55:13Z</time>
      </trkpt>
      <trkpt lat="44.75495" lon="5.39658">
        <ele>633.17</ele>
        <time>2019-03-28T09:55:32Z</time>
      </trkpt>
      <trkpt lat="44.75495" lon="5.39657">
        <ele>632.2</ele>
        <time>2019-03-28T09:55:58Z</time>
      </trkpt>
      <trkpt lat="44.75494" lon="5.39658">
        <ele>631.72</ele>
        <time>2019-03-28T09:56:18Z</time>
      </trkpt>
      <trkpt lat="44.75494" lon="5.39657">
        <ele>631.24</ele>
        <time>2019-03-28T09:56:39Z</time>
      </trkpt>
      <trkpt lat="44.75494" lon="5.39657">
        <ele>627.88</ele>
        <time>2019-03-28T09:56:46Z</time>
      </trkpt>
      <trkpt lat="44.75494" lon="5.39657">
        <ele>633.17</ele>
        <time>2019-03-28T09:56:47Z</time>
      </trkpt>
      <trkpt lat="44.75494" lon="5.39658">
        <ele>629.8</ele>
        <time>2019-03-28T09:56:53Z</time>
      </trkpt>
      <trkpt lat="44.75494" lon="5.39658">
        <ele>631.24</ele>
        <time>2019-03-28T09:56:56Z</time>
      </trkpt>
      <trkpt lat="44.75494" lon="5.39658">
        <ele>631.72</ele>
        <time>2019-03-28T09:57:12Z</time>
      </trkpt>
      <trkpt lat="44.75494" lon="5.39658">
        <ele>633.17</ele>
        <time>2019-03-28T09:57:23Z</time>
      </trkpt>
      <trkpt lat="44.75495" lon="5.39659">
        <ele>634.61</ele>
        <time>2019-03-28T09:57:34Z</time>
      </trkpt>
      <trkpt lat="44.75497" lon="5.39662">
        <ele>636.05</ele>
        <time>2019-03-28T09:57:44Z</time>
      </trkpt>
      <trkpt lat="44.755" lon="5.3967">
        <ele>637.97</ele>
        <time>2019-03-28T09:57:54Z</time>
      </trkpt>
      <trkpt lat="44.755" lon="5.3967">
        <ele>638.45</ele>
        <time>2019-03-28T09:57:56Z</time>
      </trkpt>
      <trkpt lat="44.75504" lon="5.39676">
        <ele>639.89</ele>
        <time>2019-03-28T09:58:06Z</time>
      </trkpt>
      <trkpt lat="44.75505" lon="5.39681">
        <ele>641.34</ele>
        <time>2019-03-28T09:58:16Z</time>
      </trkpt>
      <trkpt lat="44.75507" lon="5.39687">
        <ele>642.78</ele>
        <time>2019-03-28T09:58:27Z</time>
      </trkpt>
      <trkpt lat="44.75508" lon="5.39691">
        <ele>644.22</ele>
        <time>2019-03-28T09:58:38Z</time>
      </trkpt>
      <trkpt lat="44.75516" lon="5.39701">
        <ele>646.14</ele>
        <time>2019-03-28T09:58:49Z</time>
      </trkpt>
      <trkpt lat="44.75519" lon="5.39706">
        <ele>646.62</ele>
        <time>2019-03-28T09:58:53Z</time>
      </trkpt>
      <trkpt lat="44.75523" lon="5.39719">
        <ele>647.1</ele>
        <time>2019-03-28T09:58:47Z</time>
      </trkpt>
      <trkpt lat="44.75527" lon="5.39732">
        <ele>649.03</ele>
        <time>2019-03-28T09:59:01Z</time>
      </trkpt>
      <trkpt lat="44.75527" lon="5.39718">
        <ele>650.47</ele>
        <time>2019-03-28T09:59:10Z</time>
      </trkpt>
      <trkpt lat="44.75528" lon="5.39712">
        <ele>651.91</ele>
        <time>2019-03-28T09:59:20Z</time>
      </trkpt>
      <trkpt lat="44.75527" lon="5.39709">
        <ele>652.87</ele>
        <time>2019-03-28T09:59:28Z</time>
      </trkpt>
      <trkpt lat="44.75526" lon="5.39712">
        <ele>652.87</ele>
        <time>2019-03-28T09:59:36Z</time>
      </trkpt>
      <trkpt lat="44.75524" lon="5.39719">
        <ele>653.83</ele>
        <time>2019-03-28T09:59:47Z</time>
      </trkpt>
      <trkpt lat="44.75517" lon="5.39735">
        <ele>654.8</ele>
        <time>2019-03-28T09:59:57Z</time>
      </trkpt>
      <trkpt lat="44.75517" lon="5.39744">
        <ele>655.28</ele>
        <time>2019-03-28T10:00:04Z</time>
      </trkpt>
      <trkpt lat="44.75522" lon="5.39763">
        <ele>654.8</ele>
        <time>2019-03-28T10:00:13Z</time>
      </trkpt>
      <trkpt lat="44.75523" lon="5.39784">
        <ele>654.8</ele>
        <time>2019-03-28T10:00:24Z</time>
      </trkpt>
      <trkpt lat="44.75525" lon="5.39807">
        <ele>655.28</ele>
        <time>2019-03-28T10:00:34Z</time>
      </trkpt>
      <trkpt lat="44.75521" lon="5.39823">
        <ele>656.24</ele>
        <time>2019-03-28T10:00:44Z</time>
      </trkpt>
      <trkpt lat="44.75519" lon="5.39827">
        <ele>656.72</ele>
        <time>2019-03-28T10:00:58Z</time>
      </trkpt>
      <trkpt lat="44.75515" lon="5.39843">
        <ele>657.2</ele>
        <time>2019-03-28T10:01:09Z</time>
      </trkpt>
      <trkpt lat="44.75508" lon="5.39852">
        <ele>658.64</ele>
        <time>2019-03-28T10:01:20Z</time>
      </trkpt>
      <trkpt lat="44.75487" lon="5.39859">
        <ele>660.08</ele>
        <time>2019-03-28T10:01:31Z</time>
      </trkpt>
      <trkpt lat="44.75494" lon="5.39874">
        <ele>662.01</ele>
        <time>2019-03-28T10:01:44Z</time>
      </trkpt>
      <trkpt lat="44.75485" lon="5.39881">
        <ele>662.49</ele>
        <time>2019-03-28T10:02:00Z</time>
      </trkpt>
      <trkpt lat="44.75509" lon="5.39904">
        <ele>662.97</ele>
        <time>2019-03-28T10:02:19Z</time>
      </trkpt>
      <trkpt lat="44.75509" lon="5.39918">
        <ele>661.04</ele>
        <time>2019-03-28T10:02:32Z</time>
      </trkpt>
      <trkpt lat="44.75506" lon="5.39929">
        <ele>662.97</ele>
        <time>2019-03-28T10:02:47Z</time>
      </trkpt>
      <trkpt lat="44.75491" lon="5.39934">
        <ele>665.85</ele>
        <time>2019-03-28T10:02:59Z</time>
      </trkpt>
      <trkpt lat="44.75488" lon="5.39934">
        <ele>667.29</ele>
        <time>2019-03-28T10:03:12Z</time>
      </trkpt>
      <trkpt lat="44.75483" lon="5.39929">
        <ele>668.73</ele>
        <time>2019-03-28T10:03:24Z</time>
      </trkpt>
      <trkpt lat="44.75473" lon="5.39923">
        <ele>669.7</ele>
        <time>2019-03-28T10:03:36Z</time>
      </trkpt>
      <trkpt lat="44.75467" lon="5.39919">
        <ele>671.14</ele>
        <time>2019-03-28T10:03:48Z</time>
      </trkpt>
      <trkpt lat="44.75464" lon="5.39919">
        <ele>671.62</ele>
        <time>2019-03-28T10:03:56Z</time>
      </trkpt>
      <trkpt lat="44.75463" lon="5.39918">
        <ele>673.06</ele>
        <time>2019-03-28T10:04:06Z</time>
      </trkpt>
      <trkpt lat="44.75457" lon="5.39921">
        <ele>674.5</ele>
        <time>2019-03-28T10:04:21Z</time>
      </trkpt>
      <trkpt lat="44.7544" lon="5.39926">
        <ele>675.94</ele>
        <time>2019-03-28T10:04:34Z</time>
      </trkpt>
      <trkpt lat="44.75425" lon="5.39932">
        <ele>676.91</ele>
        <time>2019-03-28T10:04:44Z</time>
      </trkpt>
      <trkpt lat="44.75413" lon="5.39937">
        <ele>677.87</ele>
        <time>2019-03-28T10:04:56Z</time>
      </trkpt>
      <trkpt lat="44.75405" lon="5.39946">
        <ele>679.31</ele>
        <time>2019-03-28T10:05:06Z</time>
      </trkpt>
      <trkpt lat="44.75395" lon="5.39952">
        <ele>680.75</ele>
        <time>2019-03-28T10:05:18Z</time>
      </trkpt>
      <trkpt lat="44.75386" lon="5.39957">
        <ele>682.67</ele>
        <time>2019-03-28T10:05:29Z</time>
      </trkpt>
      <trkpt lat="44.75377" lon="5.39965">
        <ele>683.63</ele>
        <time>2019-03-28T10:05:43Z</time>
      </trkpt>
      <trkpt lat="44.75368" lon="5.3997">
        <ele>685.56</ele>
        <time>2019-03-28T10:05:55Z</time>
      </trkpt>
      <trkpt lat="44.75365" lon="5.39974">
        <ele>685.56</ele>
        <time>2019-03-28T10:06:09Z</time>
      </trkpt>
      <trkpt lat="44.75351" lon="5.39981">
        <ele>687</ele>
        <time>2019-03-28T10:06:21Z</time>
      </trkpt>
      <trkpt lat="44.75334" lon="5.39996">
        <ele>687.48</ele>
        <time>2019-03-28T10:06:33Z</time>
      </trkpt>
      <trkpt lat="44.75326" lon="5.40001">
        <ele>688.92</ele>
        <time>2019-03-28T10:06:43Z</time>
      </trkpt>
      <trkpt lat="44.75315" lon="5.40002">
        <ele>690.36</ele>
        <time>2019-03-28T10:06:58Z</time>
      </trkpt>
      <trkpt lat="44.75306" lon="5.40011">
        <ele>692.29</ele>
        <time>2019-03-28T10:07:13Z</time>
      </trkpt>
      <trkpt lat="44.75294" lon="5.40021">
        <ele>692.77</ele>
        <time>2019-03-28T10:07:27Z</time>
      </trkpt>
      <trkpt lat="44.75293" lon="5.40022">
        <ele>695.17</ele>
        <time>2019-03-28T10:07:30Z</time>
      </trkpt>
      <trkpt lat="44.75281" lon="5.40045">
        <ele>695.65</ele>
        <time>2019-03-28T10:07:45Z</time>
      </trkpt>
      <trkpt lat="44.7528" lon="5.40046">
        <ele>696.61</ele>
        <time>2019-03-28T10:07:47Z</time>
      </trkpt>
      <trkpt lat="44.75269" lon="5.40056">
        <ele>697.09</ele>
        <time>2019-03-28T10:08:00Z</time>
      </trkpt>
      <trkpt lat="44.75265" lon="5.40053">
        <ele>698.53</ele>
        <time>2019-03-28T10:08:02Z</time>
      </trkpt>
      <trkpt lat="44.75262" lon="5.40052">
        <ele>700.46</ele>
        <time>2019-03-28T10:08:14Z</time>
      </trkpt>
      <trkpt lat="44.75259" lon="5.40053">
        <ele>701.42</ele>
        <time>2019-03-28T10:08:26Z</time>
      </trkpt>
      <trkpt lat="44.75252" lon="5.40059">
        <ele>704.78</ele>
        <time>2019-03-28T10:08:37Z</time>
      </trkpt>
      <trkpt lat="44.75251" lon="5.40063">
        <ele>705.75</ele>
        <time>2019-03-28T10:08:48Z</time>
      </trkpt>
      <trkpt lat="44.75253" lon="5.40073">
        <ele>706.23</ele>
        <time>2019-03-28T10:09:00Z</time>
      </trkpt>
      <trkpt lat="44.75249" lon="5.4008">
        <ele>707.19</ele>
        <time>2019-03-28T10:09:18Z</time>
      </trkpt>
      <trkpt lat="44.75244" lon="5.40079">
        <ele>708.15</ele>
        <time>2019-03-28T10:09:31Z</time>
      </trkpt>
      <trkpt lat="44.75244" lon="5.40083">
        <ele>707.67</ele>
        <time>2019-03-28T10:09:52Z</time>
      </trkpt>
      <trkpt lat="44.75243" lon="5.40086">
        <ele>708.15</ele>
        <time>2019-03-28T10:10:17Z</time>
      </trkpt>
      <trkpt lat="44.75242" lon="5.40094">
        <ele>708.63</ele>
        <time>2019-03-28T10:10:42Z</time>
      </trkpt>
      <trkpt lat="44.75242" lon="5.40097">
        <ele>709.11</ele>
        <time>2019-03-28T10:11:03Z</time>
      </trkpt>
      <trkpt lat="44.75242" lon="5.40098">
        <ele>710.07</ele>
        <time>2019-03-28T10:11:19Z</time>
      </trkpt>
      <trkpt lat="44.75242" lon="5.40099">
        <ele>711.51</ele>
        <time>2019-03-28T10:11:33Z</time>
      </trkpt>
      <trkpt lat="44.75241" lon="5.40101">
        <ele>712.95</ele>
        <time>2019-03-28T10:11:42Z</time>
      </trkpt>
      <trkpt lat="44.75241" lon="5.40104">
        <ele>714.4</ele>
        <time>2019-03-28T10:11:54Z</time>
      </trkpt>
      <trkpt lat="44.75241" lon="5.40105">
        <ele>716.32</ele>
        <time>2019-03-28T10:12:05Z</time>
      </trkpt>
      <trkpt lat="44.7524" lon="5.40114">
        <ele>717.76</ele>
        <time>2019-03-28T10:12:14Z</time>
      </trkpt>
      <trkpt lat="44.75239" lon="5.40121">
        <ele>719.2</ele>
        <time>2019-03-28T10:12:25Z</time>
      </trkpt>
      <trkpt lat="44.75235" lon="5.40132">
        <ele>720.16</ele>
        <time>2019-03-28T10:12:38Z</time>
      </trkpt>
      <trkpt lat="44.75233" lon="5.40139">
        <ele>722.57</ele>
        <time>2019-03-28T10:12:46Z</time>
      </trkpt>
      <trkpt lat="44.75229" lon="5.40146">
        <ele>724.01</ele>
        <time>2019-03-28T10:12:56Z</time>
      </trkpt>
      <trkpt lat="44.75227" lon="5.40156">
        <ele>724.97</ele>
        <time>2019-03-28T10:13:09Z</time>
      </trkpt>
      <trkpt lat="44.75227" lon="5.40163">
        <ele>727.37</ele>
        <time>2019-03-28T10:13:20Z</time>
      </trkpt>
      <trkpt lat="44.75227" lon="5.40169">
        <ele>729.3</ele>
        <time>2019-03-28T10:13:28Z</time>
      </trkpt>
      <trkpt lat="44.75226" lon="5.4018">
        <ele>730.74</ele>
        <time>2019-03-28T10:13:39Z</time>
      </trkpt>
      <trkpt lat="44.75226" lon="5.40187">
        <ele>733.14</ele>
        <time>2019-03-28T10:13:51Z</time>
      </trkpt>
      <trkpt lat="44.75224" lon="5.40191">
        <ele>735.07</ele>
        <time>2019-03-28T10:14:02Z</time>
      </trkpt>
      <trkpt lat="44.75219" lon="5.40195">
        <ele>736.51</ele>
        <time>2019-03-28T10:14:13Z</time>
      </trkpt>
      <trkpt lat="44.75216" lon="5.402">
        <ele>739.39</ele>
        <time>2019-03-28T10:14:27Z</time>
      </trkpt>
      <trkpt lat="44.75213" lon="5.40204">
        <ele>741.31</ele>
        <time>2019-03-28T10:14:38Z</time>
      </trkpt>
      <trkpt lat="44.75208" lon="5.40211">
        <ele>743.24</ele>
        <time>2019-03-28T10:14:49Z</time>
      </trkpt>
      <trkpt lat="44.75205" lon="5.40222">
        <ele>744.2</ele>
        <time>2019-03-28T10:15:00Z</time>
      </trkpt>
      <trkpt lat="44.75203" lon="5.40228">
        <ele>746.6</ele>
        <time>2019-03-28T10:15:10Z</time>
      </trkpt>
      <trkpt lat="44.75202" lon="5.40234">
        <ele>748.52</ele>
        <time>2019-03-28T10:15:20Z</time>
      </trkpt>
      <trkpt lat="44.752" lon="5.40244">
        <ele>749.97</ele>
        <time>2019-03-28T10:15:28Z</time>
      </trkpt>
      <trkpt lat="44.752" lon="5.40249">
        <ele>750.45</ele>
        <time>2019-03-28T10:15:31Z</time>
      </trkpt>
      <trkpt lat="44.75198" lon="5.40262">
        <ele>751.89</ele>
        <time>2019-03-28T10:15:43Z</time>
      </trkpt>
      <trkpt lat="44.75198" lon="5.40263">
        <ele>753.81</ele>
        <time>2019-03-28T10:15:52Z</time>
      </trkpt>
      <trkpt lat="44.75199" lon="5.40264">
        <ele>756.21</ele>
        <time>2019-03-28T10:16:02Z</time>
      </trkpt>
      <trkpt lat="44.75204" lon="5.40264">
        <ele>757.66</ele>
        <time>2019-03-28T10:16:13Z</time>
      </trkpt>
      <trkpt lat="44.7521" lon="5.40263">
        <ele>759.58</ele>
        <time>2019-03-28T10:16:24Z</time>
      </trkpt>
      <trkpt lat="44.75211" lon="5.40266">
        <ele>761.02</ele>
        <time>2019-03-28T10:16:35Z</time>
      </trkpt>
      <trkpt lat="44.75211" lon="5.40273">
        <ele>762.94</ele>
        <time>2019-03-28T10:16:45Z</time>
      </trkpt>
      <trkpt lat="44.75212" lon="5.40277">
        <ele>764.39</ele>
        <time>2019-03-28T10:16:55Z</time>
      </trkpt>
      <trkpt lat="44.75213" lon="5.40286">
        <ele>766.79</ele>
        <time>2019-03-28T10:17:07Z</time>
      </trkpt>
      <trkpt lat="44.75213" lon="5.40293">
        <ele>767.75</ele>
        <time>2019-03-28T10:17:17Z</time>
      </trkpt>
      <trkpt lat="44.75212" lon="5.40294">
        <ele>769.19</ele>
        <time>2019-03-28T10:17:21Z</time>
      </trkpt>
      <trkpt lat="44.75209" lon="5.40302">
        <ele>769.19</ele>
        <time>2019-03-28T10:17:30Z</time>
      </trkpt>
      <trkpt lat="44.75206" lon="5.40313">
        <ele>771.6</ele>
        <time>2019-03-28T10:17:41Z</time>
      </trkpt>
      <trkpt lat="44.75204" lon="5.4032">
        <ele>773.52</ele>
        <time>2019-03-28T10:17:53Z</time>
      </trkpt>
      <trkpt lat="44.75203" lon="5.40332">
        <ele>775.92</ele>
        <time>2019-03-28T10:18:05Z</time>
      </trkpt>
      <trkpt lat="44.75203" lon="5.40333">
        <ele>777.36</ele>
        <time>2019-03-28T10:18:15Z</time>
      </trkpt>
      <trkpt lat="44.75202" lon="5.40335">
        <ele>776.88</ele>
        <time>2019-03-28T10:18:29Z</time>
      </trkpt>
      <trkpt lat="44.75203" lon="5.40336">
        <ele>776.88</ele>
        <time>2019-03-28T10:18:44Z</time>
      </trkpt>
      <trkpt lat="44.75204" lon="5.40337">
        <ele>777.36</ele>
        <time>2019-03-28T10:18:57Z</time>
      </trkpt>
      <trkpt lat="44.75203" lon="5.40338">
        <ele>777.36</ele>
        <time>2019-03-28T10:19:13Z</time>
      </trkpt>
      <trkpt lat="44.75204" lon="5.40339">
        <ele>777.36</ele>
        <time>2019-03-28T10:19:27Z</time>
      </trkpt>
      <trkpt lat="44.75204" lon="5.40339">
        <ele>776.88</ele>
        <time>2019-03-28T10:19:41Z</time>
      </trkpt>
      <trkpt lat="44.75204" lon="5.40339">
        <ele>777.36</ele>
        <time>2019-03-28T10:19:53Z</time>
      </trkpt>
      <trkpt lat="44.75205" lon="5.40339">
        <ele>777.84</ele>
        <time>2019-03-28T10:20:13Z</time>
      </trkpt>
      <trkpt lat="44.75205" lon="5.40339">
        <ele>777.36</ele>
        <time>2019-03-28T10:20:34Z</time>
      </trkpt>
      <trkpt lat="44.75205" lon="5.40339">
        <ele>777.36</ele>
        <time>2019-03-28T10:20:53Z</time>
      </trkpt>
      <trkpt lat="44.75205" lon="5.4034">
        <ele>777.36</ele>
        <time>2019-03-28T10:21:10Z</time>
      </trkpt>
      <trkpt lat="44.75204" lon="5.40339">
        <ele>778.32</ele>
        <time>2019-03-28T10:21:24Z</time>
      </trkpt>
      <trkpt lat="44.75205" lon="5.4034">
        <ele>776.88</ele>
        <time>2019-03-28T10:21:27Z</time>
      </trkpt>
      <trkpt lat="44.75205" lon="5.40339">
        <ele>780.25</ele>
        <time>2019-03-28T10:21:36Z</time>
      </trkpt>
      <trkpt lat="44.75204" lon="5.40339">
        <ele>778.81</ele>
        <time>2019-03-28T10:21:48Z</time>
      </trkpt>
      <trkpt lat="44.75204" lon="5.40339">
        <ele>778.81</ele>
        <time>2019-03-28T10:22:04Z</time>
      </trkpt>
      <trkpt lat="44.75205" lon="5.4034">
        <ele>778.32</ele>
        <time>2019-03-28T10:22:29Z</time>
      </trkpt>
      <trkpt lat="44.75207" lon="5.40339">
        <ele>779.29</ele>
        <time>2019-03-28T10:22:44Z</time>
      </trkpt>
      <trkpt lat="44.75211" lon="5.40335">
        <ele>780.25</ele>
        <time>2019-03-28T10:22:54Z</time>
      </trkpt>
      <trkpt lat="44.75212" lon="5.40334">
        <ele>781.69</ele>
        <time>2019-03-28T10:23:04Z</time>
      </trkpt>
      <trkpt lat="44.75217" lon="5.40334">
        <ele>784.09</ele>
        <time>2019-03-28T10:23:20Z</time>
      </trkpt>
      <trkpt lat="44.75221" lon="5.40334">
        <ele>785.05</ele>
        <time>2019-03-28T10:23:28Z</time>
      </trkpt>
      <trkpt lat="44.75222" lon="5.40338">
        <ele>786.02</ele>
        <time>2019-03-28T10:23:40Z</time>
      </trkpt>
      <trkpt lat="44.75223" lon="5.40348">
        <ele>787.94</ele>
        <time>2019-03-28T10:23:50Z</time>
      </trkpt>
      <trkpt lat="44.75222" lon="5.40352">
        <ele>789.86</ele>
        <time>2019-03-28T10:24:02Z</time>
      </trkpt>
      <trkpt lat="44.75222" lon="5.40355">
        <ele>791.78</ele>
        <time>2019-03-28T10:24:12Z</time>
      </trkpt>
      <trkpt lat="44.75225" lon="5.40355">
        <ele>793.71</ele>
        <time>2019-03-28T10:24:24Z</time>
      </trkpt>
      <trkpt lat="44.75232" lon="5.40353">
        <ele>795.63</ele>
        <time>2019-03-28T10:24:35Z</time>
      </trkpt>
      <trkpt lat="44.75236" lon="5.40354">
        <ele>797.55</ele>
        <time>2019-03-28T10:24:46Z</time>
      </trkpt>
      <trkpt lat="44.75242" lon="5.40352">
        <ele>798.51</ele>
        <time>2019-03-28T10:24:56Z</time>
      </trkpt>
      <trkpt lat="44.75244" lon="5.40352">
        <ele>798.99</ele>
        <time>2019-03-28T10:24:59Z</time>
      </trkpt>
      <trkpt lat="44.75249" lon="5.40349">
        <ele>799.95</ele>
        <time>2019-03-28T10:25:08Z</time>
      </trkpt>
      <trkpt lat="44.75258" lon="5.40351">
        <ele>801.88</ele>
        <time>2019-03-28T10:25:23Z</time>
      </trkpt>
      <trkpt lat="44.75265" lon="5.40351">
        <ele>803.32</ele>
        <time>2019-03-28T10:25:32Z</time>
      </trkpt>
      <trkpt lat="44.75272" lon="5.40355">
        <ele>805.72</ele>
        <time>2019-03-28T10:25:42Z</time>
      </trkpt>
      <trkpt lat="44.75276" lon="5.40357">
        <ele>808.13</ele>
        <time>2019-03-28T10:25:52Z</time>
      </trkpt>
      <trkpt lat="44.7528" lon="5.40359">
        <ele>809.57</ele>
        <time>2019-03-28T10:26:01Z</time>
      </trkpt>
      <trkpt lat="44.75288" lon="5.40361">
        <ele>810.53</ele>
        <time>2019-03-28T10:26:13Z</time>
      </trkpt>
      <trkpt lat="44.75293" lon="5.40361">
        <ele>812.93</ele>
        <time>2019-03-28T10:26:23Z</time>
      </trkpt>
      <trkpt lat="44.753" lon="5.40361">
        <ele>813.41</ele>
        <time>2019-03-28T10:26:30Z</time>
      </trkpt>
      <trkpt lat="44.75307" lon="5.40364">
        <ele>815.34</ele>
        <time>2019-03-28T10:26:41Z</time>
      </trkpt>
      <trkpt lat="44.7531" lon="5.40363">
        <ele>816.3</ele>
        <time>2019-03-28T10:26:49Z</time>
      </trkpt>
      <trkpt lat="44.75317" lon="5.40359">
        <ele>816.78</ele>
        <time>2019-03-28T10:26:57Z</time>
      </trkpt>
      <trkpt lat="44.75322" lon="5.40356">
        <ele>817.74</ele>
        <time>2019-03-28T10:27:06Z</time>
      </trkpt>
      <trkpt lat="44.75331" lon="5.40358">
        <ele>821.1</ele>
        <time>2019-03-28T10:27:18Z</time>
      </trkpt>
      <trkpt lat="44.75334" lon="5.40357">
        <ele>822.55</ele>
        <time>2019-03-28T10:27:28Z</time>
      </trkpt>
      <trkpt lat="44.75335" lon="5.40362">
        <ele>824.95</ele>
        <time>2019-03-28T10:27:40Z</time>
      </trkpt>
      <trkpt lat="44.75334" lon="5.40363">
        <ele>825.91</ele>
        <time>2019-03-28T10:27:52Z</time>
      </trkpt>
      <trkpt lat="44.75331" lon="5.40364">
        <ele>827.35</ele>
        <time>2019-03-28T10:28:02Z</time>
      </trkpt>
      <trkpt lat="44.75334" lon="5.40376">
        <ele>830.24</ele>
        <time>2019-03-28T10:28:14Z</time>
      </trkpt>
      <trkpt lat="44.75336" lon="5.40378">
        <ele>832.64</ele>
        <time>2019-03-28T10:28:23Z</time>
      </trkpt>
      <trkpt lat="44.75341" lon="5.40377">
        <ele>833.6</ele>
        <time>2019-03-28T10:28:34Z</time>
      </trkpt>
      <trkpt lat="44.75343" lon="5.40381">
        <ele>835.52</ele>
        <time>2019-03-28T10:28:45Z</time>
      </trkpt>
      <trkpt lat="44.75346" lon="5.40384">
        <ele>836.96</ele>
        <time>2019-03-28T10:28:54Z</time>
      </trkpt>
      <trkpt lat="44.75346" lon="5.40392">
        <ele>839.85</ele>
        <time>2019-03-28T10:29:06Z</time>
      </trkpt>
      <trkpt lat="44.75346" lon="5.40396">
        <ele>840.81</ele>
        <time>2019-03-28T10:29:20Z</time>
      </trkpt>
      <trkpt lat="44.75346" lon="5.40399">
        <ele>843.21</ele>
        <time>2019-03-28T10:29:31Z</time>
      </trkpt>
      <trkpt lat="44.75346" lon="5.40401">
        <ele>844.66</ele>
        <time>2019-03-28T10:29:39Z</time>
      </trkpt>
      <trkpt lat="44.75348" lon="5.40401">
        <ele>844.18</ele>
        <time>2019-03-28T10:29:50Z</time>
      </trkpt>
      <trkpt lat="44.7535" lon="5.40401">
        <ele>846.1</ele>
        <time>2019-03-28T10:30:02Z</time>
      </trkpt>
      <trkpt lat="44.75354" lon="5.40402">
        <ele>846.1</ele>
        <time>2019-03-28T10:30:11Z</time>
      </trkpt>
      <trkpt lat="44.75355" lon="5.40403">
        <ele>848.02</ele>
        <time>2019-03-28T10:30:24Z</time>
      </trkpt>
      <trkpt lat="44.75356" lon="5.40405">
        <ele>848.02</ele>
        <time>2019-03-28T10:30:43Z</time>
      </trkpt>
      <trkpt lat="44.75357" lon="5.40407">
        <ele>848.5</ele>
        <time>2019-03-28T10:31:03Z</time>
      </trkpt>
      <trkpt lat="44.75357" lon="5.40407">
        <ele>847.54</ele>
        <time>2019-03-28T10:31:20Z</time>
      </trkpt>
      <trkpt lat="44.75357" lon="5.40408">
        <ele>848.02</ele>
        <time>2019-03-28T10:31:46Z</time>
      </trkpt>
      <trkpt lat="44.75357" lon="5.40409">
        <ele>848.5</ele>
        <time>2019-03-28T10:32:05Z</time>
      </trkpt>
      <trkpt lat="44.75357" lon="5.40409">
        <ele>848.02</ele>
        <time>2019-03-28T10:32:28Z</time>
      </trkpt>
      <trkpt lat="44.75357" lon="5.40409">
        <ele>848.02</ele>
        <time>2019-03-28T10:32:47Z</time>
      </trkpt>
      <trkpt lat="44.75357" lon="5.40409">
        <ele>848.5</ele>
        <time>2019-03-28T10:32:59Z</time>
      </trkpt>
      <trkpt lat="44.75357" lon="5.40409">
        <ele>847.54</ele>
        <time>2019-03-28T10:33:01Z</time>
      </trkpt>
      <trkpt lat="44.75361" lon="5.40408">
        <ele>849.46</ele>
        <time>2019-03-28T10:33:14Z</time>
      </trkpt>
      <trkpt lat="44.75368" lon="5.40405">
        <ele>850.9</ele>
        <time>2019-03-28T10:33:25Z</time>
      </trkpt>
      <trkpt lat="44.75368" lon="5.40407">
        <ele>852.35</ele>
        <time>2019-03-28T10:33:33Z</time>
      </trkpt>
      <trkpt lat="44.75369" lon="5.40409">
        <ele>853.31</ele>
        <time>2019-03-28T10:33:43Z</time>
      </trkpt>
      <trkpt lat="44.75368" lon="5.40413">
        <ele>855.71</ele>
        <time>2019-03-28T10:33:52Z</time>
      </trkpt>
      <trkpt lat="44.75367" lon="5.40416">
        <ele>857.15</ele>
        <time>2019-03-28T10:34:03Z</time>
      </trkpt>
      <trkpt lat="44.75365" lon="5.40417">
        <ele>858.59</ele>
        <time>2019-03-28T10:34:15Z</time>
      </trkpt>
      <trkpt lat="44.75367" lon="5.40423">
        <ele>860.52</ele>
        <time>2019-03-28T10:34:25Z</time>
      </trkpt>
      <trkpt lat="44.75369" lon="5.40428">
        <ele>861.96</ele>
        <time>2019-03-28T10:34:34Z</time>
      </trkpt>
      <trkpt lat="44.75377" lon="5.40425">
        <ele>863.88</ele>
        <time>2019-03-28T10:34:47Z</time>
      </trkpt>
      <trkpt lat="44.75379" lon="5.40433">
        <ele>866.77</ele>
        <time>2019-03-28T10:34:58Z</time>
      </trkpt>
      <trkpt lat="44.75379" lon="5.40438">
        <ele>867.73</ele>
        <time>2019-03-28T10:35:10Z</time>
      </trkpt>
      <trkpt lat="44.75384" lon="5.40441">
        <ele>870.61</ele>
        <time>2019-03-28T10:35:21Z</time>
      </trkpt>
      <trkpt lat="44.75389" lon="5.40443">
        <ele>872.05</ele>
        <time>2019-03-28T10:35:31Z</time>
      </trkpt>
      <trkpt lat="44.75392" lon="5.40444">
        <ele>873.98</ele>
        <time>2019-03-28T10:35:41Z</time>
      </trkpt>
      <trkpt lat="44.75392" lon="5.40448">
        <ele>876.38</ele>
        <time>2019-03-28T10:35:50Z</time>
      </trkpt>
      <trkpt lat="44.75392" lon="5.40459">
        <ele>877.34</ele>
        <time>2019-03-28T10:36:01Z</time>
      </trkpt>
      <trkpt lat="44.75391" lon="5.40465">
        <ele>879.74</ele>
        <time>2019-03-28T10:36:11Z</time>
      </trkpt>
      <trkpt lat="44.75389" lon="5.40474">
        <ele>881.19</ele>
        <time>2019-03-28T10:36:23Z</time>
      </trkpt>
      <trkpt lat="44.75386" lon="5.4048">
        <ele>883.11</ele>
        <time>2019-03-28T10:36:33Z</time>
      </trkpt>
      <trkpt lat="44.75384" lon="5.40481">
        <ele>885.03</ele>
        <time>2019-03-28T10:36:44Z</time>
      </trkpt>
      <trkpt lat="44.7538" lon="5.40482">
        <ele>886.47</ele>
        <time>2019-03-28T10:36:53Z</time>
      </trkpt>
      <trkpt lat="44.75377" lon="5.40483">
        <ele>887.43</ele>
        <time>2019-03-28T10:36:59Z</time>
      </trkpt>
      <trkpt lat="44.7537" lon="5.40496">
        <ele>888.4</ele>
        <time>2019-03-28T10:37:09Z</time>
      </trkpt>
      <trkpt lat="44.75361" lon="5.40517">
        <ele>890.8</ele>
        <time>2019-03-28T10:37:23Z</time>
      </trkpt>
      <trkpt lat="44.75359" lon="5.4052">
        <ele>892.72</ele>
        <time>2019-03-28T10:37:34Z</time>
      </trkpt>
      <trkpt lat="44.75354" lon="5.40523">
        <ele>893.2</ele>
        <time>2019-03-28T10:37:45Z</time>
      </trkpt>
      <trkpt lat="44.75351" lon="5.40525">
        <ele>895.61</ele>
        <time>2019-03-28T10:37:56Z</time>
      </trkpt>
      <trkpt lat="44.75344" lon="5.4053">
        <ele>898.49</ele>
        <time>2019-03-28T10:38:08Z</time>
      </trkpt>
      <trkpt lat="44.75341" lon="5.40535">
        <ele>899.93</ele>
        <time>2019-03-28T10:38:19Z</time>
      </trkpt>
      <trkpt lat="44.75336" lon="5.40542">
        <ele>901.85</ele>
        <time>2019-03-28T10:38:29Z</time>
      </trkpt>
      <trkpt lat="44.75335" lon="5.4055">
        <ele>903.3</ele>
        <time>2019-03-28T10:38:36Z</time>
      </trkpt>
      <trkpt lat="44.75333" lon="5.40552">
        <ele>905.22</ele>
        <time>2019-03-28T10:38:46Z</time>
      </trkpt>
      <trkpt lat="44.75331" lon="5.40555">
        <ele>906.66</ele>
        <time>2019-03-28T10:38:58Z</time>
      </trkpt>
      <trkpt lat="44.75327" lon="5.4056">
        <ele>908.1</ele>
        <time>2019-03-28T10:39:08Z</time>
      </trkpt>
      <trkpt lat="44.75328" lon="5.40565">
        <ele>910.03</ele>
        <time>2019-03-28T10:39:20Z</time>
      </trkpt>
      <trkpt lat="44.75334" lon="5.40566">
        <ele>911.47</ele>
        <time>2019-03-28T10:39:32Z</time>
      </trkpt>
      <trkpt lat="44.75339" lon="5.4057">
        <ele>913.87</ele>
        <time>2019-03-28T10:39:43Z</time>
      </trkpt>
      <trkpt lat="44.75344" lon="5.40576">
        <ele>915.79</ele>
        <time>2019-03-28T10:39:54Z</time>
      </trkpt>
      <trkpt lat="44.75346" lon="5.40577">
        <ele>918.2</ele>
        <time>2019-03-28T10:40:05Z</time>
      </trkpt>
      <trkpt lat="44.75345" lon="5.40581">
        <ele>920.12</ele>
        <time>2019-03-28T10:40:15Z</time>
      </trkpt>
      <trkpt lat="44.75347" lon="5.40585">
        <ele>922.04</ele>
        <time>2019-03-28T10:40:26Z</time>
      </trkpt>
      <trkpt lat="44.75348" lon="5.40588">
        <ele>923</ele>
        <time>2019-03-28T10:40:39Z</time>
      </trkpt>
      <trkpt lat="44.75349" lon="5.40589">
        <ele>925.89</ele>
        <time>2019-03-28T10:40:44Z</time>
      </trkpt>
      <trkpt lat="44.75352" lon="5.40593">
        <ele>924.93</ele>
        <time>2019-03-28T10:40:54Z</time>
      </trkpt>
      <trkpt lat="44.75354" lon="5.40594">
        <ele>927.81</ele>
        <time>2019-03-28T10:41:06Z</time>
      </trkpt>
      <trkpt lat="44.7536" lon="5.40599">
        <ele>929.73</ele>
        <time>2019-03-28T10:41:17Z</time>
      </trkpt>
      <trkpt lat="44.7536" lon="5.40599">
        <ele>931.65</ele>
        <time>2019-03-28T10:41:27Z</time>
      </trkpt>
      <trkpt lat="44.75361" lon="5.40602">
        <ele>934.06</ele>
        <time>2019-03-28T10:41:38Z</time>
      </trkpt>
      <trkpt lat="44.7536" lon="5.4061">
        <ele>935.98</ele>
        <time>2019-03-28T10:41:50Z</time>
      </trkpt>
      <trkpt lat="44.75358" lon="5.40612">
        <ele>936.46</ele>
        <time>2019-03-28T10:42:02Z</time>
      </trkpt>
      <trkpt lat="44.75357" lon="5.40612">
        <ele>937.42</ele>
        <time>2019-03-28T10:42:16Z</time>
      </trkpt>
      <trkpt lat="44.75355" lon="5.40614">
        <ele>937.42</ele>
        <time>2019-03-28T10:42:30Z</time>
      </trkpt>
      <trkpt lat="44.75354" lon="5.40615">
        <ele>939.35</ele>
        <time>2019-03-28T10:42:48Z</time>
      </trkpt>
      <trkpt lat="44.75354" lon="5.40615">
        <ele>935.98</ele>
        <time>2019-03-28T10:42:50Z</time>
      </trkpt>
      <trkpt lat="44.75353" lon="5.40616">
        <ele>937.9</ele>
        <time>2019-03-28T10:43:12Z</time>
      </trkpt>
      <trkpt lat="44.75353" lon="5.40616">
        <ele>936.46</ele>
        <time>2019-03-28T10:43:15Z</time>
      </trkpt>
      <trkpt lat="44.75353" lon="5.40616">
        <ele>937.9</ele>
        <time>2019-03-28T10:43:30Z</time>
      </trkpt>
      <trkpt lat="44.75353" lon="5.40617">
        <ele>936.46</ele>
        <time>2019-03-28T10:43:34Z</time>
      </trkpt>
      <trkpt lat="44.75353" lon="5.40618">
        <ele>937.42</ele>
        <time>2019-03-28T10:43:50Z</time>
      </trkpt>
      <trkpt lat="44.75353" lon="5.40619">
        <ele>937.42</ele>
        <time>2019-03-28T10:44:09Z</time>
      </trkpt>
      <trkpt lat="44.75352" lon="5.40619">
        <ele>937.42</ele>
        <time>2019-03-28T10:44:28Z</time>
      </trkpt>
      <trkpt lat="44.75351" lon="5.40618">
        <ele>937.9</ele>
        <time>2019-03-28T10:44:46Z</time>
      </trkpt>
      <trkpt lat="44.75351" lon="5.40618">
        <ele>937.9</ele>
        <time>2019-03-28T10:45:04Z</time>
      </trkpt>
      <trkpt lat="44.75351" lon="5.40618">
        <ele>937.42</ele>
        <time>2019-03-28T10:45:21Z</time>
      </trkpt>
      <trkpt lat="44.75351" lon="5.40619">
        <ele>937.9</ele>
        <time>2019-03-28T10:45:41Z</time>
      </trkpt>
      <trkpt lat="44.75351" lon="5.40619">
        <ele>937.9</ele>
        <time>2019-03-28T10:46:01Z</time>
      </trkpt>
      <trkpt lat="44.75351" lon="5.4062">
        <ele>937.42</ele>
        <time>2019-03-28T10:46:22Z</time>
      </trkpt>
      <trkpt lat="44.75351" lon="5.40621">
        <ele>937.9</ele>
        <time>2019-03-28T10:46:41Z</time>
      </trkpt>
      <trkpt lat="44.75351" lon="5.40621">
        <ele>937.9</ele>
        <time>2019-03-28T10:46:55Z</time>
      </trkpt>
      <trkpt lat="44.7535" lon="5.40621">
        <ele>938.86</ele>
        <time>2019-03-28T10:47:06Z</time>
      </trkpt>
      <trkpt lat="44.75352" lon="5.40622">
        <ele>940.31</ele>
        <time>2019-03-28T10:47:15Z</time>
      </trkpt>
      <trkpt lat="44.75359" lon="5.40622">
        <ele>940.31</ele>
        <time>2019-03-28T10:47:24Z</time>
      </trkpt>
      <trkpt lat="44.75363" lon="5.40623">
        <ele>941.27</ele>
        <time>2019-03-28T10:47:33Z</time>
      </trkpt>
      <trkpt lat="44.75369" lon="5.40622">
        <ele>942.23</ele>
        <time>2019-03-28T10:47:41Z</time>
      </trkpt>
      <trkpt lat="44.75372" lon="5.40619">
        <ele>945.11</ele>
        <time>2019-03-28T10:47:50Z</time>
      </trkpt>
      <trkpt lat="44.75377" lon="5.4062">
        <ele>946.07</ele>
        <time>2019-03-28T10:48:01Z</time>
      </trkpt>
      <trkpt lat="44.75377" lon="5.40622">
        <ele>947.04</ele>
        <time>2019-03-28T10:48:11Z</time>
      </trkpt>
      <trkpt lat="44.75377" lon="5.40631">
        <ele>948.96</ele>
        <time>2019-03-28T10:48:24Z</time>
      </trkpt>
      <trkpt lat="44.75376" lon="5.40634">
        <ele>951.36</ele>
        <time>2019-03-28T10:48:35Z</time>
      </trkpt>
      <trkpt lat="44.75374" lon="5.40637">
        <ele>952.32</ele>
        <time>2019-03-28T10:48:45Z</time>
      </trkpt>
      <trkpt lat="44.75372" lon="5.40638">
        <ele>955.21</ele>
        <time>2019-03-28T10:48:59Z</time>
      </trkpt>
      <trkpt lat="44.75367" lon="5.40637">
        <ele>956.17</ele>
        <time>2019-03-28T10:49:11Z</time>
      </trkpt>
      <trkpt lat="44.7536" lon="5.40641">
        <ele>958.57</ele>
        <time>2019-03-28T10:49:23Z</time>
      </trkpt>
      <trkpt lat="44.75353" lon="5.40644">
        <ele>958.57</ele>
        <time>2019-03-28T10:49:35Z</time>
      </trkpt>
      <trkpt lat="44.75347" lon="5.40646">
        <ele>960.01</ele>
        <time>2019-03-28T10:49:45Z</time>
      </trkpt>
      <trkpt lat="44.75343" lon="5.40651">
        <ele>960.98</ele>
        <time>2019-03-28T10:49:55Z</time>
      </trkpt>
      <trkpt lat="44.75341" lon="5.40652">
        <ele>960.98</ele>
        <time>2019-03-28T10:50:12Z</time>
      </trkpt>
      <trkpt lat="44.75335" lon="5.40656">
        <ele>961.46</ele>
        <time>2019-03-28T10:50:23Z</time>
      </trkpt>
      <trkpt lat="44.75329" lon="5.40663">
        <ele>961.94</ele>
        <time>2019-03-28T10:50:36Z</time>
      </trkpt>
      <trkpt lat="44.75322" lon="5.40666">
        <ele>960.98</ele>
        <time>2019-03-28T10:50:49Z</time>
      </trkpt>
      <trkpt lat="44.75317" lon="5.40668">
        <ele>964.34</ele>
        <time>2019-03-28T10:50:56Z</time>
      </trkpt>
      <trkpt lat="44.75311" lon="5.40665">
        <ele>960.49</ele>
        <time>2019-03-28T10:50:59Z</time>
      </trkpt>
      <trkpt lat="44.75308" lon="5.40667">
        <ele>963.38</ele>
        <time>2019-03-28T10:51:17Z</time>
      </trkpt>
      <trkpt lat="44.75307" lon="5.40666">
        <ele>962.42</ele>
        <time>2019-03-28T10:51:37Z</time>
      </trkpt>
      <trkpt lat="44.75305" lon="5.40666">
        <ele>961.94</ele>
        <time>2019-03-28T10:51:58Z</time>
      </trkpt>
      <trkpt lat="44.75304" lon="5.40666">
        <ele>962.42</ele>
        <time>2019-03-28T10:52:23Z</time>
      </trkpt>
      <trkpt lat="44.75304" lon="5.40665">
        <ele>961.94</ele>
        <time>2019-03-28T10:52:47Z</time>
      </trkpt>
      <trkpt lat="44.75304" lon="5.40665">
        <ele>962.42</ele>
        <time>2019-03-28T10:53:11Z</time>
      </trkpt>
      <trkpt lat="44.75305" lon="5.40665">
        <ele>961.94</ele>
        <time>2019-03-28T10:53:28Z</time>
      </trkpt>
      <trkpt lat="44.75305" lon="5.40665">
        <ele>961.94</ele>
        <time>2019-03-28T10:53:54Z</time>
      </trkpt>
      <trkpt lat="44.75306" lon="5.40665">
        <ele>962.42</ele>
        <time>2019-03-28T10:54:13Z</time>
      </trkpt>
      <trkpt lat="44.75305" lon="5.40666">
        <ele>961.46</ele>
        <time>2019-03-28T10:54:28Z</time>
      </trkpt>
      <trkpt lat="44.75302" lon="5.40673">
        <ele>961.46</ele>
        <time>2019-03-28T10:54:38Z</time>
      </trkpt>
      <trkpt lat="44.753" lon="5.40679">
        <ele>962.42</ele>
        <time>2019-03-28T10:54:48Z</time>
      </trkpt>
      <trkpt lat="44.75293" lon="5.40688">
        <ele>963.38</ele>
        <time>2019-03-28T10:55:01Z</time>
      </trkpt>
      <trkpt lat="44.7529" lon="5.40695">
        <ele>963.38</ele>
        <time>2019-03-28T10:55:12Z</time>
      </trkpt>
      <trkpt lat="44.75287" lon="5.40698">
        <ele>963.38</ele>
        <time>2019-03-28T10:55:16Z</time>
      </trkpt>
      <trkpt lat="44.75279" lon="5.40703">
        <ele>963.38</ele>
        <time>2019-03-28T10:55:25Z</time>
      </trkpt>
      <trkpt lat="44.75273" lon="5.40706">
        <ele>963.86</ele>
        <time>2019-03-28T10:55:35Z</time>
      </trkpt>
      <trkpt lat="44.75268" lon="5.40707">
        <ele>965.3</ele>
        <time>2019-03-28T10:55:43Z</time>
      </trkpt>
      <trkpt lat="44.75256" lon="5.40707">
        <ele>965.78</ele>
        <time>2019-03-28T10:55:53Z</time>
      </trkpt>
      <trkpt lat="44.75253" lon="5.40709">
        <ele>967.22</ele>
        <time>2019-03-28T10:56:00Z</time>
      </trkpt>
      <trkpt lat="44.75248" lon="5.40713">
        <ele>968.18</ele>
        <time>2019-03-28T10:56:09Z</time>
      </trkpt>
      <trkpt lat="44.75245" lon="5.40715">
        <ele>969.15</ele>
        <time>2019-03-28T10:56:18Z</time>
      </trkpt>
      <trkpt lat="44.75235" lon="5.4072">
        <ele>968.67</ele>
        <time>2019-03-28T10:56:29Z</time>
      </trkpt>
      <trkpt lat="44.75224" lon="5.40723">
        <ele>970.11</ele>
        <time>2019-03-28T10:56:37Z</time>
      </trkpt>
      <trkpt lat="44.75215" lon="5.40727">
        <ele>970.11</ele>
        <time>2019-03-28T10:56:46Z</time>
      </trkpt>
      <trkpt lat="44.75213" lon="5.40729">
        <ele>971.07</ele>
        <time>2019-03-28T10:56:59Z</time>
      </trkpt>
      <trkpt lat="44.75208" lon="5.40733">
        <ele>971.07</ele>
        <time>2019-03-28T10:57:11Z</time>
      </trkpt>
      <trkpt lat="44.75208" lon="5.40734">
        <ele>970.59</ele>
        <time>2019-03-28T10:57:23Z</time>
      </trkpt>
      <trkpt lat="44.75207" lon="5.40735">
        <ele>971.07</ele>
        <time>2019-03-28T10:57:40Z</time>
      </trkpt>
      <trkpt lat="44.75206" lon="5.40736">
        <ele>971.07</ele>
        <time>2019-03-28T10:57:58Z</time>
      </trkpt>
      <trkpt lat="44.75203" lon="5.4074">
        <ele>970.11</ele>
        <time>2019-03-28T10:58:08Z</time>
      </trkpt>
      <trkpt lat="44.75196" lon="5.40749">
        <ele>970.11</ele>
        <time>2019-03-28T10:58:17Z</time>
      </trkpt>
      <trkpt lat="44.7519" lon="5.4076">
        <ele>968.67</ele>
        <time>2019-03-28T10:58:27Z</time>
      </trkpt>
      <trkpt lat="44.75186" lon="5.40765">
        <ele>969.15</ele>
        <time>2019-03-28T10:58:37Z</time>
      </trkpt>
      <trkpt lat="44.75185" lon="5.40765">
        <ele>969.63</ele>
        <time>2019-03-28T10:58:51Z</time>
      </trkpt>
      <trkpt lat="44.75183" lon="5.40765">
        <ele>969.15</ele>
        <time>2019-03-28T10:59:07Z</time>
      </trkpt>
      <trkpt lat="44.7518" lon="5.4077">
        <ele>969.15</ele>
        <time>2019-03-28T10:59:20Z</time>
      </trkpt>
      <trkpt lat="44.75178" lon="5.40777">
        <ele>968.18</ele>
        <time>2019-03-28T10:59:31Z</time>
      </trkpt>
      <trkpt lat="44.75177" lon="5.40776">
        <ele>967.7</ele>
        <time>2019-03-28T10:59:47Z</time>
      </trkpt>
      <trkpt lat="44.75175" lon="5.4078">
        <ele>967.7</ele>
        <time>2019-03-28T11:00:10Z</time>
      </trkpt>
      <trkpt lat="44.75173" lon="5.40785">
        <ele>966.74</ele>
        <time>2019-03-28T11:00:19Z</time>
      </trkpt>
      <trkpt lat="44.75172" lon="5.40794">
        <ele>965.3</ele>
        <time>2019-03-28T11:00:29Z</time>
      </trkpt>
      <trkpt lat="44.75171" lon="5.40797">
        <ele>964.34</ele>
        <time>2019-03-28T11:00:32Z</time>
      </trkpt>
      <trkpt lat="44.75174" lon="5.40799">
        <ele>963.86</ele>
        <time>2019-03-28T11:00:42Z</time>
      </trkpt>
      <trkpt lat="44.75175" lon="5.40804">
        <ele>961.46</ele>
        <time>2019-03-28T11:00:52Z</time>
      </trkpt>
      <trkpt lat="44.75172" lon="5.40827">
        <ele>960.49</ele>
        <time>2019-03-28T11:01:02Z</time>
      </trkpt>
      <trkpt lat="44.7517" lon="5.40847">
        <ele>959.05</ele>
        <time>2019-03-28T11:01:11Z</time>
      </trkpt>
      <trkpt lat="44.75171" lon="5.4086">
        <ele>958.09</ele>
        <time>2019-03-28T11:01:21Z</time>
      </trkpt>
      <trkpt lat="44.75167" lon="5.4087">
        <ele>956.65</ele>
        <time>2019-03-28T11:01:31Z</time>
      </trkpt>
      <trkpt lat="44.75168" lon="5.4088">
        <ele>954.73</ele>
        <time>2019-03-28T11:01:40Z</time>
      </trkpt>
      <trkpt lat="44.75167" lon="5.40887">
        <ele>954.25</ele>
        <time>2019-03-28T11:01:46Z</time>
      </trkpt>
      <trkpt lat="44.75164" lon="5.40896">
        <ele>953.28</ele>
        <time>2019-03-28T11:01:53Z</time>
      </trkpt>
      <trkpt lat="44.75164" lon="5.40906">
        <ele>951.84</ele>
        <time>2019-03-28T11:02:02Z</time>
      </trkpt>
      <trkpt lat="44.75164" lon="5.40925">
        <ele>950.88</ele>
        <time>2019-03-28T11:02:13Z</time>
      </trkpt>
      <trkpt lat="44.75166" lon="5.40943">
        <ele>949.92</ele>
        <time>2019-03-28T11:02:25Z</time>
      </trkpt>
      <trkpt lat="44.75166" lon="5.40955">
        <ele>948</ele>
        <time>2019-03-28T11:02:34Z</time>
      </trkpt>
      <trkpt lat="44.75166" lon="5.40967">
        <ele>947.04</ele>
        <time>2019-03-28T11:02:43Z</time>
      </trkpt>
      <trkpt lat="44.75163" lon="5.40978">
        <ele>945.59</ele>
        <time>2019-03-28T11:02:52Z</time>
      </trkpt>
      <trkpt lat="44.7516" lon="5.4099">
        <ele>945.59</ele>
        <time>2019-03-28T11:03:02Z</time>
      </trkpt>
      <trkpt lat="44.75159" lon="5.41002">
        <ele>943.19</ele>
        <time>2019-03-28T11:03:12Z</time>
      </trkpt>
      <trkpt lat="44.75157" lon="5.41014">
        <ele>941.75</ele>
        <time>2019-03-28T11:03:22Z</time>
      </trkpt>
      <trkpt lat="44.75155" lon="5.4102">
        <ele>941.75</ele>
        <time>2019-03-28T11:03:32Z</time>
      </trkpt>
      <trkpt lat="44.75152" lon="5.41024">
        <ele>941.75</ele>
        <time>2019-03-28T11:03:50Z</time>
      </trkpt>
      <trkpt lat="44.75151" lon="5.41025">
        <ele>942.23</ele>
        <time>2019-03-28T11:04:05Z</time>
      </trkpt>
      <trkpt lat="44.75149" lon="5.41027">
        <ele>942.23</ele>
        <time>2019-03-28T11:04:20Z</time>
      </trkpt>
      <trkpt lat="44.75145" lon="5.41031">
        <ele>942.71</ele>
        <time>2019-03-28T11:04:31Z</time>
      </trkpt>
      <trkpt lat="44.75143" lon="5.41034">
        <ele>944.15</ele>
        <time>2019-03-28T11:04:42Z</time>
      </trkpt>
      <trkpt lat="44.75132" lon="5.41043">
        <ele>944.63</ele>
        <time>2019-03-28T11:04:53Z</time>
      </trkpt>
      <trkpt lat="44.75126" lon="5.41048">
        <ele>945.59</ele>
        <time>2019-03-28T11:05:02Z</time>
      </trkpt>
      <trkpt lat="44.75112" lon="5.41054">
        <ele>946.56</ele>
        <time>2019-03-28T11:05:13Z</time>
      </trkpt>
      <trkpt lat="44.75108" lon="5.41057">
        <ele>947.52</ele>
        <time>2019-03-28T11:05:22Z</time>
      </trkpt>
      <trkpt lat="44.751" lon="5.41063">
        <ele>948.96</ele>
        <time>2019-03-28T11:05:31Z</time>
      </trkpt>
      <trkpt lat="44.75084" lon="5.41076">
        <ele>949.92</ele>
        <time>2019-03-28T11:05:41Z</time>
      </trkpt>
      <trkpt lat="44.75078" lon="5.41078">
        <ele>950.4</ele>
        <time>2019-03-28T11:05:51Z</time>
      </trkpt>
      <trkpt lat="44.75075" lon="5.41081">
        <ele>951.36</ele>
        <time>2019-03-28T11:06:01Z</time>
      </trkpt>
      <trkpt lat="44.75073" lon="5.41085">
        <ele>953.77</ele>
        <time>2019-03-28T11:06:11Z</time>
      </trkpt>
      <trkpt lat="44.75066" lon="5.41091">
        <ele>955.21</ele>
        <time>2019-03-28T11:06:21Z</time>
      </trkpt>
      <trkpt lat="44.75062" lon="5.41095">
        <ele>956.17</ele>
        <time>2019-03-28T11:06:33Z</time>
      </trkpt>
      <trkpt lat="44.75057" lon="5.41102">
        <ele>957.13</ele>
        <time>2019-03-28T11:06:44Z</time>
      </trkpt>
      <trkpt lat="44.75048" lon="5.41109">
        <ele>958.09</ele>
        <time>2019-03-28T11:06:55Z</time>
      </trkpt>
      <trkpt lat="44.75037" lon="5.41116">
        <ele>959.53</ele>
        <time>2019-03-28T11:07:07Z</time>
      </trkpt>
      <trkpt lat="44.75032" lon="5.41119">
        <ele>960.98</ele>
        <time>2019-03-28T11:07:19Z</time>
      </trkpt>
      <trkpt lat="44.7503" lon="5.41122">
        <ele>962.42</ele>
        <time>2019-03-28T11:07:31Z</time>
      </trkpt>
      <trkpt lat="44.75023" lon="5.41129">
        <ele>963.38</ele>
        <time>2019-03-28T11:07:42Z</time>
      </trkpt>
      <trkpt lat="44.75009" lon="5.41135">
        <ele>964.82</ele>
        <time>2019-03-28T11:07:53Z</time>
      </trkpt>
      <trkpt lat="44.74996" lon="5.41144">
        <ele>965.3</ele>
        <time>2019-03-28T11:08:06Z</time>
      </trkpt>
      <trkpt lat="44.74988" lon="5.4115">
        <ele>967.22</ele>
        <time>2019-03-28T11:08:17Z</time>
      </trkpt>
      <trkpt lat="44.74981" lon="5.41158">
        <ele>968.18</ele>
        <time>2019-03-28T11:08:28Z</time>
      </trkpt>
      <trkpt lat="44.74977" lon="5.41159">
        <ele>969.15</ele>
        <time>2019-03-28T11:08:38Z</time>
      </trkpt>
      <trkpt lat="44.74964" lon="5.41168">
        <ele>970.11</ele>
        <time>2019-03-28T11:08:48Z</time>
      </trkpt>
      <trkpt lat="44.74959" lon="5.41172">
        <ele>971.55</ele>
        <time>2019-03-28T11:08:57Z</time>
      </trkpt>
      <trkpt lat="44.74954" lon="5.41177">
        <ele>972.51</ele>
        <time>2019-03-28T11:09:07Z</time>
      </trkpt>
      <trkpt lat="44.74945" lon="5.41181">
        <ele>972.99</ele>
        <time>2019-03-28T11:09:15Z</time>
      </trkpt>
      <trkpt lat="44.74939" lon="5.41185">
        <ele>973.95</ele>
        <time>2019-03-28T11:09:24Z</time>
      </trkpt>
      <trkpt lat="44.74936" lon="5.41188">
        <ele>975.39</ele>
        <time>2019-03-28T11:09:36Z</time>
      </trkpt>
      <trkpt lat="44.74928" lon="5.41193">
        <ele>976.84</ele>
        <time>2019-03-28T11:09:46Z</time>
      </trkpt>
      <trkpt lat="44.74925" lon="5.41194">
        <ele>977.32</ele>
        <time>2019-03-28T11:09:57Z</time>
      </trkpt>
      <trkpt lat="44.74919" lon="5.41197">
        <ele>978.28</ele>
        <time>2019-03-28T11:10:08Z</time>
      </trkpt>
      <trkpt lat="44.74913" lon="5.412">
        <ele>979.24</ele>
        <time>2019-03-28T11:10:18Z</time>
      </trkpt>
      <trkpt lat="44.74896" lon="5.41208">
        <ele>980.68</ele>
        <time>2019-03-28T11:10:32Z</time>
      </trkpt>
      <trkpt lat="44.74877" lon="5.41218">
        <ele>982.6</ele>
        <time>2019-03-28T11:10:42Z</time>
      </trkpt>
      <trkpt lat="44.74867" lon="5.41225">
        <ele>983.09</ele>
        <time>2019-03-28T11:10:50Z</time>
      </trkpt>
      <trkpt lat="44.74859" lon="5.4123">
        <ele>983.57</ele>
        <time>2019-03-28T11:10:54Z</time>
      </trkpt>
      <trkpt lat="44.74849" lon="5.41236">
        <ele>984.05</ele>
        <time>2019-03-28T11:11:01Z</time>
      </trkpt>
      <trkpt lat="44.74844" lon="5.41236">
        <ele>984.53</ele>
        <time>2019-03-28T11:11:11Z</time>
      </trkpt>
      <trkpt lat="44.74837" lon="5.41241">
        <ele>985.97</ele>
        <time>2019-03-28T11:11:19Z</time>
      </trkpt>
      <trkpt lat="44.74835" lon="5.41241">
        <ele>985.49</ele>
        <time>2019-03-28T11:11:20Z</time>
      </trkpt>
      <trkpt lat="44.74828" lon="5.41243">
        <ele>986.93</ele>
        <time>2019-03-28T11:11:30Z</time>
      </trkpt>
      <trkpt lat="44.7482" lon="5.41247">
        <ele>987.89</ele>
        <time>2019-03-28T11:11:39Z</time>
      </trkpt>
      <trkpt lat="44.74817" lon="5.41248">
        <ele>987.89</ele>
        <time>2019-03-28T11:11:45Z</time>
      </trkpt>
      <trkpt lat="44.74804" lon="5.41252">
        <ele>988.85</ele>
        <time>2019-03-28T11:11:56Z</time>
      </trkpt>
      <trkpt lat="44.74794" lon="5.41257">
        <ele>989.81</ele>
        <time>2019-03-28T11:12:04Z</time>
      </trkpt>
      <trkpt lat="44.74784" lon="5.41258">
        <ele>989.81</ele>
        <time>2019-03-28T11:12:12Z</time>
      </trkpt>
      <trkpt lat="44.74775" lon="5.41259">
        <ele>990.3</ele>
        <time>2019-03-28T11:12:20Z</time>
      </trkpt>
      <trkpt lat="44.7477" lon="5.41258">
        <ele>990.3</ele>
        <time>2019-03-28T11:12:30Z</time>
      </trkpt>
      <trkpt lat="44.74767" lon="5.41259">
        <ele>991.26</ele>
        <time>2019-03-28T11:12:41Z</time>
      </trkpt>
      <trkpt lat="44.74766" lon="5.41256">
        <ele>990.78</ele>
        <time>2019-03-28T11:12:53Z</time>
      </trkpt>
      <trkpt lat="44.74765" lon="5.41255">
        <ele>991.26</ele>
        <time>2019-03-28T11:13:01Z</time>
      </trkpt>
      <trkpt lat="44.74764" lon="5.41253">
        <ele>990.3</ele>
        <time>2019-03-28T11:13:23Z</time>
      </trkpt>
      <trkpt lat="44.74764" lon="5.41253">
        <ele>990.78</ele>
        <time>2019-03-28T11:13:44Z</time>
      </trkpt>
      <trkpt lat="44.74763" lon="5.41255">
        <ele>990.78</ele>
        <time>2019-03-28T11:14:04Z</time>
      </trkpt>
      <trkpt lat="44.74763" lon="5.41254">
        <ele>991.26</ele>
        <time>2019-03-28T11:14:27Z</time>
      </trkpt>
      <trkpt lat="44.74763" lon="5.4125">
        <ele>991.26</ele>
        <time>2019-03-28T11:14:44Z</time>
      </trkpt>
      <trkpt lat="44.7476" lon="5.41252">
        <ele>990.78</ele>
        <time>2019-03-28T11:14:57Z</time>
      </trkpt>
      <trkpt lat="44.74755" lon="5.41257">
        <ele>991.74</ele>
        <time>2019-03-28T11:15:09Z</time>
      </trkpt>
      <trkpt lat="44.74752" lon="5.41258">
        <ele>991.74</ele>
        <time>2019-03-28T11:15:25Z</time>
      </trkpt>
      <trkpt lat="44.74752" lon="5.41255">
        <ele>991.74</ele>
        <time>2019-03-28T11:15:45Z</time>
      </trkpt>
      <trkpt lat="44.74753" lon="5.41249">
        <ele>992.22</ele>
        <time>2019-03-28T11:16:04Z</time>
      </trkpt>
      <trkpt lat="44.74752" lon="5.41249">
        <ele>993.18</ele>
        <time>2019-03-28T11:16:19Z</time>
      </trkpt>
      <trkpt lat="44.74751" lon="5.4125">
        <ele>992.7</ele>
        <time>2019-03-28T11:16:32Z</time>
      </trkpt>
      <trkpt lat="44.74751" lon="5.41248">
        <ele>993.66</ele>
        <time>2019-03-28T11:16:50Z</time>
      </trkpt>
      <trkpt lat="44.74751" lon="5.41245">
        <ele>993.66</ele>
        <time>2019-03-28T11:17:11Z</time>
      </trkpt>
      <trkpt lat="44.74751" lon="5.41245">
        <ele>992.7</ele>
        <time>2019-03-28T11:17:22Z</time>
      </trkpt>
      <trkpt lat="44.74749" lon="5.41243">
        <ele>991.74</ele>
        <time>2019-03-28T11:17:32Z</time>
      </trkpt>
      <trkpt lat="44.74749" lon="5.41243">
        <ele>992.7</ele>
        <time>2019-03-28T11:17:43Z</time>
      </trkpt>
      <trkpt lat="44.7475" lon="5.41243">
        <ele>993.18</ele>
        <time>2019-03-28T11:17:55Z</time>
      </trkpt>
      <trkpt lat="44.74752" lon="5.41244">
        <ele>992.22</ele>
        <time>2019-03-28T11:18:06Z</time>
      </trkpt>
      <trkpt lat="44.74753" lon="5.41243">
        <ele>992.22</ele>
        <time>2019-03-28T11:18:19Z</time>
      </trkpt>
      <trkpt lat="44.74753" lon="5.41243">
        <ele>992.22</ele>
        <time>2019-03-28T11:18:33Z</time>
      </trkpt>
      <trkpt lat="44.74754" lon="5.41244">
        <ele>992.22</ele>
        <time>2019-03-28T11:18:52Z</time>
      </trkpt>
      <trkpt lat="44.74754" lon="5.41242">
        <ele>992.7</ele>
        <time>2019-03-28T11:19:16Z</time>
      </trkpt>
      <trkpt lat="44.74753" lon="5.41243">
        <ele>992.22</ele>
        <time>2019-03-28T11:19:42Z</time>
      </trkpt>
      <trkpt lat="44.74753" lon="5.41243">
        <ele>992.22</ele>
        <time>2019-03-28T11:20:02Z</time>
      </trkpt>
      <trkpt lat="44.74752" lon="5.41242">
        <ele>992.7</ele>
        <time>2019-03-28T11:20:30Z</time>
      </trkpt>
      <trkpt lat="44.74753" lon="5.41242">
        <ele>992.7</ele>
        <time>2019-03-28T11:20:52Z</time>
      </trkpt>
      <trkpt lat="44.74753" lon="5.41243">
        <ele>992.7</ele>
        <time>2019-03-28T11:21:19Z</time>
      </trkpt>
      <trkpt lat="44.74753" lon="5.41243">
        <ele>992.7</ele>
        <time>2019-03-28T11:21:45Z</time>
      </trkpt>
      <trkpt lat="44.74752" lon="5.41243">
        <ele>991.74</ele>
        <time>2019-03-28T11:22:13Z</time>
      </trkpt>
      <trkpt lat="44.74753" lon="5.41242">
        <ele>991.74</ele>
        <time>2019-03-28T11:22:38Z</time>
      </trkpt>
      <trkpt lat="44.74754" lon="5.41241">
        <ele>991.26</ele>
        <time>2019-03-28T11:23:03Z</time>
      </trkpt>
      <trkpt lat="44.74755" lon="5.4124">
        <ele>991.74</ele>
        <time>2019-03-28T11:23:32Z</time>
      </trkpt>
      <trkpt lat="44.74755" lon="5.4124">
        <ele>991.74</ele>
        <time>2019-03-28T11:23:59Z</time>
      </trkpt>
      <trkpt lat="44.74756" lon="5.4124">
        <ele>991.26</ele>
        <time>2019-03-28T11:24:28Z</time>
      </trkpt>
      <trkpt lat="44.74756" lon="5.4124">
        <ele>991.74</ele>
        <time>2019-03-28T11:24:56Z</time>
      </trkpt>
      <trkpt lat="44.74755" lon="5.4124">
        <ele>991.74</ele>
        <time>2019-03-28T11:25:25Z</time>
      </trkpt>
      <trkpt lat="44.74754" lon="5.41242">
        <ele>991.26</ele>
        <time>2019-03-28T11:25:53Z</time>
      </trkpt>
      <trkpt lat="44.74754" lon="5.41242">
        <ele>990.78</ele>
        <time>2019-03-28T11:26:20Z</time>
      </trkpt>
      <trkpt lat="44.74753" lon="5.41242">
        <ele>991.26</ele>
        <time>2019-03-28T11:26:52Z</time>
      </trkpt>
      <trkpt lat="44.74754" lon="5.41242">
        <ele>991.26</ele>
        <time>2019-03-28T11:27:17Z</time>
      </trkpt>
      <trkpt lat="44.74754" lon="5.41242">
        <ele>991.26</ele>
        <time>2019-03-28T11:27:48Z</time>
      </trkpt>
      <trkpt lat="44.74754" lon="5.41241">
        <ele>991.26</ele>
        <time>2019-03-28T11:28:17Z</time>
      </trkpt>
      <trkpt lat="44.74753" lon="5.41241">
        <ele>990.78</ele>
        <time>2019-03-28T11:28:49Z</time>
      </trkpt>
      <trkpt lat="44.74754" lon="5.41242">
        <ele>990.3</ele>
        <time>2019-03-28T11:29:18Z</time>
      </trkpt>
      <trkpt lat="44.74754" lon="5.41242">
        <ele>990.3</ele>
        <time>2019-03-28T11:29:47Z</time>
      </trkpt>
      <trkpt lat="44.74753" lon="5.41241">
        <ele>990.78</ele>
        <time>2019-03-28T11:30:14Z</time>
      </trkpt>
      <trkpt lat="44.74753" lon="5.41241">
        <ele>989.81</ele>
        <time>2019-03-28T11:30:40Z</time>
      </trkpt>
      <trkpt lat="44.74754" lon="5.41241">
        <ele>991.26</ele>
        <time>2019-03-28T11:31:09Z</time>
      </trkpt>
      <trkpt lat="44.74754" lon="5.41241">
        <ele>990.78</ele>
        <time>2019-03-28T11:31:35Z</time>
      </trkpt>
      <trkpt lat="44.74754" lon="5.4124">
        <ele>990.3</ele>
        <time>2019-03-28T11:32:05Z</time>
      </trkpt>
      <trkpt lat="44.74753" lon="5.41242">
        <ele>990.3</ele>
        <time>2019-03-28T11:32:35Z</time>
      </trkpt>
      <trkpt lat="44.74753" lon="5.41242">
        <ele>989.33</ele>
        <time>2019-03-28T11:33:08Z</time>
      </trkpt>
      <trkpt lat="44.74753" lon="5.41242">
        <ele>990.3</ele>
        <time>2019-03-28T11:33:33Z</time>
      </trkpt>
      <trkpt lat="44.74754" lon="5.41241">
        <ele>990.3</ele>
        <time>2019-03-28T11:33:58Z</time>
      </trkpt>
      <trkpt lat="44.74753" lon="5.41241">
        <ele>989.81</ele>
        <time>2019-03-28T11:34:21Z</time>
      </trkpt>
      <trkpt lat="44.74752" lon="5.41241">
        <ele>989.81</ele>
        <time>2019-03-28T11:34:50Z</time>
      </trkpt>
      <trkpt lat="44.74753" lon="5.41242">
        <ele>990.3</ele>
        <time>2019-03-28T11:35:17Z</time>
      </trkpt>
      <trkpt lat="44.74752" lon="5.41241">
        <ele>990.3</ele>
        <time>2019-03-28T11:35:44Z</time>
      </trkpt>
      <trkpt lat="44.74753" lon="5.41241">
        <ele>990.3</ele>
        <time>2019-03-28T11:36:09Z</time>
      </trkpt>
      <trkpt lat="44.74753" lon="5.41241">
        <ele>989.33</ele>
        <time>2019-03-28T11:36:35Z</time>
      </trkpt>
      <trkpt lat="44.74753" lon="5.41242">
        <ele>989.81</ele>
        <time>2019-03-28T11:37:00Z</time>
      </trkpt>
      <trkpt lat="44.74752" lon="5.41243">
        <ele>989.81</ele>
        <time>2019-03-28T11:37:21Z</time>
      </trkpt>
      <trkpt lat="44.74753" lon="5.41243">
        <ele>989.81</ele>
        <time>2019-03-28T11:37:47Z</time>
      </trkpt>
      <trkpt lat="44.74753" lon="5.41243">
        <ele>989.33</ele>
        <time>2019-03-28T11:38:12Z</time>
      </trkpt>
      <trkpt lat="44.74754" lon="5.41245">
        <ele>989.33</ele>
        <time>2019-03-28T11:38:37Z</time>
      </trkpt>
      <trkpt lat="44.74753" lon="5.41245">
        <ele>989.33</ele>
        <time>2019-03-28T11:39:04Z</time>
      </trkpt>
      <trkpt lat="44.74753" lon="5.41244">
        <ele>989.33</ele>
        <time>2019-03-28T11:39:30Z</time>
      </trkpt>
      <trkpt lat="44.74753" lon="5.41244">
        <ele>989.33</ele>
        <time>2019-03-28T11:39:56Z</time>
      </trkpt>
      <trkpt lat="44.74754" lon="5.41244">
        <ele>989.33</ele>
        <time>2019-03-28T11:40:20Z</time>
      </trkpt>
      <trkpt lat="44.74753" lon="5.41243">
        <ele>989.33</ele>
        <time>2019-03-28T11:40:44Z</time>
      </trkpt>
      <trkpt lat="44.74752" lon="5.41244">
        <ele>988.85</ele>
        <time>2019-03-28T11:41:09Z</time>
      </trkpt>
      <trkpt lat="44.74753" lon="5.41244">
        <ele>989.33</ele>
        <time>2019-03-28T11:41:30Z</time>
      </trkpt>
      <trkpt lat="44.74753" lon="5.41245">
        <ele>989.33</ele>
        <time>2019-03-28T11:41:52Z</time>
      </trkpt>
      <trkpt lat="44.74753" lon="5.41244">
        <ele>989.33</ele>
        <time>2019-03-28T11:42:19Z</time>
      </trkpt>
      <trkpt lat="44.74752" lon="5.41245">
        <ele>988.85</ele>
        <time>2019-03-28T11:42:46Z</time>
      </trkpt>
      <trkpt lat="44.74752" lon="5.41244">
        <ele>989.81</ele>
        <time>2019-03-28T11:43:12Z</time>
      </trkpt>
      <trkpt lat="44.74752" lon="5.41244">
        <ele>989.33</ele>
        <time>2019-03-28T11:43:38Z</time>
      </trkpt>
      <trkpt lat="44.74752" lon="5.41245">
        <ele>989.33</ele>
        <time>2019-03-28T11:44:07Z</time>
      </trkpt>
      <trkpt lat="44.74752" lon="5.41243">
        <ele>988.85</ele>
        <time>2019-03-28T11:44:36Z</time>
      </trkpt>
      <trkpt lat="44.74752" lon="5.41243">
        <ele>988.85</ele>
        <time>2019-03-28T11:45:01Z</time>
      </trkpt>
      <trkpt lat="44.74752" lon="5.41243">
        <ele>988.37</ele>
        <time>2019-03-28T11:45:27Z</time>
      </trkpt>
      <trkpt lat="44.74752" lon="5.41243">
        <ele>988.85</ele>
        <time>2019-03-28T11:45:52Z</time>
      </trkpt>
      <trkpt lat="44.74752" lon="5.41243">
        <ele>988.85</ele>
        <time>2019-03-28T11:46:13Z</time>
      </trkpt>
      <trkpt lat="44.74753" lon="5.41245">
        <ele>988.85</ele>
        <time>2019-03-28T11:46:43Z</time>
      </trkpt>
      <trkpt lat="44.74753" lon="5.41246">
        <ele>988.85</ele>
        <time>2019-03-28T11:47:05Z</time>
      </trkpt>
      <trkpt lat="44.74753" lon="5.41246">
        <ele>989.33</ele>
        <time>2019-03-28T11:47:30Z</time>
      </trkpt>
      <trkpt lat="44.74753" lon="5.41247">
        <ele>989.33</ele>
        <time>2019-03-28T11:47:56Z</time>
      </trkpt>
      <trkpt lat="44.74753" lon="5.41246">
        <ele>989.33</ele>
        <time>2019-03-28T11:48:18Z</time>
      </trkpt>
      <trkpt lat="44.74752" lon="5.41245">
        <ele>988.85</ele>
        <time>2019-03-28T11:48:45Z</time>
      </trkpt>
      <trkpt lat="44.74752" lon="5.41245">
        <ele>988.85</ele>
        <time>2019-03-28T11:49:07Z</time>
      </trkpt>
      <trkpt lat="44.74752" lon="5.41246">
        <ele>988.85</ele>
        <time>2019-03-28T11:49:28Z</time>
      </trkpt>
      <trkpt lat="44.74752" lon="5.41246">
        <ele>989.81</ele>
        <time>2019-03-28T11:49:51Z</time>
      </trkpt>
      <trkpt lat="44.74751" lon="5.41245">
        <ele>989.33</ele>
        <time>2019-03-28T11:50:17Z</time>
      </trkpt>
      <trkpt lat="44.74751" lon="5.41244">
        <ele>989.33</ele>
        <time>2019-03-28T11:50:39Z</time>
      </trkpt>
      <trkpt lat="44.74752" lon="5.41244">
        <ele>988.85</ele>
        <time>2019-03-28T11:51:04Z</time>
      </trkpt>
      <trkpt lat="44.74753" lon="5.41245">
        <ele>988.85</ele>
        <time>2019-03-28T11:51:28Z</time>
      </trkpt>
      <trkpt lat="44.74753" lon="5.41246">
        <ele>988.85</ele>
        <time>2019-03-28T11:51:51Z</time>
      </trkpt>
      <trkpt lat="44.74752" lon="5.41246">
        <ele>988.85</ele>
        <time>2019-03-28T11:52:11Z</time>
      </trkpt>
      <trkpt lat="44.74752" lon="5.41246">
        <ele>988.37</ele>
        <time>2019-03-28T11:52:38Z</time>
      </trkpt>
      <trkpt lat="44.74753" lon="5.41245">
        <ele>988.85</ele>
        <time>2019-03-28T11:53:01Z</time>
      </trkpt>
      <trkpt lat="44.74753" lon="5.41245">
        <ele>988.37</ele>
        <time>2019-03-28T11:53:19Z</time>
      </trkpt>
      <trkpt lat="44.74752" lon="5.41247">
        <ele>988.85</ele>
        <time>2019-03-28T11:53:46Z</time>
      </trkpt>
      <trkpt lat="44.74752" lon="5.41247">
        <ele>989.33</ele>
        <time>2019-03-28T11:54:15Z</time>
      </trkpt>
      <trkpt lat="44.74753" lon="5.41247">
        <ele>989.33</ele>
        <time>2019-03-28T11:54:38Z</time>
      </trkpt>
      <trkpt lat="44.74752" lon="5.41246">
        <ele>988.85</ele>
        <time>2019-03-28T11:55:03Z</time>
      </trkpt>
      <trkpt lat="44.74752" lon="5.41246">
        <ele>988.85</ele>
        <time>2019-03-28T11:55:29Z</time>
      </trkpt>
      <trkpt lat="44.74752" lon="5.41247">
        <ele>988.37</ele>
        <time>2019-03-28T11:55:53Z</time>
      </trkpt>
      <trkpt lat="44.74752" lon="5.41246">
        <ele>988.37</ele>
        <time>2019-03-28T11:56:25Z</time>
      </trkpt>
      <trkpt lat="44.74752" lon="5.41247">
        <ele>988.37</ele>
        <time>2019-03-28T11:56:52Z</time>
      </trkpt>
      <trkpt lat="44.74753" lon="5.41247">
        <ele>988.85</ele>
        <time>2019-03-28T11:57:19Z</time>
      </trkpt>
      <trkpt lat="44.74752" lon="5.41247">
        <ele>988.85</ele>
        <time>2019-03-28T11:57:39Z</time>
      </trkpt>
      <trkpt lat="44.74752" lon="5.41247">
        <ele>988.37</ele>
        <time>2019-03-28T11:58:03Z</time>
      </trkpt>
      <trkpt lat="44.74752" lon="5.41247">
        <ele>988.85</ele>
        <time>2019-03-28T11:58:26Z</time>
      </trkpt>
      <trkpt lat="44.74752" lon="5.41247">
        <ele>987.89</ele>
        <time>2019-03-28T11:58:48Z</time>
      </trkpt>
      <trkpt lat="44.74752" lon="5.41246">
        <ele>988.37</ele>
        <time>2019-03-28T11:59:09Z</time>
      </trkpt>
      <trkpt lat="44.74751" lon="5.41246">
        <ele>988.85</ele>
        <time>2019-03-28T11:59:35Z</time>
      </trkpt>
      <trkpt lat="44.74752" lon="5.41246">
        <ele>988.37</ele>
        <time>2019-03-28T11:59:58Z</time>
      </trkpt>
      <trkpt lat="44.74752" lon="5.41246">
        <ele>987.89</ele>
        <time>2019-03-28T12:00:18Z</time>
      </trkpt>
      <trkpt lat="44.74751" lon="5.41245">
        <ele>988.37</ele>
        <time>2019-03-28T12:00:44Z</time>
      </trkpt>
      <trkpt lat="44.74752" lon="5.41245">
        <ele>988.37</ele>
        <time>2019-03-28T12:01:09Z</time>
      </trkpt>
      <trkpt lat="44.74752" lon="5.41245">
        <ele>988.37</ele>
        <time>2019-03-28T12:01:35Z</time>
      </trkpt>
      <trkpt lat="44.74753" lon="5.41244">
        <ele>988.37</ele>
        <time>2019-03-28T12:02:04Z</time>
      </trkpt>
      <trkpt lat="44.74753" lon="5.41244">
        <ele>988.37</ele>
        <time>2019-03-28T12:02:31Z</time>
      </trkpt>
      <trkpt lat="44.74753" lon="5.41243">
        <ele>987.89</ele>
        <time>2019-03-28T12:02:56Z</time>
      </trkpt>
      <trkpt lat="44.74752" lon="5.41243">
        <ele>988.37</ele>
        <time>2019-03-28T12:03:22Z</time>
      </trkpt>
      <trkpt lat="44.74751" lon="5.41245">
        <ele>988.37</ele>
        <time>2019-03-28T12:03:46Z</time>
      </trkpt>
      <trkpt lat="44.74751" lon="5.41246">
        <ele>987.89</ele>
        <time>2019-03-28T12:04:16Z</time>
      </trkpt>
      <trkpt lat="44.74752" lon="5.41246">
        <ele>988.85</ele>
        <time>2019-03-28T12:04:46Z</time>
      </trkpt>
      <trkpt lat="44.74753" lon="5.41246">
        <ele>988.37</ele>
        <time>2019-03-28T12:05:15Z</time>
      </trkpt>
      <trkpt lat="44.74754" lon="5.41246">
        <ele>988.37</ele>
        <time>2019-03-28T12:05:43Z</time>
      </trkpt>
      <trkpt lat="44.74754" lon="5.41245">
        <ele>987.89</ele>
        <time>2019-03-28T12:06:07Z</time>
      </trkpt>
      <trkpt lat="44.74753" lon="5.41245">
        <ele>987.89</ele>
        <time>2019-03-28T12:06:30Z</time>
      </trkpt>
      <trkpt lat="44.74753" lon="5.41244">
        <ele>988.85</ele>
        <time>2019-03-28T12:06:47Z</time>
      </trkpt>
      <trkpt lat="44.74753" lon="5.41244">
        <ele>988.37</ele>
        <time>2019-03-28T12:06:54Z</time>
      </trkpt>
      <trkpt lat="44.74753" lon="5.41243">
        <ele>985.01</ele>
        <time>2019-03-28T12:07:01Z</time>
      </trkpt>
      <trkpt lat="44.74753" lon="5.41243">
        <ele>984.53</ele>
        <time>2019-03-28T12:07:02Z</time>
      </trkpt>
      <trkpt lat="44.74753" lon="5.41243">
        <ele>989.81</ele>
        <time>2019-03-28T12:07:04Z</time>
      </trkpt>
      <trkpt lat="44.74753" lon="5.41243">
        <ele>985.49</ele>
        <time>2019-03-28T12:07:05Z</time>
      </trkpt>
      <trkpt lat="44.74753" lon="5.41244">
        <ele>988.85</ele>
        <time>2019-03-28T12:07:06Z</time>
      </trkpt>
      <trkpt lat="44.74752" lon="5.41244">
        <ele>985.49</ele>
        <time>2019-03-28T12:07:19Z</time>
      </trkpt>
      <trkpt lat="44.74751" lon="5.41244">
        <ele>987.89</ele>
        <time>2019-03-28T12:07:31Z</time>
      </trkpt>
      <trkpt lat="44.7475" lon="5.41243">
        <ele>984.05</ele>
        <time>2019-03-28T12:07:37Z</time>
      </trkpt>
      <trkpt lat="44.7475" lon="5.41243">
        <ele>988.85</ele>
        <time>2019-03-28T12:07:38Z</time>
      </trkpt>
      <trkpt lat="44.74747" lon="5.41241">
        <ele>986.93</ele>
        <time>2019-03-28T12:07:47Z</time>
      </trkpt>
      <trkpt lat="44.74744" lon="5.4124">
        <ele>986.45</ele>
        <time>2019-03-28T12:07:56Z</time>
      </trkpt>
      <trkpt lat="44.74736" lon="5.41243">
        <ele>987.89</ele>
        <time>2019-03-28T12:08:09Z</time>
      </trkpt>
      <trkpt lat="44.74728" lon="5.41245">
        <ele>988.37</ele>
        <time>2019-03-28T12:08:19Z</time>
      </trkpt>
      <trkpt lat="44.74722" lon="5.41248">
        <ele>988.85</ele>
        <time>2019-03-28T12:08:28Z</time>
      </trkpt>
      <trkpt lat="44.7472" lon="5.4125">
        <ele>989.81</ele>
        <time>2019-03-28T12:08:32Z</time>
      </trkpt>
      <trkpt lat="44.74715" lon="5.41245">
        <ele>988.85</ele>
        <time>2019-03-28T12:08:42Z</time>
      </trkpt>
      <trkpt lat="44.74715" lon="5.41245">
        <ele>988.85</ele>
        <time>2019-03-28T12:08:59Z</time>
      </trkpt>
      <trkpt lat="44.74715" lon="5.41244">
        <ele>989.33</ele>
        <time>2019-03-28T12:09:16Z</time>
      </trkpt>
      <trkpt lat="44.74714" lon="5.41243">
        <ele>988.85</ele>
        <time>2019-03-28T12:09:32Z</time>
      </trkpt>
      <trkpt lat="44.74714" lon="5.41243">
        <ele>988.37</ele>
        <time>2019-03-28T12:09:51Z</time>
      </trkpt>
      <trkpt lat="44.74715" lon="5.41242">
        <ele>988.85</ele>
        <time>2019-03-28T12:10:13Z</time>
      </trkpt>
      <trkpt lat="44.74715" lon="5.41242">
        <ele>988.85</ele>
        <time>2019-03-28T12:10:26Z</time>
      </trkpt>
      <trkpt lat="44.74715" lon="5.41242">
        <ele>988.37</ele>
        <time>2019-03-28T12:10:50Z</time>
      </trkpt>
      <trkpt lat="44.74712" lon="5.41243">
        <ele>989.81</ele>
        <time>2019-03-28T12:11:01Z</time>
      </trkpt>
      <trkpt lat="44.74709" lon="5.4124">
        <ele>990.3</ele>
        <time>2019-03-28T12:11:10Z</time>
      </trkpt>
      <trkpt lat="44.74709" lon="5.41237">
        <ele>989.81</ele>
        <time>2019-03-28T12:11:25Z</time>
      </trkpt>
      <trkpt lat="44.74708" lon="5.41235">
        <ele>989.81</ele>
        <time>2019-03-28T12:11:36Z</time>
      </trkpt>
      <trkpt lat="44.74708" lon="5.41235">
        <ele>990.3</ele>
        <time>2019-03-28T12:11:56Z</time>
      </trkpt>
      <trkpt lat="44.74708" lon="5.41234">
        <ele>990.78</ele>
        <time>2019-03-28T12:12:14Z</time>
      </trkpt>
      <trkpt lat="44.74708" lon="5.41234">
        <ele>989.81</ele>
        <time>2019-03-28T12:12:33Z</time>
      </trkpt>
      <trkpt lat="44.74707" lon="5.41231">
        <ele>990.78</ele>
        <time>2019-03-28T12:12:52Z</time>
      </trkpt>
      <trkpt lat="44.74704" lon="5.41227">
        <ele>992.7</ele>
        <time>2019-03-28T12:12:59Z</time>
      </trkpt>
      <trkpt lat="44.74701" lon="5.41222">
        <ele>995.1</ele>
        <time>2019-03-28T12:13:09Z</time>
      </trkpt>
      <trkpt lat="44.74701" lon="5.41215">
        <ele>995.1</ele>
        <time>2019-03-28T12:13:20Z</time>
      </trkpt>
      <trkpt lat="44.74702" lon="5.41212">
        <ele>995.58</ele>
        <time>2019-03-28T12:13:37Z</time>
      </trkpt>
      <trkpt lat="44.74702" lon="5.41211">
        <ele>994.62</ele>
        <time>2019-03-28T12:13:47Z</time>
      </trkpt>
      <trkpt lat="44.74703" lon="5.41211">
        <ele>994.14</ele>
        <time>2019-03-28T12:14:06Z</time>
      </trkpt>
      <trkpt lat="44.74703" lon="5.41211">
        <ele>993.66</ele>
        <time>2019-03-28T12:14:20Z</time>
      </trkpt>
      <trkpt lat="44.74703" lon="5.41211">
        <ele>992.7</ele>
        <time>2019-03-28T12:14:31Z</time>
      </trkpt>
      <trkpt lat="44.74703" lon="5.4121">
        <ele>988.37</ele>
        <time>2019-03-28T12:14:35Z</time>
      </trkpt>
      <trkpt lat="44.74703" lon="5.4121">
        <ele>996.54</ele>
        <time>2019-03-28T12:14:37Z</time>
      </trkpt>
      <trkpt lat="44.74703" lon="5.4121">
        <ele>991.26</ele>
        <time>2019-03-28T12:14:38Z</time>
      </trkpt>
      <trkpt lat="44.74703" lon="5.4121">
        <ele>992.7</ele>
        <time>2019-03-28T12:14:53Z</time>
      </trkpt>
      <trkpt lat="44.74703" lon="5.4121">
        <ele>992.22</ele>
        <time>2019-03-28T12:15:07Z</time>
      </trkpt>
      <trkpt lat="44.74703" lon="5.4121">
        <ele>992.7</ele>
        <time>2019-03-28T12:15:21Z</time>
      </trkpt>
      <trkpt lat="44.74703" lon="5.4121">
        <ele>992.22</ele>
        <time>2019-03-28T12:15:39Z</time>
      </trkpt>
      <trkpt lat="44.74703" lon="5.4121">
        <ele>992.7</ele>
        <time>2019-03-28T12:15:54Z</time>
      </trkpt>
      <trkpt lat="44.74703" lon="5.41209">
        <ele>992.22</ele>
        <time>2019-03-28T12:16:10Z</time>
      </trkpt>
      <trkpt lat="44.74703" lon="5.41209">
        <ele>992.22</ele>
        <time>2019-03-28T12:16:26Z</time>
      </trkpt>
      <trkpt lat="44.74703" lon="5.41209">
        <ele>992.22</ele>
        <time>2019-03-28T12:16:42Z</time>
      </trkpt>
      <trkpt lat="44.74703" lon="5.41209">
        <ele>991.74</ele>
        <time>2019-03-28T12:16:57Z</time>
      </trkpt>
      <trkpt lat="44.74703" lon="5.41209">
        <ele>991.26</ele>
        <time>2019-03-28T12:17:17Z</time>
      </trkpt>
      <trkpt lat="44.74703" lon="5.41209">
        <ele>990.78</ele>
        <time>2019-03-28T12:17:33Z</time>
      </trkpt>
      <trkpt lat="44.74702" lon="5.41209">
        <ele>990.78</ele>
        <time>2019-03-28T12:17:54Z</time>
      </trkpt>
      <trkpt lat="44.74702" lon="5.4121">
        <ele>991.26</ele>
        <time>2019-03-28T12:18:13Z</time>
      </trkpt>
      <trkpt lat="44.74702" lon="5.4121">
        <ele>991.26</ele>
        <time>2019-03-28T12:18:29Z</time>
      </trkpt>
      <trkpt lat="44.74702" lon="5.41211">
        <ele>990.78</ele>
        <time>2019-03-28T12:18:41Z</time>
      </trkpt>
      <trkpt lat="44.74701" lon="5.41211">
        <ele>990.78</ele>
        <time>2019-03-28T12:19:02Z</time>
      </trkpt>
      <trkpt lat="44.74701" lon="5.4121">
        <ele>990.78</ele>
        <time>2019-03-28T12:19:16Z</time>
      </trkpt>
      <trkpt lat="44.74702" lon="5.4121">
        <ele>990.78</ele>
        <time>2019-03-28T12:19:34Z</time>
      </trkpt>
      <trkpt lat="44.74702" lon="5.4121">
        <ele>990.78</ele>
        <time>2019-03-28T12:19:50Z</time>
      </trkpt>
      <trkpt lat="44.74701" lon="5.4121">
        <ele>990.3</ele>
        <time>2019-03-28T12:20:07Z</time>
      </trkpt>
      <trkpt lat="44.74701" lon="5.41211">
        <ele>990.3</ele>
        <time>2019-03-28T12:20:24Z</time>
      </trkpt>
      <trkpt lat="44.74701" lon="5.4121">
        <ele>990.3</ele>
        <time>2019-03-28T12:20:42Z</time>
      </trkpt>
      <trkpt lat="44.74701" lon="5.41209">
        <ele>989.33</ele>
        <time>2019-03-28T12:20:57Z</time>
      </trkpt>
      <trkpt lat="44.74701" lon="5.41208">
        <ele>989.33</ele>
        <time>2019-03-28T12:21:18Z</time>
      </trkpt>
      <trkpt lat="44.74701" lon="5.41208">
        <ele>988.85</ele>
        <time>2019-03-28T12:21:30Z</time>
      </trkpt>
      <trkpt lat="44.747" lon="5.4121">
        <ele>989.33</ele>
        <time>2019-03-28T12:21:50Z</time>
      </trkpt>
      <trkpt lat="44.74701" lon="5.41211">
        <ele>988.85</ele>
        <time>2019-03-28T12:22:09Z</time>
      </trkpt>
      <trkpt lat="44.74701" lon="5.41211">
        <ele>989.81</ele>
        <time>2019-03-28T12:22:23Z</time>
      </trkpt>
      <trkpt lat="44.74701" lon="5.4121">
        <ele>987.41</ele>
        <time>2019-03-28T12:22:36Z</time>
      </trkpt>
      <trkpt lat="44.74701" lon="5.41209">
        <ele>987.89</ele>
        <time>2019-03-28T12:22:47Z</time>
      </trkpt>
      <trkpt lat="44.74702" lon="5.41208">
        <ele>986.45</ele>
        <time>2019-03-28T12:22:55Z</time>
      </trkpt>
      <trkpt lat="44.74708" lon="5.41197">
        <ele>985.49</ele>
        <time>2019-03-28T12:23:06Z</time>
      </trkpt>
      <trkpt lat="44.7471" lon="5.41192">
        <ele>985.49</ele>
        <time>2019-03-28T12:23:21Z</time>
      </trkpt>
      <trkpt lat="44.74717" lon="5.41185">
        <ele>985.49</ele>
        <time>2019-03-28T12:23:29Z</time>
      </trkpt>
      <trkpt lat="44.74723" lon="5.41183">
        <ele>985.49</ele>
        <time>2019-03-28T12:23:34Z</time>
      </trkpt>
      <trkpt lat="44.74729" lon="5.41176">
        <ele>983.57</ele>
        <time>2019-03-28T12:23:44Z</time>
      </trkpt>
      <trkpt lat="44.74735" lon="5.41166">
        <ele>983.09</ele>
        <time>2019-03-28T12:23:54Z</time>
      </trkpt>
      <trkpt lat="44.74738" lon="5.41158">
        <ele>983.09</ele>
        <time>2019-03-28T12:24:00Z</time>
      </trkpt>
      <trkpt lat="44.7474" lon="5.41148">
        <ele>983.09</ele>
        <time>2019-03-28T12:24:08Z</time>
      </trkpt>
      <trkpt lat="44.74744" lon="5.41135">
        <ele>982.12</ele>
        <time>2019-03-28T12:24:18Z</time>
      </trkpt>
      <trkpt lat="44.74748" lon="5.41126">
        <ele>981.64</ele>
        <time>2019-03-28T12:24:28Z</time>
      </trkpt>
      <trkpt lat="44.74751" lon="5.41116">
        <ele>980.2</ele>
        <time>2019-03-28T12:24:38Z</time>
      </trkpt>
      <trkpt lat="44.74754" lon="5.41108">
        <ele>979.24</ele>
        <time>2019-03-28T12:24:47Z</time>
      </trkpt>
      <trkpt lat="44.74762" lon="5.41099">
        <ele>976.84</ele>
        <time>2019-03-28T12:25:00Z</time>
      </trkpt>
      <trkpt lat="44.74763" lon="5.41094">
        <ele>976.84</ele>
        <time>2019-03-28T12:25:05Z</time>
      </trkpt>
      <trkpt lat="44.7477" lon="5.41083">
        <ele>975.88</ele>
        <time>2019-03-28T12:25:16Z</time>
      </trkpt>
      <trkpt lat="44.74773" lon="5.4108">
        <ele>974.91</ele>
        <time>2019-03-28T12:25:20Z</time>
      </trkpt>
      <trkpt lat="44.74775" lon="5.41075">
        <ele>973.95</ele>
        <time>2019-03-28T12:25:24Z</time>
      </trkpt>
      <trkpt lat="44.74781" lon="5.41065">
        <ele>972.03</ele>
        <time>2019-03-28T12:25:34Z</time>
      </trkpt>
      <trkpt lat="44.74789" lon="5.41057">
        <ele>971.07</ele>
        <time>2019-03-28T12:25:44Z</time>
      </trkpt>
      <trkpt lat="44.74795" lon="5.41049">
        <ele>970.59</ele>
        <time>2019-03-28T12:25:52Z</time>
      </trkpt>
      <trkpt lat="44.748" lon="5.41038">
        <ele>969.15</ele>
        <time>2019-03-28T12:26:02Z</time>
      </trkpt>
      <trkpt lat="44.74809" lon="5.4103">
        <ele>968.18</ele>
        <time>2019-03-28T12:26:11Z</time>
      </trkpt>
      <trkpt lat="44.7481" lon="5.41029">
        <ele>967.7</ele>
        <time>2019-03-28T12:26:12Z</time>
      </trkpt>
      <trkpt lat="44.74821" lon="5.41014">
        <ele>966.26</ele>
        <time>2019-03-28T12:26:23Z</time>
      </trkpt>
      <trkpt lat="44.7483" lon="5.41006">
        <ele>964.82</ele>
        <time>2019-03-28T12:26:32Z</time>
      </trkpt>
      <trkpt lat="44.74831" lon="5.41005">
        <ele>964.34</ele>
        <time>2019-03-28T12:26:33Z</time>
      </trkpt>
      <trkpt lat="44.74841" lon="5.40997">
        <ele>962.42</ele>
        <time>2019-03-28T12:26:44Z</time>
      </trkpt>
      <trkpt lat="44.74844" lon="5.40995">
        <ele>962.42</ele>
        <time>2019-03-28T12:26:47Z</time>
      </trkpt>
      <trkpt lat="44.74849" lon="5.40992">
        <ele>960.98</ele>
        <time>2019-03-28T12:26:52Z</time>
      </trkpt>
      <trkpt lat="44.74859" lon="5.40984">
        <ele>959.53</ele>
        <time>2019-03-28T12:27:02Z</time>
      </trkpt>
      <trkpt lat="44.74868" lon="5.4097">
        <ele>957.61</ele>
        <time>2019-03-28T12:27:12Z</time>
      </trkpt>
      <trkpt lat="44.74867" lon="5.40965">
        <ele>954.73</ele>
        <time>2019-03-28T12:27:22Z</time>
      </trkpt>
      <trkpt lat="44.74867" lon="5.40966">
        <ele>955.21</ele>
        <time>2019-03-28T12:27:23Z</time>
      </trkpt>
      <trkpt lat="44.74864" lon="5.40971">
        <ele>955.69</ele>
        <time>2019-03-28T12:27:27Z</time>
      </trkpt>
      <trkpt lat="44.74854" lon="5.40974">
        <ele>953.77</ele>
        <time>2019-03-28T12:27:39Z</time>
      </trkpt>
      <trkpt lat="44.74842" lon="5.40985">
        <ele>952.8</ele>
        <time>2019-03-28T12:27:49Z</time>
      </trkpt>
      <trkpt lat="44.74831" lon="5.40986">
        <ele>950.88</ele>
        <time>2019-03-28T12:28:00Z</time>
      </trkpt>
      <trkpt lat="44.74812" lon="5.40989">
        <ele>950.4</ele>
        <time>2019-03-28T12:28:11Z</time>
      </trkpt>
      <trkpt lat="44.74804" lon="5.40995">
        <ele>949.92</ele>
        <time>2019-03-28T12:28:20Z</time>
      </trkpt>
      <trkpt lat="44.74792" lon="5.41006">
        <ele>947.52</ele>
        <time>2019-03-28T12:28:31Z</time>
      </trkpt>
      <trkpt lat="44.7478" lon="5.41009">
        <ele>946.07</ele>
        <time>2019-03-28T12:28:42Z</time>
      </trkpt>
      <trkpt lat="44.74771" lon="5.41017">
        <ele>944.63</ele>
        <time>2019-03-28T12:28:51Z</time>
      </trkpt>
      <trkpt lat="44.74758" lon="5.41025">
        <ele>942.23</ele>
        <time>2019-03-28T12:29:02Z</time>
      </trkpt>
      <trkpt lat="44.74746" lon="5.41034">
        <ele>941.27</ele>
        <time>2019-03-28T12:29:14Z</time>
      </trkpt>
      <trkpt lat="44.74735" lon="5.41042">
        <ele>940.31</ele>
        <time>2019-03-28T12:29:25Z</time>
      </trkpt>
      <trkpt lat="44.74723" lon="5.41053">
        <ele>938.86</ele>
        <time>2019-03-28T12:29:36Z</time>
      </trkpt>
      <trkpt lat="44.74711" lon="5.41064">
        <ele>936.46</ele>
        <time>2019-03-28T12:29:49Z</time>
      </trkpt>
      <trkpt lat="44.74705" lon="5.41068">
        <ele>932.62</ele>
        <time>2019-03-28T12:29:58Z</time>
      </trkpt>
      <trkpt lat="44.74704" lon="5.41068">
        <ele>935.98</ele>
        <time>2019-03-28T12:29:59Z</time>
      </trkpt>
      <trkpt lat="44.74704" lon="5.41065">
        <ele>934.54</ele>
        <time>2019-03-28T12:30:03Z</time>
      </trkpt>
      <trkpt lat="44.74705" lon="5.4105">
        <ele>932.62</ele>
        <time>2019-03-28T12:30:11Z</time>
      </trkpt>
      <trkpt lat="44.74709" lon="5.41033">
        <ele>931.17</ele>
        <time>2019-03-28T12:30:22Z</time>
      </trkpt>
      <trkpt lat="44.74714" lon="5.41021">
        <ele>930.69</ele>
        <time>2019-03-28T12:30:30Z</time>
      </trkpt>
      <trkpt lat="44.74717" lon="5.41014">
        <ele>929.25</ele>
        <time>2019-03-28T12:30:39Z</time>
      </trkpt>
      <trkpt lat="44.74718" lon="5.41012">
        <ele>928.77</ele>
        <time>2019-03-28T12:30:41Z</time>
      </trkpt>
      <trkpt lat="44.74724" lon="5.40996">
        <ele>927.33</ele>
        <time>2019-03-28T12:30:49Z</time>
      </trkpt>
      <trkpt lat="44.74736" lon="5.40987">
        <ele>925.89</ele>
        <time>2019-03-28T12:30:59Z</time>
      </trkpt>
      <trkpt lat="44.74744" lon="5.40976">
        <ele>925.41</ele>
        <time>2019-03-28T12:31:09Z</time>
      </trkpt>
      <trkpt lat="44.74746" lon="5.40976">
        <ele>925.41</ele>
        <time>2019-03-28T12:31:11Z</time>
      </trkpt>
      <trkpt lat="44.7475" lon="5.40972">
        <ele>924.93</ele>
        <time>2019-03-28T12:31:16Z</time>
      </trkpt>
      <trkpt lat="44.74759" lon="5.40957">
        <ele>923.48</ele>
        <time>2019-03-28T12:31:27Z</time>
      </trkpt>
      <trkpt lat="44.74767" lon="5.40945">
        <ele>921.08</ele>
        <time>2019-03-28T12:31:37Z</time>
      </trkpt>
      <trkpt lat="44.74769" lon="5.40943">
        <ele>922.04</ele>
        <time>2019-03-28T12:31:39Z</time>
      </trkpt>
      <trkpt lat="44.74779" lon="5.40935">
        <ele>919.16</ele>
        <time>2019-03-28T12:31:50Z</time>
      </trkpt>
      <trkpt lat="44.7478" lon="5.40932">
        <ele>916.75</ele>
        <time>2019-03-28T12:31:52Z</time>
      </trkpt>
      <trkpt lat="44.74791" lon="5.40925">
        <ele>916.75</ele>
        <time>2019-03-28T12:32:01Z</time>
      </trkpt>
      <trkpt lat="44.74799" lon="5.40918">
        <ele>913.87</ele>
        <time>2019-03-28T12:32:09Z</time>
      </trkpt>
      <trkpt lat="44.74808" lon="5.4091">
        <ele>914.83</ele>
        <time>2019-03-28T12:32:19Z</time>
      </trkpt>
      <trkpt lat="44.74809" lon="5.40909">
        <ele>914.83</ele>
        <time>2019-03-28T12:32:20Z</time>
      </trkpt>
      <trkpt lat="44.74814" lon="5.40905">
        <ele>912.91</ele>
        <time>2019-03-28T12:32:26Z</time>
      </trkpt>
      <trkpt lat="44.74822" lon="5.40894">
        <ele>913.39</ele>
        <time>2019-03-28T12:32:36Z</time>
      </trkpt>
      <trkpt lat="44.74822" lon="5.40892">
        <ele>912.91</ele>
        <time>2019-03-28T12:32:37Z</time>
      </trkpt>
      <trkpt lat="44.74823" lon="5.40889">
        <ele>911.95</ele>
        <time>2019-03-28T12:32:39Z</time>
      </trkpt>
      <trkpt lat="44.74824" lon="5.40888">
        <ele>911.95</ele>
        <time>2019-03-28T12:32:40Z</time>
      </trkpt>
      <trkpt lat="44.74828" lon="5.40887">
        <ele>911.95</ele>
        <time>2019-03-28T12:32:44Z</time>
      </trkpt>
      <trkpt lat="44.74834" lon="5.4088">
        <ele>911.47</ele>
        <time>2019-03-28T12:32:52Z</time>
      </trkpt>
      <trkpt lat="44.7483" lon="5.40879">
        <ele>909.06</ele>
        <time>2019-03-28T12:33:01Z</time>
      </trkpt>
      <trkpt lat="44.74828" lon="5.40883">
        <ele>908.1</ele>
        <time>2019-03-28T12:33:05Z</time>
      </trkpt>
      <trkpt lat="44.74822" lon="5.40886">
        <ele>904.74</ele>
        <time>2019-03-28T12:33:14Z</time>
      </trkpt>
      <trkpt lat="44.74818" lon="5.40889">
        <ele>904.74</ele>
        <time>2019-03-28T12:33:19Z</time>
      </trkpt>
      <trkpt lat="44.74807" lon="5.40892">
        <ele>903.3</ele>
        <time>2019-03-28T12:33:30Z</time>
      </trkpt>
      <trkpt lat="44.748" lon="5.40897">
        <ele>900.89</ele>
        <time>2019-03-28T12:33:40Z</time>
      </trkpt>
      <trkpt lat="44.74791" lon="5.40901">
        <ele>898.49</ele>
        <time>2019-03-28T12:33:51Z</time>
      </trkpt>
      <trkpt lat="44.74784" lon="5.40902">
        <ele>897.53</ele>
        <time>2019-03-28T12:34:00Z</time>
      </trkpt>
      <trkpt lat="44.74778" lon="5.40903">
        <ele>896.57</ele>
        <time>2019-03-28T12:34:09Z</time>
      </trkpt>
      <trkpt lat="44.74775" lon="5.40903">
        <ele>896.09</ele>
        <time>2019-03-28T12:34:12Z</time>
      </trkpt>
      <trkpt lat="44.74767" lon="5.40904">
        <ele>894.16</ele>
        <time>2019-03-28T12:34:21Z</time>
      </trkpt>
      <trkpt lat="44.74757" lon="5.40906">
        <ele>892.24</ele>
        <time>2019-03-28T12:34:32Z</time>
      </trkpt>
      <trkpt lat="44.74745" lon="5.40911">
        <ele>889.84</ele>
        <time>2019-03-28T12:34:45Z</time>
      </trkpt>
      <trkpt lat="44.74742" lon="5.40912">
        <ele>888.88</ele>
        <time>2019-03-28T12:34:52Z</time>
      </trkpt>
      <trkpt lat="44.74733" lon="5.40913">
        <ele>887.43</ele>
        <time>2019-03-28T12:35:01Z</time>
      </trkpt>
      <trkpt lat="44.74728" lon="5.40915">
        <ele>886.95</ele>
        <time>2019-03-28T12:35:05Z</time>
      </trkpt>
      <trkpt lat="44.74721" lon="5.40922">
        <ele>885.03</ele>
        <time>2019-03-28T12:35:15Z</time>
      </trkpt>
      <trkpt lat="44.74713" lon="5.40928">
        <ele>884.07</ele>
        <time>2019-03-28T12:35:26Z</time>
      </trkpt>
      <trkpt lat="44.74702" lon="5.40934">
        <ele>881.67</ele>
        <time>2019-03-28T12:35:38Z</time>
      </trkpt>
      <trkpt lat="44.74695" lon="5.40938">
        <ele>880.22</ele>
        <time>2019-03-28T12:35:47Z</time>
      </trkpt>
      <trkpt lat="44.74688" lon="5.40946">
        <ele>879.26</ele>
        <time>2019-03-28T12:35:57Z</time>
      </trkpt>
      <trkpt lat="44.74677" lon="5.40955">
        <ele>876.86</ele>
        <time>2019-03-28T12:36:11Z</time>
      </trkpt>
      <trkpt lat="44.74667" lon="5.40966">
        <ele>876.86</ele>
        <time>2019-03-28T12:36:24Z</time>
      </trkpt>
      <trkpt lat="44.74659" lon="5.40969">
        <ele>873.98</ele>
        <time>2019-03-28T12:36:36Z</time>
      </trkpt>
      <trkpt lat="44.74659" lon="5.40965">
        <ele>874.46</ele>
        <time>2019-03-28T12:36:38Z</time>
      </trkpt>
      <trkpt lat="44.7466" lon="5.40949">
        <ele>873.01</ele>
        <time>2019-03-28T12:36:48Z</time>
      </trkpt>
      <trkpt lat="44.74666" lon="5.40939">
        <ele>870.61</ele>
        <time>2019-03-28T12:36:58Z</time>
      </trkpt>
      <trkpt lat="44.74668" lon="5.40935">
        <ele>871.09</ele>
        <time>2019-03-28T12:37:01Z</time>
      </trkpt>
      <trkpt lat="44.74675" lon="5.40924">
        <ele>869.65</ele>
        <time>2019-03-28T12:37:11Z</time>
      </trkpt>
      <trkpt lat="44.7468" lon="5.40915">
        <ele>868.21</ele>
        <time>2019-03-28T12:37:21Z</time>
      </trkpt>
      <trkpt lat="44.74683" lon="5.40903">
        <ele>867.25</ele>
        <time>2019-03-28T12:37:30Z</time>
      </trkpt>
      <trkpt lat="44.74683" lon="5.40901">
        <ele>867.25</ele>
        <time>2019-03-28T12:37:31Z</time>
      </trkpt>
      <trkpt lat="44.74685" lon="5.40887">
        <ele>866.77</ele>
        <time>2019-03-28T12:37:39Z</time>
      </trkpt>
      <trkpt lat="44.74694" lon="5.40874">
        <ele>865.32</ele>
        <time>2019-03-28T12:37:49Z</time>
      </trkpt>
      <trkpt lat="44.74702" lon="5.40868">
        <ele>864.36</ele>
        <time>2019-03-28T12:37:57Z</time>
      </trkpt>
      <trkpt lat="44.74703" lon="5.40866">
        <ele>863.88</ele>
        <time>2019-03-28T12:37:59Z</time>
      </trkpt>
      <trkpt lat="44.7471" lon="5.40858">
        <ele>862.44</ele>
        <time>2019-03-28T12:38:09Z</time>
      </trkpt>
      <trkpt lat="44.74712" lon="5.4085">
        <ele>861.48</ele>
        <time>2019-03-28T12:38:14Z</time>
      </trkpt>
      <trkpt lat="44.74722" lon="5.40838">
        <ele>859.08</ele>
        <time>2019-03-28T12:38:25Z</time>
      </trkpt>
      <trkpt lat="44.74722" lon="5.40833">
        <ele>857.63</ele>
        <time>2019-03-28T12:38:36Z</time>
      </trkpt>
      <trkpt lat="44.74711" lon="5.40837">
        <ele>855.71</ele>
        <time>2019-03-28T12:38:49Z</time>
      </trkpt>
      <trkpt lat="44.74706" lon="5.40844">
        <ele>854.27</ele>
        <time>2019-03-28T12:38:57Z</time>
      </trkpt>
      <trkpt lat="44.74697" lon="5.40854">
        <ele>852.83</ele>
        <time>2019-03-28T12:39:10Z</time>
      </trkpt>
      <trkpt lat="44.74687" lon="5.40859">
        <ele>851.38</ele>
        <time>2019-03-28T12:39:21Z</time>
      </trkpt>
      <trkpt lat="44.74678" lon="5.4087">
        <ele>849.94</ele>
        <time>2019-03-28T12:39:34Z</time>
      </trkpt>
      <trkpt lat="44.74669" lon="5.40881">
        <ele>848.02</ele>
        <time>2019-03-28T12:39:46Z</time>
      </trkpt>
      <trkpt lat="44.74659" lon="5.40892">
        <ele>846.58</ele>
        <time>2019-03-28T12:39:57Z</time>
      </trkpt>
      <trkpt lat="44.74651" lon="5.40901">
        <ele>845.14</ele>
        <time>2019-03-28T12:40:09Z</time>
      </trkpt>
      <trkpt lat="44.74642" lon="5.40915">
        <ele>842.73</ele>
        <time>2019-03-28T12:40:22Z</time>
      </trkpt>
      <trkpt lat="44.74628" lon="5.40929">
        <ele>841.29</ele>
        <time>2019-03-28T12:40:36Z</time>
      </trkpt>
      <trkpt lat="44.74619" lon="5.4094">
        <ele>838.89</ele>
        <time>2019-03-28T12:40:49Z</time>
      </trkpt>
      <trkpt lat="44.74611" lon="5.40949">
        <ele>837.45</ele>
        <time>2019-03-28T12:41:00Z</time>
      </trkpt>
      <trkpt lat="44.74596" lon="5.40958">
        <ele>835.52</ele>
        <time>2019-03-28T12:41:11Z</time>
      </trkpt>
      <trkpt lat="44.74586" lon="5.40964">
        <ele>834.08</ele>
        <time>2019-03-28T12:41:19Z</time>
      </trkpt>
      <trkpt lat="44.74579" lon="5.40971">
        <ele>833.12</ele>
        <time>2019-03-28T12:41:29Z</time>
      </trkpt>
      <trkpt lat="44.74577" lon="5.40974">
        <ele>832.16</ele>
        <time>2019-03-28T12:41:33Z</time>
      </trkpt>
      <trkpt lat="44.74573" lon="5.40976">
        <ele>831.68</ele>
        <time>2019-03-28T12:41:35Z</time>
      </trkpt>
      <trkpt lat="44.74561" lon="5.40987">
        <ele>830.24</ele>
        <time>2019-03-28T12:41:45Z</time>
      </trkpt>
      <trkpt lat="44.74558" lon="5.40992">
        <ele>829.76</ele>
        <time>2019-03-28T12:41:51Z</time>
      </trkpt>
      <trkpt lat="44.74555" lon="5.41">
        <ele>827.35</ele>
        <time>2019-03-28T12:42:00Z</time>
      </trkpt>
      <trkpt lat="44.74549" lon="5.41009">
        <ele>826.39</ele>
        <time>2019-03-28T12:42:09Z</time>
      </trkpt>
      <trkpt lat="44.74542" lon="5.41019">
        <ele>824.95</ele>
        <time>2019-03-28T12:42:21Z</time>
      </trkpt>
      <trkpt lat="44.7453" lon="5.41022">
        <ele>823.03</ele>
        <time>2019-03-28T12:42:32Z</time>
      </trkpt>
      <trkpt lat="44.74521" lon="5.41026">
        <ele>821.58</ele>
        <time>2019-03-28T12:42:43Z</time>
      </trkpt>
      <trkpt lat="44.74511" lon="5.4103">
        <ele>820.14</ele>
        <time>2019-03-28T12:42:52Z</time>
      </trkpt>
      <trkpt lat="44.74503" lon="5.41036">
        <ele>819.18</ele>
        <time>2019-03-28T12:43:00Z</time>
      </trkpt>
      <trkpt lat="44.74498" lon="5.41039">
        <ele>818.22</ele>
        <time>2019-03-28T12:43:06Z</time>
      </trkpt>
      <trkpt lat="44.74493" lon="5.41046">
        <ele>816.78</ele>
        <time>2019-03-28T12:43:16Z</time>
      </trkpt>
      <trkpt lat="44.74486" lon="5.41055">
        <ele>815.34</ele>
        <time>2019-03-28T12:43:28Z</time>
      </trkpt>
      <trkpt lat="44.74482" lon="5.41069">
        <ele>812.93</ele>
        <time>2019-03-28T12:43:39Z</time>
      </trkpt>
      <trkpt lat="44.7448" lon="5.41075">
        <ele>812.45</ele>
        <time>2019-03-28T12:43:44Z</time>
      </trkpt>
      <trkpt lat="44.74474" lon="5.41088">
        <ele>811.49</ele>
        <time>2019-03-28T12:43:56Z</time>
      </trkpt>
      <trkpt lat="44.74471" lon="5.41096">
        <ele>810.05</ele>
        <time>2019-03-28T12:44:05Z</time>
      </trkpt>
      <trkpt lat="44.74467" lon="5.4111">
        <ele>808.13</ele>
        <time>2019-03-28T12:44:16Z</time>
      </trkpt>
      <trkpt lat="44.74463" lon="5.41125">
        <ele>807.16</ele>
        <time>2019-03-28T12:44:27Z</time>
      </trkpt>
      <trkpt lat="44.74456" lon="5.41137">
        <ele>805.72</ele>
        <time>2019-03-28T12:44:37Z</time>
      </trkpt>
      <trkpt lat="44.74453" lon="5.41145">
        <ele>805.24</ele>
        <time>2019-03-28T12:44:48Z</time>
      </trkpt>
      <trkpt lat="44.74453" lon="5.41149">
        <ele>804.76</ele>
        <time>2019-03-28T12:45:02Z</time>
      </trkpt>
      <trkpt lat="44.74453" lon="5.4115">
        <ele>804.28</ele>
        <time>2019-03-28T12:45:14Z</time>
      </trkpt>
      <trkpt lat="44.7445" lon="5.4115">
        <ele>805.24</ele>
        <time>2019-03-28T12:45:29Z</time>
      </trkpt>
      <trkpt lat="44.7445" lon="5.41151">
        <ele>804.76</ele>
        <time>2019-03-28T12:45:41Z</time>
      </trkpt>
      <trkpt lat="44.7445" lon="5.41151">
        <ele>805.24</ele>
        <time>2019-03-28T12:45:55Z</time>
      </trkpt>
      <trkpt lat="44.74451" lon="5.41151">
        <ele>805.24</ele>
        <time>2019-03-28T12:46:11Z</time>
      </trkpt>
      <trkpt lat="44.74451" lon="5.41151">
        <ele>804.76</ele>
        <time>2019-03-28T12:46:32Z</time>
      </trkpt>
      <trkpt lat="44.7445" lon="5.41152">
        <ele>803.8</ele>
        <time>2019-03-28T12:46:44Z</time>
      </trkpt>
      <trkpt lat="44.7445" lon="5.41153">
        <ele>803.8</ele>
        <time>2019-03-28T12:47:12Z</time>
      </trkpt>
      <trkpt lat="44.74451" lon="5.41154">
        <ele>803.8</ele>
        <time>2019-03-28T12:47:38Z</time>
      </trkpt>
      <trkpt lat="44.7445" lon="5.41155">
        <ele>804.76</ele>
        <time>2019-03-28T12:48:08Z</time>
      </trkpt>
      <trkpt lat="44.7445" lon="5.41155">
        <ele>803.8</ele>
        <time>2019-03-28T12:48:36Z</time>
      </trkpt>
      <trkpt lat="44.7445" lon="5.41155">
        <ele>802.84</ele>
        <time>2019-03-28T12:48:42Z</time>
      </trkpt>
      <trkpt lat="44.7445" lon="5.41155">
        <ele>807.16</ele>
        <time>2019-03-28T12:49:04Z</time>
      </trkpt>
      <trkpt lat="44.7445" lon="5.41155">
        <ele>804.28</ele>
        <time>2019-03-28T12:49:05Z</time>
      </trkpt>
      <trkpt lat="44.74451" lon="5.41155">
        <ele>802.84</ele>
        <time>2019-03-28T12:49:27Z</time>
      </trkpt>
      <trkpt lat="44.74451" lon="5.41155">
        <ele>806.68</ele>
        <time>2019-03-28T12:49:28Z</time>
      </trkpt>
      <trkpt lat="44.74451" lon="5.41155">
        <ele>804.76</ele>
        <time>2019-03-28T12:49:29Z</time>
      </trkpt>
      <trkpt lat="44.7445" lon="5.41155">
        <ele>804.76</ele>
        <time>2019-03-28T12:49:54Z</time>
      </trkpt>
      <trkpt lat="44.7445" lon="5.41155">
        <ele>804.76</ele>
        <time>2019-03-28T12:50:17Z</time>
      </trkpt>
      <trkpt lat="44.7445" lon="5.41155">
        <ele>805.24</ele>
        <time>2019-03-28T12:50:42Z</time>
      </trkpt>
      <trkpt lat="44.7445" lon="5.41156">
        <ele>805.24</ele>
        <time>2019-03-28T12:50:55Z</time>
      </trkpt>
      <trkpt lat="44.7445" lon="5.41155">
        <ele>801.88</ele>
        <time>2019-03-28T12:51:07Z</time>
      </trkpt>
      <trkpt lat="44.7445" lon="5.41155">
        <ele>806.2</ele>
        <time>2019-03-28T12:51:08Z</time>
      </trkpt>
      <trkpt lat="44.7445" lon="5.41155">
        <ele>805.72</ele>
        <time>2019-03-28T12:51:09Z</time>
      </trkpt>
      <trkpt lat="44.7445" lon="5.41155">
        <ele>805.72</ele>
        <time>2019-03-28T12:51:24Z</time>
      </trkpt>
      <trkpt lat="44.7445" lon="5.41157">
        <ele>805.72</ele>
        <time>2019-03-28T12:51:42Z</time>
      </trkpt>
      <trkpt lat="44.74448" lon="5.41172">
        <ele>804.76</ele>
        <time>2019-03-28T12:51:57Z</time>
      </trkpt>
      <trkpt lat="44.74447" lon="5.41173">
        <ele>804.28</ele>
        <time>2019-03-28T12:51:58Z</time>
      </trkpt>
      <trkpt lat="44.74447" lon="5.41176">
        <ele>803.32</ele>
        <time>2019-03-28T12:52:00Z</time>
      </trkpt>
      <trkpt lat="44.74442" lon="5.41189">
        <ele>801.88</ele>
        <time>2019-03-28T12:52:12Z</time>
      </trkpt>
      <trkpt lat="44.74442" lon="5.4119">
        <ele>802.36</ele>
        <time>2019-03-28T12:52:13Z</time>
      </trkpt>
      <trkpt lat="44.74439" lon="5.41203">
        <ele>801.88</ele>
        <time>2019-03-28T12:52:24Z</time>
      </trkpt>
      <trkpt lat="44.74435" lon="5.41215">
        <ele>799.95</ele>
        <time>2019-03-28T12:52:34Z</time>
      </trkpt>
      <trkpt lat="44.74435" lon="5.41221">
        <ele>798.99</ele>
        <time>2019-03-28T12:52:41Z</time>
      </trkpt>
      <trkpt lat="44.74434" lon="5.41229">
        <ele>798.03</ele>
        <time>2019-03-28T12:52:47Z</time>
      </trkpt>
      <trkpt lat="44.74431" lon="5.41245">
        <ele>798.03</ele>
        <time>2019-03-28T12:53:00Z</time>
      </trkpt>
      <trkpt lat="44.74427" lon="5.41258">
        <ele>797.07</ele>
        <time>2019-03-28T12:53:12Z</time>
      </trkpt>
      <trkpt lat="44.74424" lon="5.41271">
        <ele>795.63</ele>
        <time>2019-03-28T12:53:22Z</time>
      </trkpt>
      <trkpt lat="44.74423" lon="5.4128">
        <ele>794.67</ele>
        <time>2019-03-28T12:53:28Z</time>
      </trkpt>
      <trkpt lat="44.74422" lon="5.41285">
        <ele>794.67</ele>
        <time>2019-03-28T12:53:32Z</time>
      </trkpt>
      <trkpt lat="44.74422" lon="5.41301">
        <ele>793.22</ele>
        <time>2019-03-28T12:53:42Z</time>
      </trkpt>
      <trkpt lat="44.7442" lon="5.41316">
        <ele>792.26</ele>
        <time>2019-03-28T12:53:54Z</time>
      </trkpt>
      <trkpt lat="44.74419" lon="5.41335">
        <ele>790.82</ele>
        <time>2019-03-28T12:54:06Z</time>
      </trkpt>
      <trkpt lat="44.74419" lon="5.41336">
        <ele>791.3</ele>
        <time>2019-03-28T12:54:07Z</time>
      </trkpt>
      <trkpt lat="44.74416" lon="5.41353">
        <ele>790.82</ele>
        <time>2019-03-28T12:54:19Z</time>
      </trkpt>
      <trkpt lat="44.74415" lon="5.41366">
        <ele>789.86</ele>
        <time>2019-03-28T12:54:27Z</time>
      </trkpt>
      <trkpt lat="44.74414" lon="5.41383">
        <ele>788.42</ele>
        <time>2019-03-28T12:54:39Z</time>
      </trkpt>
      <trkpt lat="44.74411" lon="5.41401">
        <ele>787.46</ele>
        <time>2019-03-28T12:54:53Z</time>
      </trkpt>
      <trkpt lat="44.74408" lon="5.41417">
        <ele>786.5</ele>
        <time>2019-03-28T12:55:04Z</time>
      </trkpt>
      <trkpt lat="44.74406" lon="5.41439">
        <ele>784.09</ele>
        <time>2019-03-28T12:55:18Z</time>
      </trkpt>
      <trkpt lat="44.74406" lon="5.41456">
        <ele>782.17</ele>
        <time>2019-03-28T12:55:28Z</time>
      </trkpt>
      <trkpt lat="44.744" lon="5.41467">
        <ele>781.21</ele>
        <time>2019-03-28T12:55:38Z</time>
      </trkpt>
      <trkpt lat="44.74395" lon="5.41481">
        <ele>779.29</ele>
        <time>2019-03-28T12:55:49Z</time>
      </trkpt>
      <trkpt lat="44.74395" lon="5.41482">
        <ele>779.29</ele>
        <time>2019-03-28T12:55:50Z</time>
      </trkpt>
      <trkpt lat="44.74388" lon="5.41491">
        <ele>778.81</ele>
        <time>2019-03-28T12:56:02Z</time>
      </trkpt>
      <trkpt lat="44.74384" lon="5.41487">
        <ele>776.88</ele>
        <time>2019-03-28T12:56:06Z</time>
      </trkpt>
      <trkpt lat="44.7438" lon="5.4148">
        <ele>776.4</ele>
        <time>2019-03-28T12:56:13Z</time>
      </trkpt>
      <trkpt lat="44.7438" lon="5.41477">
        <ele>776.4</ele>
        <time>2019-03-28T12:56:15Z</time>
      </trkpt>
      <trkpt lat="44.74375" lon="5.41464">
        <ele>773.52</ele>
        <time>2019-03-28T12:56:26Z</time>
      </trkpt>
      <trkpt lat="44.74374" lon="5.41448">
        <ele>772.56</ele>
        <time>2019-03-28T12:56:36Z</time>
      </trkpt>
      <trkpt lat="44.74374" lon="5.41437">
        <ele>771.11</ele>
        <time>2019-03-28T12:56:43Z</time>
      </trkpt>
      <trkpt lat="44.74373" lon="5.41424">
        <ele>769.67</ele>
        <time>2019-03-28T12:56:53Z</time>
      </trkpt>
      <trkpt lat="44.7437" lon="5.41413">
        <ele>767.75</ele>
        <time>2019-03-28T12:57:03Z</time>
      </trkpt>
      <trkpt lat="44.74369" lon="5.41403">
        <ele>768.23</ele>
        <time>2019-03-28T12:57:10Z</time>
      </trkpt>
      <trkpt lat="44.74367" lon="5.41399">
        <ele>768.23</ele>
        <time>2019-03-28T12:57:13Z</time>
      </trkpt>
      <trkpt lat="44.74366" lon="5.41386">
        <ele>766.31</ele>
        <time>2019-03-28T12:57:22Z</time>
      </trkpt>
      <trkpt lat="44.74366" lon="5.41377">
        <ele>764.87</ele>
        <time>2019-03-28T12:57:31Z</time>
      </trkpt>
      <trkpt lat="44.74365" lon="5.41369">
        <ele>765.35</ele>
        <time>2019-03-28T12:57:39Z</time>
      </trkpt>
      <trkpt lat="44.74364" lon="5.41363">
        <ele>763.9</ele>
        <time>2019-03-28T12:57:45Z</time>
      </trkpt>
      <trkpt lat="44.74364" lon="5.41349">
        <ele>762.46</ele>
        <time>2019-03-28T12:57:55Z</time>
      </trkpt>
      <trkpt lat="44.74366" lon="5.41344">
        <ele>762.46</ele>
        <time>2019-03-28T12:57:58Z</time>
      </trkpt>
      <trkpt lat="44.74364" lon="5.41342">
        <ele>761.98</ele>
        <time>2019-03-28T12:58:00Z</time>
      </trkpt>
      <trkpt lat="44.74364" lon="5.41332">
        <ele>761.02</ele>
        <time>2019-03-28T12:58:09Z</time>
      </trkpt>
      <trkpt lat="44.74364" lon="5.41321">
        <ele>760.54</ele>
        <time>2019-03-28T12:58:18Z</time>
      </trkpt>
      <trkpt lat="44.74362" lon="5.41308">
        <ele>759.58</ele>
        <time>2019-03-28T12:58:28Z</time>
      </trkpt>
      <trkpt lat="44.74359" lon="5.41298">
        <ele>758.62</ele>
        <time>2019-03-28T12:58:37Z</time>
      </trkpt>
      <trkpt lat="44.7436" lon="5.41284">
        <ele>756.69</ele>
        <time>2019-03-28T12:58:47Z</time>
      </trkpt>
      <trkpt lat="44.74361" lon="5.41268">
        <ele>755.73</ele>
        <time>2019-03-28T12:58:58Z</time>
      </trkpt>
      <trkpt lat="44.74362" lon="5.41257">
        <ele>754.77</ele>
        <time>2019-03-28T12:59:07Z</time>
      </trkpt>
      <trkpt lat="44.74361" lon="5.41248">
        <ele>754.29</ele>
        <time>2019-03-28T12:59:16Z</time>
      </trkpt>
      <trkpt lat="44.74361" lon="5.41248">
        <ele>753.33</ele>
        <time>2019-03-28T12:59:27Z</time>
      </trkpt>
      <trkpt lat="44.7436" lon="5.41247">
        <ele>753.33</ele>
        <time>2019-03-28T12:59:33Z</time>
      </trkpt>
      <trkpt lat="44.74358" lon="5.41245">
        <ele>754.77</ele>
        <time>2019-03-28T12:59:36Z</time>
      </trkpt>
      <trkpt lat="44.74356" lon="5.41241">
        <ele>753.33</ele>
        <time>2019-03-28T12:59:39Z</time>
      </trkpt>
      <trkpt lat="44.74354" lon="5.41232">
        <ele>752.85</ele>
        <time>2019-03-28T12:59:47Z</time>
      </trkpt>
      <trkpt lat="44.74352" lon="5.41222">
        <ele>751.89</ele>
        <time>2019-03-28T12:59:56Z</time>
      </trkpt>
      <trkpt lat="44.7435" lon="5.41205">
        <ele>750.93</ele>
        <time>2019-03-28T13:00:06Z</time>
      </trkpt>
      <trkpt lat="44.74353" lon="5.41189">
        <ele>749</ele>
        <time>2019-03-28T13:00:17Z</time>
      </trkpt>
      <trkpt lat="44.74355" lon="5.41175">
        <ele>748.52</ele>
        <time>2019-03-28T13:00:26Z</time>
      </trkpt>
      <trkpt lat="44.74356" lon="5.41165">
        <ele>747.08</ele>
        <time>2019-03-28T13:00:34Z</time>
      </trkpt>
      <trkpt lat="44.74358" lon="5.41155">
        <ele>745.64</ele>
        <time>2019-03-28T13:00:42Z</time>
      </trkpt>
      <trkpt lat="44.74357" lon="5.41153">
        <ele>745.64</ele>
        <time>2019-03-28T13:00:43Z</time>
      </trkpt>
      <trkpt lat="44.74355" lon="5.41147">
        <ele>745.64</ele>
        <time>2019-03-28T13:00:49Z</time>
      </trkpt>
      <trkpt lat="44.74355" lon="5.41134">
        <ele>744.68</ele>
        <time>2019-03-28T13:00:58Z</time>
      </trkpt>
      <trkpt lat="44.74352" lon="5.41121">
        <ele>744.2</ele>
        <time>2019-03-28T13:01:07Z</time>
      </trkpt>
      <trkpt lat="44.74351" lon="5.41107">
        <ele>742.28</ele>
        <time>2019-03-28T13:01:16Z</time>
      </trkpt>
      <trkpt lat="44.7435" lon="5.41104">
        <ele>742.76</ele>
        <time>2019-03-28T13:01:18Z</time>
      </trkpt>
      <trkpt lat="44.74348" lon="5.41094">
        <ele>741.79</ele>
        <time>2019-03-28T13:01:26Z</time>
      </trkpt>
      <trkpt lat="44.74347" lon="5.41081">
        <ele>740.83</ele>
        <time>2019-03-28T13:01:35Z</time>
      </trkpt>
      <trkpt lat="44.74349" lon="5.41074">
        <ele>739.87</ele>
        <time>2019-03-28T13:01:39Z</time>
      </trkpt>
      <trkpt lat="44.7435" lon="5.41055">
        <ele>737.95</ele>
        <time>2019-03-28T13:01:51Z</time>
      </trkpt>
      <trkpt lat="44.74355" lon="5.41044">
        <ele>737.47</ele>
        <time>2019-03-28T13:01:58Z</time>
      </trkpt>
      <trkpt lat="44.74355" lon="5.41039">
        <ele>737.47</ele>
        <time>2019-03-28T13:02:06Z</time>
      </trkpt>
      <trkpt lat="44.74354" lon="5.41038">
        <ele>736.99</ele>
        <time>2019-03-28T13:02:10Z</time>
      </trkpt>
      <trkpt lat="44.74351" lon="5.41034">
        <ele>737.95</ele>
        <time>2019-03-28T13:02:14Z</time>
      </trkpt>
      <trkpt lat="44.74346" lon="5.41019">
        <ele>735.55</ele>
        <time>2019-03-28T13:02:25Z</time>
      </trkpt>
      <trkpt lat="44.74344" lon="5.41015">
        <ele>735.07</ele>
        <time>2019-03-28T13:02:28Z</time>
      </trkpt>
      <trkpt lat="44.74338" lon="5.41005">
        <ele>734.1</ele>
        <time>2019-03-28T13:02:37Z</time>
      </trkpt>
      <trkpt lat="44.74335" lon="5.40994">
        <ele>732.66</ele>
        <time>2019-03-28T13:02:47Z</time>
      </trkpt>
      <trkpt lat="44.7433" lon="5.40984">
        <ele>732.18</ele>
        <time>2019-03-28T13:02:55Z</time>
      </trkpt>
      <trkpt lat="44.74324" lon="5.40975">
        <ele>729.78</ele>
        <time>2019-03-28T13:03:04Z</time>
      </trkpt>
      <trkpt lat="44.74325" lon="5.40968">
        <ele>731.22</ele>
        <time>2019-03-28T13:03:11Z</time>
      </trkpt>
      <trkpt lat="44.74328" lon="5.40962">
        <ele>730.74</ele>
        <time>2019-03-28T13:03:15Z</time>
      </trkpt>
      <trkpt lat="44.74332" lon="5.40951">
        <ele>727.37</ele>
        <time>2019-03-28T13:03:22Z</time>
      </trkpt>
      <trkpt lat="44.74338" lon="5.40934">
        <ele>727.37</ele>
        <time>2019-03-28T13:03:32Z</time>
      </trkpt>
      <trkpt lat="44.74342" lon="5.40923">
        <ele>726.41</ele>
        <time>2019-03-28T13:03:40Z</time>
      </trkpt>
      <trkpt lat="44.74345" lon="5.40922">
        <ele>724.97</ele>
        <time>2019-03-28T13:03:42Z</time>
      </trkpt>
      <trkpt lat="44.74351" lon="5.40912">
        <ele>724.49</ele>
        <time>2019-03-28T13:03:50Z</time>
      </trkpt>
      <trkpt lat="44.74356" lon="5.409">
        <ele>722.57</ele>
        <time>2019-03-28T13:03:58Z</time>
      </trkpt>
      <trkpt lat="44.7436" lon="5.40893">
        <ele>722.57</ele>
        <time>2019-03-28T13:04:06Z</time>
      </trkpt>
      <trkpt lat="44.74364" lon="5.40883">
        <ele>721.13</ele>
        <time>2019-03-28T13:04:14Z</time>
      </trkpt>
      <trkpt lat="44.74366" lon="5.40879">
        <ele>721.13</ele>
        <time>2019-03-28T13:04:16Z</time>
      </trkpt>
      <trkpt lat="44.74371" lon="5.40871">
        <ele>720.16</ele>
        <time>2019-03-28T13:04:21Z</time>
      </trkpt>
      <trkpt lat="44.74373" lon="5.40868">
        <ele>720.16</ele>
        <time>2019-03-28T13:04:24Z</time>
      </trkpt>
      <trkpt lat="44.74377" lon="5.4086">
        <ele>719.68</ele>
        <time>2019-03-28T13:04:30Z</time>
      </trkpt>
      <trkpt lat="44.74382" lon="5.40853">
        <ele>719.2</ele>
        <time>2019-03-28T13:04:36Z</time>
      </trkpt>
      <trkpt lat="44.74388" lon="5.40848">
        <ele>717.76</ele>
        <time>2019-03-28T13:04:44Z</time>
      </trkpt>
      <trkpt lat="44.74391" lon="5.40848">
        <ele>717.28</ele>
        <time>2019-03-28T13:04:46Z</time>
      </trkpt>
      <trkpt lat="44.74397" lon="5.40839">
        <ele>715.84</ele>
        <time>2019-03-28T13:04:57Z</time>
      </trkpt>
      <trkpt lat="44.74397" lon="5.40838">
        <ele>715.36</ele>
        <time>2019-03-28T13:04:58Z</time>
      </trkpt>
      <trkpt lat="44.744" lon="5.40825">
        <ele>715.36</ele>
        <time>2019-03-28T13:05:07Z</time>
      </trkpt>
      <trkpt lat="44.74404" lon="5.40812">
        <ele>713.92</ele>
        <time>2019-03-28T13:05:16Z</time>
      </trkpt>
      <trkpt lat="44.74406" lon="5.40802">
        <ele>713.44</ele>
        <time>2019-03-28T13:05:25Z</time>
      </trkpt>
      <trkpt lat="44.74413" lon="5.40791">
        <ele>712.47</ele>
        <time>2019-03-28T13:05:35Z</time>
      </trkpt>
      <trkpt lat="44.74417" lon="5.40785">
        <ele>711.99</ele>
        <time>2019-03-28T13:05:39Z</time>
      </trkpt>
      <trkpt lat="44.74423" lon="5.40776">
        <ele>711.03</ele>
        <time>2019-03-28T13:05:49Z</time>
      </trkpt>
      <trkpt lat="44.74423" lon="5.40775">
        <ele>710.55</ele>
        <time>2019-03-28T13:05:51Z</time>
      </trkpt>
      <trkpt lat="44.74424" lon="5.40767">
        <ele>709.59</ele>
        <time>2019-03-28T13:06:00Z</time>
      </trkpt>
      <trkpt lat="44.74424" lon="5.40764">
        <ele>709.59</ele>
        <time>2019-03-28T13:06:03Z</time>
      </trkpt>
      <trkpt lat="44.74423" lon="5.4076">
        <ele>708.63</ele>
        <time>2019-03-28T13:06:13Z</time>
      </trkpt>
      <trkpt lat="44.74424" lon="5.40759">
        <ele>707.67</ele>
        <time>2019-03-28T13:06:26Z</time>
      </trkpt>
      <trkpt lat="44.74425" lon="5.4076">
        <ele>706.23</ele>
        <time>2019-03-28T13:06:36Z</time>
      </trkpt>
      <trkpt lat="44.74426" lon="5.40755">
        <ele>705.26</ele>
        <time>2019-03-28T13:06:46Z</time>
      </trkpt>
      <trkpt lat="44.74427" lon="5.40752">
        <ele>705.75</ele>
        <time>2019-03-28T13:07:05Z</time>
      </trkpt>
      <trkpt lat="44.74427" lon="5.40752">
        <ele>706.23</ele>
        <time>2019-03-28T13:07:31Z</time>
      </trkpt>
      <trkpt lat="44.74427" lon="5.40752">
        <ele>706.71</ele>
        <time>2019-03-28T13:07:56Z</time>
      </trkpt>
      <trkpt lat="44.74427" lon="5.40751">
        <ele>706.71</ele>
        <time>2019-03-28T13:08:21Z</time>
      </trkpt>
      <trkpt lat="44.74426" lon="5.40753">
        <ele>707.19</ele>
        <time>2019-03-28T13:08:42Z</time>
      </trkpt>
      <trkpt lat="44.74426" lon="5.40754">
        <ele>707.67</ele>
        <time>2019-03-28T13:09:08Z</time>
      </trkpt>
      <trkpt lat="44.74427" lon="5.40753">
        <ele>707.67</ele>
        <time>2019-03-28T13:09:32Z</time>
      </trkpt>
      <trkpt lat="44.74426" lon="5.40753">
        <ele>708.15</ele>
        <time>2019-03-28T13:09:55Z</time>
      </trkpt>
      <trkpt lat="44.74426" lon="5.40753">
        <ele>707.67</ele>
        <time>2019-03-28T13:10:15Z</time>
      </trkpt>
      <trkpt lat="44.74425" lon="5.40753">
        <ele>708.15</ele>
        <time>2019-03-28T13:10:38Z</time>
      </trkpt>
      <trkpt lat="44.74425" lon="5.40753">
        <ele>708.63</ele>
        <time>2019-03-28T13:11:02Z</time>
      </trkpt>
      <trkpt lat="44.74424" lon="5.40754">
        <ele>708.63</ele>
        <time>2019-03-28T13:11:26Z</time>
      </trkpt>
      <trkpt lat="44.74425" lon="5.40755">
        <ele>708.63</ele>
        <time>2019-03-28T13:11:48Z</time>
      </trkpt>
      <trkpt lat="44.74425" lon="5.40754">
        <ele>711.51</ele>
        <time>2019-03-28T13:12:01Z</time>
      </trkpt>
      <trkpt lat="44.74424" lon="5.40753">
        <ele>710.07</ele>
        <time>2019-03-28T13:12:10Z</time>
      </trkpt>
      <trkpt lat="44.74424" lon="5.40754">
        <ele>711.51</ele>
        <time>2019-03-28T13:12:21Z</time>
      </trkpt>
      <trkpt lat="44.74423" lon="5.40751">
        <ele>712.47</ele>
        <time>2019-03-28T13:12:29Z</time>
      </trkpt>
      <trkpt lat="44.74422" lon="5.40748">
        <ele>711.51</ele>
        <time>2019-03-28T13:12:32Z</time>
      </trkpt>
      <trkpt lat="44.74426" lon="5.40729">
        <ele>710.55</ele>
        <time>2019-03-28T13:12:44Z</time>
      </trkpt>
      <trkpt lat="44.74427" lon="5.4072">
        <ele>709.11</ele>
        <time>2019-03-28T13:12:47Z</time>
      </trkpt>
      <trkpt lat="44.74433" lon="5.40703">
        <ele>708.63</ele>
        <time>2019-03-28T13:12:55Z</time>
      </trkpt>
      <trkpt lat="44.74439" lon="5.40693">
        <ele>707.19</ele>
        <time>2019-03-28T13:13:02Z</time>
      </trkpt>
      <trkpt lat="44.74437" lon="5.40682">
        <ele>707.19</ele>
        <time>2019-03-28T13:13:08Z</time>
      </trkpt>
      <trkpt lat="44.74434" lon="5.40668">
        <ele>706.23</ele>
        <time>2019-03-28T13:13:17Z</time>
      </trkpt>
      <trkpt lat="44.74431" lon="5.40662">
        <ele>704.3</ele>
        <time>2019-03-28T13:13:20Z</time>
      </trkpt>
      <trkpt lat="44.74425" lon="5.40647">
        <ele>703.34</ele>
        <time>2019-03-28T13:13:28Z</time>
      </trkpt>
      <trkpt lat="44.74421" lon="5.40634">
        <ele>701.42</ele>
        <time>2019-03-28T13:13:36Z</time>
      </trkpt>
      <trkpt lat="44.74422" lon="5.40635">
        <ele>701.42</ele>
        <time>2019-03-28T13:13:37Z</time>
      </trkpt>
      <trkpt lat="44.7443" lon="5.40646">
        <ele>699.98</ele>
        <time>2019-03-28T13:13:43Z</time>
      </trkpt>
      <trkpt lat="44.7443" lon="5.40664">
        <ele>697.57</ele>
        <time>2019-03-28T13:13:54Z</time>
      </trkpt>
      <trkpt lat="44.74432" lon="5.4067">
        <ele>696.61</ele>
        <time>2019-03-28T13:13:57Z</time>
      </trkpt>
      <trkpt lat="44.74431" lon="5.40675">
        <ele>696.61</ele>
        <time>2019-03-28T13:13:59Z</time>
      </trkpt>
      <trkpt lat="44.74425" lon="5.40693">
        <ele>694.21</ele>
        <time>2019-03-28T13:14:10Z</time>
      </trkpt>
      <trkpt lat="44.74422" lon="5.4071">
        <ele>690.36</ele>
        <time>2019-03-28T13:14:18Z</time>
      </trkpt>
      <trkpt lat="44.74421" lon="5.40712">
        <ele>691.81</ele>
        <time>2019-03-28T13:14:19Z</time>
      </trkpt>
      <trkpt lat="44.74419" lon="5.40716">
        <ele>693.25</ele>
        <time>2019-03-28T13:14:21Z</time>
      </trkpt>
      <trkpt lat="44.744" lon="5.40717">
        <ele>691.81</ele>
        <time>2019-03-28T13:14:30Z</time>
      </trkpt>
      <trkpt lat="44.74398" lon="5.40717">
        <ele>690.84</ele>
        <time>2019-03-28T13:14:31Z</time>
      </trkpt>
      <trkpt lat="44.74387" lon="5.40729">
        <ele>688.44</ele>
        <time>2019-03-28T13:14:42Z</time>
      </trkpt>
      <trkpt lat="44.7438" lon="5.40742">
        <ele>686.52</ele>
        <time>2019-03-28T13:14:51Z</time>
      </trkpt>
      <trkpt lat="44.74367" lon="5.40746">
        <ele>683.63</ele>
        <time>2019-03-28T13:14:59Z</time>
      </trkpt>
      <trkpt lat="44.74362" lon="5.4075">
        <ele>683.15</ele>
        <time>2019-03-28T13:15:03Z</time>
      </trkpt>
      <trkpt lat="44.74348" lon="5.40753">
        <ele>680.27</ele>
        <time>2019-03-28T13:15:12Z</time>
      </trkpt>
      <trkpt lat="44.74341" lon="5.40756">
        <ele>679.31</ele>
        <time>2019-03-28T13:15:18Z</time>
      </trkpt>
      <trkpt lat="44.74338" lon="5.4076">
        <ele>678.35</ele>
        <time>2019-03-28T13:15:21Z</time>
      </trkpt>
      <trkpt lat="44.74336" lon="5.40769">
        <ele>676.91</ele>
        <time>2019-03-28T13:15:27Z</time>
      </trkpt>
      <trkpt lat="44.74332" lon="5.40777">
        <ele>676.91</ele>
        <time>2019-03-28T13:15:32Z</time>
      </trkpt>
      <trkpt lat="44.74318" lon="5.40774">
        <ele>675.46</ele>
        <time>2019-03-28T13:15:41Z</time>
      </trkpt>
      <trkpt lat="44.74318" lon="5.40775">
        <ele>675.46</ele>
        <time>2019-03-28T13:15:42Z</time>
      </trkpt>
      <trkpt lat="44.74313" lon="5.40779">
        <ele>674.98</ele>
        <time>2019-03-28T13:15:48Z</time>
      </trkpt>
      <trkpt lat="44.74303" lon="5.4078">
        <ele>673.06</ele>
        <time>2019-03-28T13:15:55Z</time>
      </trkpt>
      <trkpt lat="44.74297" lon="5.40786">
        <ele>672.1</ele>
        <time>2019-03-28T13:16:00Z</time>
      </trkpt>
      <trkpt lat="44.74286" lon="5.40788">
        <ele>670.18</ele>
        <time>2019-03-28T13:16:08Z</time>
      </trkpt>
      <trkpt lat="44.74286" lon="5.40784">
        <ele>669.7</ele>
        <time>2019-03-28T13:16:11Z</time>
      </trkpt>
      <trkpt lat="44.74287" lon="5.40779">
        <ele>669.22</ele>
        <time>2019-03-28T13:16:14Z</time>
      </trkpt>
      <trkpt lat="44.74292" lon="5.40774">
        <ele>667.77</ele>
        <time>2019-03-28T13:16:19Z</time>
      </trkpt>
      <trkpt lat="44.74296" lon="5.40769">
        <ele>668.73</ele>
        <time>2019-03-28T13:16:23Z</time>
      </trkpt>
      <trkpt lat="44.74296" lon="5.40764">
        <ele>666.81</ele>
        <time>2019-03-28T13:16:26Z</time>
      </trkpt>
      <trkpt lat="44.743" lon="5.40759">
        <ele>666.33</ele>
        <time>2019-03-28T13:16:31Z</time>
      </trkpt>
      <trkpt lat="44.74307" lon="5.40755">
        <ele>665.85</ele>
        <time>2019-03-28T13:16:36Z</time>
      </trkpt>
      <trkpt lat="44.74308" lon="5.40752">
        <ele>665.37</ele>
        <time>2019-03-28T13:16:38Z</time>
      </trkpt>
      <trkpt lat="44.74317" lon="5.4075">
        <ele>663.93</ele>
        <time>2019-03-28T13:16:45Z</time>
      </trkpt>
      <trkpt lat="44.74321" lon="5.40749">
        <ele>663.93</ele>
        <time>2019-03-28T13:16:48Z</time>
      </trkpt>
      <trkpt lat="44.74321" lon="5.40747">
        <ele>663.45</ele>
        <time>2019-03-28T13:16:49Z</time>
      </trkpt>
      <trkpt lat="44.74322" lon="5.40743">
        <ele>663.45</ele>
        <time>2019-03-28T13:16:51Z</time>
      </trkpt>
      <trkpt lat="44.74323" lon="5.4074">
        <ele>662.97</ele>
        <time>2019-03-28T13:16:53Z</time>
      </trkpt>
      <trkpt lat="44.74322" lon="5.40731">
        <ele>661.04</ele>
        <time>2019-03-28T13:16:57Z</time>
      </trkpt>
      <trkpt lat="44.74329" lon="5.40713">
        <ele>659.12</ele>
        <time>2019-03-28T13:17:07Z</time>
      </trkpt>
      <trkpt lat="44.74329" lon="5.40713">
        <ele>659.6</ele>
        <time>2019-03-28T13:17:08Z</time>
      </trkpt>
      <trkpt lat="44.74336" lon="5.40712">
        <ele>658.64</ele>
        <time>2019-03-28T13:17:13Z</time>
      </trkpt>
      <trkpt lat="44.74343" lon="5.40707">
        <ele>657.68</ele>
        <time>2019-03-28T13:17:18Z</time>
      </trkpt>
      <trkpt lat="44.74346" lon="5.40704">
        <ele>656.72</ele>
        <time>2019-03-28T13:17:21Z</time>
      </trkpt>
      <trkpt lat="44.74356" lon="5.407">
        <ele>655.28</ele>
        <time>2019-03-28T13:17:29Z</time>
      </trkpt>
      <trkpt lat="44.74358" lon="5.40698">
        <ele>653.35</ele>
        <time>2019-03-28T13:17:31Z</time>
      </trkpt>
      <trkpt lat="44.74359" lon="5.40694">
        <ele>653.35</ele>
        <time>2019-03-28T13:17:34Z</time>
      </trkpt>
      <trkpt lat="44.74364" lon="5.40683">
        <ele>652.87</ele>
        <time>2019-03-28T13:17:44Z</time>
      </trkpt>
      <trkpt lat="44.74363" lon="5.40684">
        <ele>652.87</ele>
        <time>2019-03-28T13:17:46Z</time>
      </trkpt>
      <trkpt lat="44.74356" lon="5.40685">
        <ele>650.47</ele>
        <time>2019-03-28T13:17:54Z</time>
      </trkpt>
      <trkpt lat="44.7435" lon="5.40693">
        <ele>648.55</ele>
        <time>2019-03-28T13:18:01Z</time>
      </trkpt>
      <trkpt lat="44.7434" lon="5.40696">
        <ele>648.07</ele>
        <time>2019-03-28T13:18:09Z</time>
      </trkpt>
      <trkpt lat="44.74335" lon="5.40702">
        <ele>646.14</ele>
        <time>2019-03-28T13:18:15Z</time>
      </trkpt>
      <trkpt lat="44.74328" lon="5.40701">
        <ele>646.14</ele>
        <time>2019-03-28T13:18:19Z</time>
      </trkpt>
      <trkpt lat="44.74314" lon="5.40706">
        <ele>644.22</ele>
        <time>2019-03-28T13:18:31Z</time>
      </trkpt>
      <trkpt lat="44.74309" lon="5.40712">
        <ele>643.26</ele>
        <time>2019-03-28T13:18:37Z</time>
      </trkpt>
      <trkpt lat="44.74305" lon="5.4072">
        <ele>642.3</ele>
        <time>2019-03-28T13:18:42Z</time>
      </trkpt>
      <trkpt lat="44.74301" lon="5.40722">
        <ele>641.82</ele>
        <time>2019-03-28T13:18:45Z</time>
      </trkpt>
      <trkpt lat="44.74289" lon="5.4072">
        <ele>639.89</ele>
        <time>2019-03-28T13:18:54Z</time>
      </trkpt>
      <trkpt lat="44.74275" lon="5.40717">
        <ele>637.97</ele>
        <time>2019-03-28T13:19:05Z</time>
      </trkpt>
      <trkpt lat="44.74279" lon="5.4071">
        <ele>637.49</ele>
        <time>2019-03-28T13:19:09Z</time>
      </trkpt>
      <trkpt lat="44.74284" lon="5.40707">
        <ele>636.05</ele>
        <time>2019-03-28T13:19:13Z</time>
      </trkpt>
      <trkpt lat="44.74293" lon="5.40703">
        <ele>636.53</ele>
        <time>2019-03-28T13:19:21Z</time>
      </trkpt>
      <trkpt lat="44.743" lon="5.40693">
        <ele>634.61</ele>
        <time>2019-03-28T13:19:31Z</time>
      </trkpt>
      <trkpt lat="44.74302" lon="5.40689">
        <ele>634.61</ele>
        <time>2019-03-28T13:19:38Z</time>
      </trkpt>
      <trkpt lat="44.74303" lon="5.40684">
        <ele>632.68</ele>
        <time>2019-03-28T13:19:41Z</time>
      </trkpt>
      <trkpt lat="44.74309" lon="5.40678">
        <ele>631.72</ele>
        <time>2019-03-28T13:19:45Z</time>
      </trkpt>
      <trkpt lat="44.74314" lon="5.40675">
        <ele>631.72</ele>
        <time>2019-03-28T13:19:50Z</time>
      </trkpt>
      <trkpt lat="44.74327" lon="5.40663">
        <ele>630.28</ele>
        <time>2019-03-28T13:20:00Z</time>
      </trkpt>
      <trkpt lat="44.7433" lon="5.40659">
        <ele>629.32</ele>
        <time>2019-03-28T13:20:03Z</time>
      </trkpt>
      <trkpt lat="44.74333" lon="5.40656">
        <ele>626.92</ele>
        <time>2019-03-28T13:20:07Z</time>
      </trkpt>
      <trkpt lat="44.74333" lon="5.40651">
        <ele>628.36</ele>
        <time>2019-03-28T13:20:13Z</time>
      </trkpt>
      <trkpt lat="44.74336" lon="5.40642">
        <ele>626.44</ele>
        <time>2019-03-28T13:20:20Z</time>
      </trkpt>
      <trkpt lat="44.74338" lon="5.40637">
        <ele>624.99</ele>
        <time>2019-03-28T13:20:23Z</time>
      </trkpt>
      <trkpt lat="44.74339" lon="5.40633">
        <ele>625.96</ele>
        <time>2019-03-28T13:20:25Z</time>
      </trkpt>
      <trkpt lat="44.74342" lon="5.40625">
        <ele>625.47</ele>
        <time>2019-03-28T13:20:30Z</time>
      </trkpt>
      <trkpt lat="44.74345" lon="5.40619">
        <ele>624.99</ele>
        <time>2019-03-28T13:20:35Z</time>
      </trkpt>
      <trkpt lat="44.74345" lon="5.40613">
        <ele>624.51</ele>
        <time>2019-03-28T13:20:41Z</time>
      </trkpt>
      <trkpt lat="44.74335" lon="5.40605">
        <ele>621.15</ele>
        <time>2019-03-28T13:20:52Z</time>
      </trkpt>
      <trkpt lat="44.74326" lon="5.406">
        <ele>618.75</ele>
        <time>2019-03-28T13:20:58Z</time>
      </trkpt>
      <trkpt lat="44.74314" lon="5.40588">
        <ele>617.3</ele>
        <time>2019-03-28T13:21:09Z</time>
      </trkpt>
      <trkpt lat="44.7431" lon="5.40579">
        <ele>616.34</ele>
        <time>2019-03-28T13:21:16Z</time>
      </trkpt>
      <trkpt lat="44.74308" lon="5.4056">
        <ele>613.94</ele>
        <time>2019-03-28T13:21:27Z</time>
      </trkpt>
      <trkpt lat="44.74309" lon="5.40557">
        <ele>613.94</ele>
        <time>2019-03-28T13:21:29Z</time>
      </trkpt>
      <trkpt lat="44.74313" lon="5.4055">
        <ele>612.5</ele>
        <time>2019-03-28T13:21:33Z</time>
      </trkpt>
      <trkpt lat="44.74325" lon="5.40539">
        <ele>611.54</ele>
        <time>2019-03-28T13:21:39Z</time>
      </trkpt>
      <trkpt lat="44.74329" lon="5.40531">
        <ele>610.09</ele>
        <time>2019-03-28T13:21:46Z</time>
      </trkpt>
      <trkpt lat="44.74326" lon="5.4052">
        <ele>610.09</ele>
        <time>2019-03-28T13:21:51Z</time>
      </trkpt>
      <trkpt lat="44.74327" lon="5.40517">
        <ele>610.09</ele>
        <time>2019-03-28T13:21:53Z</time>
      </trkpt>
      <trkpt lat="44.74327" lon="5.40513">
        <ele>609.13</ele>
        <time>2019-03-28T13:21:55Z</time>
      </trkpt>
      <trkpt lat="44.74329" lon="5.40507">
        <ele>608.17</ele>
        <time>2019-03-28T13:21:58Z</time>
      </trkpt>
      <trkpt lat="44.74334" lon="5.40498">
        <ele>607.21</ele>
        <time>2019-03-28T13:22:04Z</time>
      </trkpt>
      <trkpt lat="44.74339" lon="5.40479">
        <ele>604.33</ele>
        <time>2019-03-28T13:22:14Z</time>
      </trkpt>
      <trkpt lat="44.7434" lon="5.40477">
        <ele>604.33</ele>
        <time>2019-03-28T13:22:15Z</time>
      </trkpt>
      <trkpt lat="44.74342" lon="5.40475">
        <ele>603.36</ele>
        <time>2019-03-28T13:22:17Z</time>
      </trkpt>
      <trkpt lat="44.74343" lon="5.40474">
        <ele>601.44</ele>
        <time>2019-03-28T13:22:18Z</time>
      </trkpt>
      <trkpt lat="44.74346" lon="5.40472">
        <ele>602.4</ele>
        <time>2019-03-28T13:22:21Z</time>
      </trkpt>
      <trkpt lat="44.74347" lon="5.4047">
        <ele>601.92</ele>
        <time>2019-03-28T13:22:23Z</time>
      </trkpt>
      <trkpt lat="44.74351" lon="5.40463">
        <ele>600.48</ele>
        <time>2019-03-28T13:22:34Z</time>
      </trkpt>
      <trkpt lat="44.74352" lon="5.4046">
        <ele>601.44</ele>
        <time>2019-03-28T13:22:45Z</time>
      </trkpt>
      <trkpt lat="44.74357" lon="5.40456">
        <ele>600.96</ele>
        <time>2019-03-28T13:22:50Z</time>
      </trkpt>
      <trkpt lat="44.74362" lon="5.40452">
        <ele>603.36</ele>
        <time>2019-03-28T13:22:54Z</time>
      </trkpt>
      <trkpt lat="44.74365" lon="5.40447">
        <ele>599.52</ele>
        <time>2019-03-28T13:23:06Z</time>
      </trkpt>
      <trkpt lat="44.74367" lon="5.40436">
        <ele>598.56</ele>
        <time>2019-03-28T13:23:13Z</time>
      </trkpt>
      <trkpt lat="44.74382" lon="5.40431">
        <ele>596.64</ele>
        <time>2019-03-28T13:23:27Z</time>
      </trkpt>
      <trkpt lat="44.74385" lon="5.40429">
        <ele>598.08</ele>
        <time>2019-03-28T13:23:33Z</time>
      </trkpt>
      <trkpt lat="44.74386" lon="5.40428">
        <ele>597.12</ele>
        <time>2019-03-28T13:23:38Z</time>
      </trkpt>
      <trkpt lat="44.74388" lon="5.40424">
        <ele>595.19</ele>
        <time>2019-03-28T13:23:47Z</time>
      </trkpt>
      <trkpt lat="44.74391" lon="5.40422">
        <ele>596.64</ele>
        <time>2019-03-28T13:24:03Z</time>
      </trkpt>
      <trkpt lat="44.74391" lon="5.40403">
        <ele>596.15</ele>
        <time>2019-03-28T13:24:19Z</time>
      </trkpt>
      <trkpt lat="44.74398" lon="5.40403">
        <ele>596.64</ele>
        <time>2019-03-28T13:24:29Z</time>
      </trkpt>
      <trkpt lat="44.74403" lon="5.40409">
        <ele>595.67</ele>
        <time>2019-03-28T13:24:37Z</time>
      </trkpt>
      <trkpt lat="44.74406" lon="5.40411">
        <ele>595.19</ele>
        <time>2019-03-28T13:24:42Z</time>
      </trkpt>
      <trkpt lat="44.7441" lon="5.40403">
        <ele>593.75</ele>
        <time>2019-03-28T13:24:53Z</time>
      </trkpt>
      <trkpt lat="44.7441" lon="5.40402">
        <ele>593.27</ele>
        <time>2019-03-28T13:25:05Z</time>
      </trkpt>
      <trkpt lat="44.74409" lon="5.404">
        <ele>592.79</ele>
        <time>2019-03-28T13:25:07Z</time>
      </trkpt>
      <trkpt lat="44.74407" lon="5.40395">
        <ele>592.31</ele>
        <time>2019-03-28T13:25:11Z</time>
      </trkpt>
      <trkpt lat="44.74407" lon="5.40391">
        <ele>593.75</ele>
        <time>2019-03-28T13:25:13Z</time>
      </trkpt>
      <trkpt lat="44.74405" lon="5.40379">
        <ele>591.83</ele>
        <time>2019-03-28T13:25:20Z</time>
      </trkpt>
      <trkpt lat="44.74411" lon="5.4037">
        <ele>591.83</ele>
        <time>2019-03-28T13:25:25Z</time>
      </trkpt>
      <trkpt lat="44.74417" lon="5.40361">
        <ele>591.83</ele>
        <time>2019-03-28T13:25:35Z</time>
      </trkpt>
      <trkpt lat="44.7442" lon="5.40356">
        <ele>589.91</ele>
        <time>2019-03-28T13:25:40Z</time>
      </trkpt>
      <trkpt lat="44.74419" lon="5.40357">
        <ele>589.91</ele>
        <time>2019-03-28T13:25:49Z</time>
      </trkpt>
      <trkpt lat="44.74416" lon="5.40358">
        <ele>591.35</ele>
        <time>2019-03-28T13:25:59Z</time>
      </trkpt>
      <trkpt lat="44.74413" lon="5.40355">
        <ele>589.43</ele>
        <time>2019-03-28T13:26:18Z</time>
      </trkpt>
      <trkpt lat="44.74413" lon="5.40355">
        <ele>588.95</ele>
        <time>2019-03-28T13:26:43Z</time>
      </trkpt>
      <trkpt lat="44.74413" lon="5.40355">
        <ele>588.95</ele>
        <time>2019-03-28T13:26:57Z</time>
      </trkpt>
      <trkpt lat="44.74412" lon="5.40348">
        <ele>588.46</ele>
        <time>2019-03-28T13:27:08Z</time>
      </trkpt>
      <trkpt lat="44.74418" lon="5.40333">
        <ele>587.5</ele>
        <time>2019-03-28T13:27:17Z</time>
      </trkpt>
      <trkpt lat="44.74424" lon="5.40321">
        <ele>587.98</ele>
        <time>2019-03-28T13:27:27Z</time>
      </trkpt>
      <trkpt lat="44.74429" lon="5.40317">
        <ele>588.46</ele>
        <time>2019-03-28T13:27:36Z</time>
      </trkpt>
      <trkpt lat="44.74432" lon="5.40318">
        <ele>587.98</ele>
        <time>2019-03-28T13:27:46Z</time>
      </trkpt>
      <trkpt lat="44.7443" lon="5.40319">
        <ele>587.02</ele>
        <time>2019-03-28T13:27:53Z</time>
      </trkpt>
      <trkpt lat="44.74425" lon="5.40315">
        <ele>587.02</ele>
        <time>2019-03-28T13:28:01Z</time>
      </trkpt>
      <trkpt lat="44.74416" lon="5.4031">
        <ele>587.02</ele>
        <time>2019-03-28T13:28:09Z</time>
      </trkpt>
      <trkpt lat="44.74408" lon="5.4031">
        <ele>586.06</ele>
        <time>2019-03-28T13:28:19Z</time>
      </trkpt>
      <trkpt lat="44.74404" lon="5.40311">
        <ele>584.14</ele>
        <time>2019-03-28T13:28:26Z</time>
      </trkpt>
      <trkpt lat="44.744" lon="5.40315">
        <ele>584.14</ele>
        <time>2019-03-28T13:28:35Z</time>
      </trkpt>
      <trkpt lat="44.74391" lon="5.40294">
        <ele>583.18</ele>
        <time>2019-03-28T13:28:46Z</time>
      </trkpt>
      <trkpt lat="44.74392" lon="5.40291">
        <ele>582.7</ele>
        <time>2019-03-28T13:28:47Z</time>
      </trkpt>
      <trkpt lat="44.744" lon="5.40277">
        <ele>582.7</ele>
        <time>2019-03-28T13:28:56Z</time>
      </trkpt>
      <trkpt lat="44.74408" lon="5.40264">
        <ele>583.18</ele>
        <time>2019-03-28T13:28:58Z</time>
      </trkpt>
      <trkpt lat="44.74415" lon="5.40248">
        <ele>582.7</ele>
        <time>2019-03-28T13:29:07Z</time>
      </trkpt>
      <trkpt lat="44.74416" lon="5.40247">
        <ele>582.22</ele>
        <time>2019-03-28T13:29:08Z</time>
      </trkpt>
      <trkpt lat="44.7442" lon="5.40247">
        <ele>582.22</ele>
        <time>2019-03-28T13:29:18Z</time>
      </trkpt>
      <trkpt lat="44.7442" lon="5.40248">
        <ele>581.73</ele>
        <time>2019-03-28T13:29:27Z</time>
      </trkpt>
      <trkpt lat="44.74423" lon="5.40245">
        <ele>582.22</ele>
        <time>2019-03-28T13:29:36Z</time>
      </trkpt>
      <trkpt lat="44.74418" lon="5.40243">
        <ele>580.77</ele>
        <time>2019-03-28T13:29:47Z</time>
      </trkpt>
      <trkpt lat="44.74418" lon="5.40243">
        <ele>580.29</ele>
        <time>2019-03-28T13:29:48Z</time>
      </trkpt>
      <trkpt lat="44.74416" lon="5.40242">
        <ele>580.29</ele>
        <time>2019-03-28T13:29:50Z</time>
      </trkpt>
      <trkpt lat="44.74413" lon="5.40228">
        <ele>578.85</ele>
        <time>2019-03-28T13:30:00Z</time>
      </trkpt>
      <trkpt lat="44.74414" lon="5.4022">
        <ele>578.37</ele>
        <time>2019-03-28T13:30:04Z</time>
      </trkpt>
      <trkpt lat="44.74417" lon="5.40214">
        <ele>578.37</ele>
        <time>2019-03-28T13:30:08Z</time>
      </trkpt>
      <trkpt lat="44.74412" lon="5.40209">
        <ele>577.41</ele>
        <time>2019-03-28T13:30:15Z</time>
      </trkpt>
      <trkpt lat="44.74409" lon="5.4021">
        <ele>577.89</ele>
        <time>2019-03-28T13:30:25Z</time>
      </trkpt>
      <trkpt lat="44.74403" lon="5.40212">
        <ele>577.41</ele>
        <time>2019-03-28T13:30:38Z</time>
      </trkpt>
      <trkpt lat="44.74401" lon="5.40213">
        <ele>577.89</ele>
        <time>2019-03-28T13:30:42Z</time>
      </trkpt>
      <trkpt lat="44.74394" lon="5.40207">
        <ele>577.89</ele>
        <time>2019-03-28T13:30:48Z</time>
      </trkpt>
      <trkpt lat="44.74387" lon="5.40196">
        <ele>576.93</ele>
        <time>2019-03-28T13:30:52Z</time>
      </trkpt>
      <trkpt lat="44.7438" lon="5.40191">
        <ele>575.97</ele>
        <time>2019-03-28T13:31:00Z</time>
      </trkpt>
      <trkpt lat="44.74371" lon="5.40185">
        <ele>575.49</ele>
        <time>2019-03-28T13:31:10Z</time>
      </trkpt>
      <trkpt lat="44.74368" lon="5.40181">
        <ele>573.56</ele>
        <time>2019-03-28T13:31:16Z</time>
      </trkpt>
      <trkpt lat="44.7436" lon="5.40166">
        <ele>574.04</ele>
        <time>2019-03-28T13:31:23Z</time>
      </trkpt>
      <trkpt lat="44.74356" lon="5.40156">
        <ele>572.12</ele>
        <time>2019-03-28T13:31:30Z</time>
      </trkpt>
      <trkpt lat="44.74354" lon="5.40148">
        <ele>573.08</ele>
        <time>2019-03-28T13:31:37Z</time>
      </trkpt>
      <trkpt lat="44.74353" lon="5.40135">
        <ele>570.68</ele>
        <time>2019-03-28T13:31:44Z</time>
      </trkpt>
      <trkpt lat="44.74353" lon="5.40127">
        <ele>574.04</ele>
        <time>2019-03-28T13:31:49Z</time>
      </trkpt>
      <trkpt lat="44.74353" lon="5.4012">
        <ele>570.2</ele>
        <time>2019-03-28T13:31:52Z</time>
      </trkpt>
      <trkpt lat="44.74354" lon="5.40108">
        <ele>571.16</ele>
        <time>2019-03-28T13:31:58Z</time>
      </trkpt>
      <trkpt lat="44.74357" lon="5.40096">
        <ele>570.68</ele>
        <time>2019-03-28T13:32:04Z</time>
      </trkpt>
      <trkpt lat="44.74356" lon="5.40087">
        <ele>571.16</ele>
        <time>2019-03-28T13:32:14Z</time>
      </trkpt>
      <trkpt lat="44.74357" lon="5.40078">
        <ele>572.6</ele>
        <time>2019-03-28T13:32:23Z</time>
      </trkpt>
      <trkpt lat="44.7436" lon="5.40073">
        <ele>572.6</ele>
        <time>2019-03-28T13:32:26Z</time>
      </trkpt>
      <trkpt lat="44.74371" lon="5.40058">
        <ele>571.64</ele>
        <time>2019-03-28T13:32:38Z</time>
      </trkpt>
      <trkpt lat="44.74381" lon="5.4004">
        <ele>570.68</ele>
        <time>2019-03-28T13:32:48Z</time>
      </trkpt>
      <trkpt lat="44.7439" lon="5.40025">
        <ele>569.24</ele>
        <time>2019-03-28T13:33:01Z</time>
      </trkpt>
      <trkpt lat="44.74391" lon="5.40024">
        <ele>569.24</ele>
        <time>2019-03-28T13:33:02Z</time>
      </trkpt>
      <trkpt lat="44.74396" lon="5.4001">
        <ele>567.8</ele>
        <time>2019-03-28T13:33:15Z</time>
      </trkpt>
      <trkpt lat="44.74401" lon="5.39997">
        <ele>566.35</ele>
        <time>2019-03-28T13:33:24Z</time>
      </trkpt>
      <trkpt lat="44.744" lon="5.39991">
        <ele>565.87</ele>
        <time>2019-03-28T13:33:31Z</time>
      </trkpt>
      <trkpt lat="44.74396" lon="5.39985">
        <ele>563.95</ele>
        <time>2019-03-28T13:33:41Z</time>
      </trkpt>
      <trkpt lat="44.74395" lon="5.39983">
        <ele>563.95</ele>
        <time>2019-03-28T13:33:44Z</time>
      </trkpt>
      <trkpt lat="44.74384" lon="5.39974">
        <ele>562.99</ele>
        <time>2019-03-28T13:33:54Z</time>
      </trkpt>
      <trkpt lat="44.74377" lon="5.39972">
        <ele>561.55</ele>
        <time>2019-03-28T13:34:03Z</time>
      </trkpt>
      <trkpt lat="44.74368" lon="5.39965">
        <ele>560.11</ele>
        <time>2019-03-28T13:34:13Z</time>
      </trkpt>
      <trkpt lat="44.74362" lon="5.39955">
        <ele>558.66</ele>
        <time>2019-03-28T13:34:23Z</time>
      </trkpt>
      <trkpt lat="44.74361" lon="5.39952">
        <ele>558.18</ele>
        <time>2019-03-28T13:34:26Z</time>
      </trkpt>
      <trkpt lat="44.74354" lon="5.39946">
        <ele>557.7</ele>
        <time>2019-03-28T13:34:35Z</time>
      </trkpt>
      <trkpt lat="44.74354" lon="5.39945">
        <ele>557.22</ele>
        <time>2019-03-28T13:34:36Z</time>
      </trkpt>
      <trkpt lat="44.74348" lon="5.39941">
        <ele>556.74</ele>
        <time>2019-03-28T13:34:45Z</time>
      </trkpt>
      <trkpt lat="44.74339" lon="5.39936">
        <ele>555.3</ele>
        <time>2019-03-28T13:34:54Z</time>
      </trkpt>
      <trkpt lat="44.74329" lon="5.39934">
        <ele>553.38</ele>
        <time>2019-03-28T13:35:06Z</time>
      </trkpt>
      <trkpt lat="44.74321" lon="5.39929">
        <ele>552.41</ele>
        <time>2019-03-28T13:35:17Z</time>
      </trkpt>
      <trkpt lat="44.74314" lon="5.39928">
        <ele>551.45</ele>
        <time>2019-03-28T13:35:24Z</time>
      </trkpt>
      <trkpt lat="44.74309" lon="5.39927">
        <ele>550.97</ele>
        <time>2019-03-28T13:35:33Z</time>
      </trkpt>
      <trkpt lat="44.74298" lon="5.39923">
        <ele>550.01</ele>
        <time>2019-03-28T13:35:42Z</time>
      </trkpt>
      <trkpt lat="44.74292" lon="5.39922">
        <ele>548.57</ele>
        <time>2019-03-28T13:35:51Z</time>
      </trkpt>
      <trkpt lat="44.74291" lon="5.39923">
        <ele>548.09</ele>
        <time>2019-03-28T13:35:54Z</time>
      </trkpt>
      <trkpt lat="44.74284" lon="5.39922">
        <ele>547.61</ele>
        <time>2019-03-28T13:36:03Z</time>
      </trkpt>
      <trkpt lat="44.7427" lon="5.3992">
        <ele>546.17</ele>
        <time>2019-03-28T13:36:14Z</time>
      </trkpt>
      <trkpt lat="44.74264" lon="5.39916">
        <ele>544.72</ele>
        <time>2019-03-28T13:36:23Z</time>
      </trkpt>
      <trkpt lat="44.74254" lon="5.39914">
        <ele>544.72</ele>
        <time>2019-03-28T13:36:32Z</time>
      </trkpt>
      <trkpt lat="44.74247" lon="5.39913">
        <ele>542.8</ele>
        <time>2019-03-28T13:36:42Z</time>
      </trkpt>
      <trkpt lat="44.74249" lon="5.39902">
        <ele>542.8</ele>
        <time>2019-03-28T13:36:47Z</time>
      </trkpt>
      <trkpt lat="44.74252" lon="5.39895">
        <ele>541.36</ele>
        <time>2019-03-28T13:36:54Z</time>
      </trkpt>
      <trkpt lat="44.74256" lon="5.39885">
        <ele>540.4</ele>
        <time>2019-03-28T13:37:01Z</time>
      </trkpt>
      <trkpt lat="44.74261" lon="5.39879">
        <ele>539.44</ele>
        <time>2019-03-28T13:37:08Z</time>
      </trkpt>
      <trkpt lat="44.74267" lon="5.39878">
        <ele>538.48</ele>
        <time>2019-03-28T13:37:18Z</time>
      </trkpt>
      <trkpt lat="44.74271" lon="5.39875">
        <ele>537.51</ele>
        <time>2019-03-28T13:37:23Z</time>
      </trkpt>
      <trkpt lat="44.74276" lon="5.39877">
        <ele>537.03</ele>
        <time>2019-03-28T13:37:28Z</time>
      </trkpt>
      <trkpt lat="44.74284" lon="5.39868">
        <ele>537.03</ele>
        <time>2019-03-28T13:37:38Z</time>
      </trkpt>
      <trkpt lat="44.74285" lon="5.39867">
        <ele>535.59</ele>
        <time>2019-03-28T13:37:39Z</time>
      </trkpt>
      <trkpt lat="44.74294" lon="5.39866">
        <ele>535.59</ele>
        <time>2019-03-28T13:37:49Z</time>
      </trkpt>
      <trkpt lat="44.74296" lon="5.39865">
        <ele>534.15</ele>
        <time>2019-03-28T13:37:51Z</time>
      </trkpt>
      <trkpt lat="44.74303" lon="5.39862">
        <ele>534.15</ele>
        <time>2019-03-28T13:38:00Z</time>
      </trkpt>
      <trkpt lat="44.74308" lon="5.39859">
        <ele>532.23</ele>
        <time>2019-03-28T13:38:06Z</time>
      </trkpt>
      <trkpt lat="44.74319" lon="5.39859">
        <ele>532.71</ele>
        <time>2019-03-28T13:38:17Z</time>
      </trkpt>
      <trkpt lat="44.7432" lon="5.3986">
        <ele>532.23</ele>
        <time>2019-03-28T13:38:21Z</time>
      </trkpt>
      <trkpt lat="44.74315" lon="5.39868">
        <ele>530.79</ele>
        <time>2019-03-28T13:38:31Z</time>
      </trkpt>
      <trkpt lat="44.74307" lon="5.39868">
        <ele>529.82</ele>
        <time>2019-03-28T13:38:40Z</time>
      </trkpt>
      <trkpt lat="44.74296" lon="5.39862">
        <ele>529.34</ele>
        <time>2019-03-28T13:38:53Z</time>
      </trkpt>
      <trkpt lat="44.74293" lon="5.39863">
        <ele>527.42</ele>
        <time>2019-03-28T13:39:00Z</time>
      </trkpt>
      <trkpt lat="44.74288" lon="5.39859">
        <ele>525.98</ele>
        <time>2019-03-28T13:39:05Z</time>
      </trkpt>
      <trkpt lat="44.74281" lon="5.39857">
        <ele>525.5</ele>
        <time>2019-03-28T13:39:14Z</time>
      </trkpt>
      <trkpt lat="44.74276" lon="5.39863">
        <ele>522.61</ele>
        <time>2019-03-28T13:39:24Z</time>
      </trkpt>
      <trkpt lat="44.74266" lon="5.39859">
        <ele>521.65</ele>
        <time>2019-03-28T13:39:34Z</time>
      </trkpt>
      <trkpt lat="44.74263" lon="5.39855">
        <ele>521.17</ele>
        <time>2019-03-28T13:39:37Z</time>
      </trkpt>
      <trkpt lat="44.74253" lon="5.39842">
        <ele>520.69</ele>
        <time>2019-03-28T13:39:47Z</time>
      </trkpt>
      <trkpt lat="44.7425" lon="5.3983">
        <ele>519.25</ele>
        <time>2019-03-28T13:40:05Z</time>
      </trkpt>
      <trkpt lat="44.74237" lon="5.39823">
        <ele>517.81</ele>
        <time>2019-03-28T13:40:17Z</time>
      </trkpt>
      <trkpt lat="44.74229" lon="5.39825">
        <ele>515.88</ele>
        <time>2019-03-28T13:40:27Z</time>
      </trkpt>
      <trkpt lat="44.74231" lon="5.39828">
        <ele>512.52</ele>
        <time>2019-03-28T13:40:34Z</time>
      </trkpt>
      <trkpt lat="44.74235" lon="5.39838">
        <ele>515.88</ele>
        <time>2019-03-28T13:40:46Z</time>
      </trkpt>
      <trkpt lat="44.74235" lon="5.39839">
        <ele>513</ele>
        <time>2019-03-28T13:40:48Z</time>
      </trkpt>
      <trkpt lat="44.74227" lon="5.39846">
        <ele>512.04</ele>
        <time>2019-03-28T13:40:57Z</time>
      </trkpt>
      <trkpt lat="44.7422" lon="5.39844">
        <ele>511.08</ele>
        <time>2019-03-28T13:41:05Z</time>
      </trkpt>
      <trkpt lat="44.74218" lon="5.39831">
        <ele>509.16</ele>
        <time>2019-03-28T13:41:12Z</time>
      </trkpt>
      <trkpt lat="44.74216" lon="5.39826">
        <ele>508.67</ele>
        <time>2019-03-28T13:41:16Z</time>
      </trkpt>
      <trkpt lat="44.74217" lon="5.39819">
        <ele>507.71</ele>
        <time>2019-03-28T13:41:20Z</time>
      </trkpt>
      <trkpt lat="44.74219" lon="5.39801">
        <ele>506.27</ele>
        <time>2019-03-28T13:41:30Z</time>
      </trkpt>
      <trkpt lat="44.74218" lon="5.39782">
        <ele>504.35</ele>
        <time>2019-03-28T13:41:42Z</time>
      </trkpt>
      <trkpt lat="44.74218" lon="5.39765">
        <ele>504.35</ele>
        <time>2019-03-28T13:41:54Z</time>
      </trkpt>
      <trkpt lat="44.74218" lon="5.3976">
        <ele>502.91</ele>
        <time>2019-03-28T13:41:57Z</time>
      </trkpt>
      <trkpt lat="44.74219" lon="5.39751">
        <ele>504.35</ele>
        <time>2019-03-28T13:42:07Z</time>
      </trkpt>
      <trkpt lat="44.74226" lon="5.39735">
        <ele>503.87</ele>
        <time>2019-03-28T13:42:18Z</time>
      </trkpt>
      <trkpt lat="44.74227" lon="5.39732">
        <ele>504.35</ele>
        <time>2019-03-28T13:42:20Z</time>
      </trkpt>
      <trkpt lat="44.74219" lon="5.39727">
        <ele>503.87</ele>
        <time>2019-03-28T13:42:31Z</time>
      </trkpt>
      <trkpt lat="44.74217" lon="5.39726">
        <ele>502.91</ele>
        <time>2019-03-28T13:42:33Z</time>
      </trkpt>
      <trkpt lat="44.74214" lon="5.39726">
        <ele>504.35</ele>
        <time>2019-03-28T13:42:36Z</time>
      </trkpt>
      <trkpt lat="44.74212" lon="5.39727">
        <ele>503.39</ele>
        <time>2019-03-28T13:42:38Z</time>
      </trkpt>
      <trkpt lat="44.74212" lon="5.39732">
        <ele>502.43</ele>
        <time>2019-03-28T13:42:43Z</time>
      </trkpt>
      <trkpt lat="44.74204" lon="5.39717">
        <ele>500.5</ele>
        <time>2019-03-28T13:42:53Z</time>
      </trkpt>
      <trkpt lat="44.74204" lon="5.39709">
        <ele>499.06</ele>
        <time>2019-03-28T13:42:56Z</time>
      </trkpt>
      <trkpt lat="44.74204" lon="5.39699">
        <ele>498.1</ele>
        <time>2019-03-28T13:43:02Z</time>
      </trkpt>
      <trkpt lat="44.74207" lon="5.39684">
        <ele>496.18</ele>
        <time>2019-03-28T13:43:10Z</time>
      </trkpt>
      <trkpt lat="44.7421" lon="5.39674">
        <ele>493.29</ele>
        <time>2019-03-28T13:43:21Z</time>
      </trkpt>
      <trkpt lat="44.74206" lon="5.39674">
        <ele>492.81</ele>
        <time>2019-03-28T13:43:27Z</time>
      </trkpt>
      <trkpt lat="44.74202" lon="5.39665">
        <ele>489.93</ele>
        <time>2019-03-28T13:43:38Z</time>
      </trkpt>
      <trkpt lat="44.74202" lon="5.39664">
        <ele>489.45</ele>
        <time>2019-03-28T13:43:39Z</time>
      </trkpt>
      <trkpt lat="44.74204" lon="5.3966">
        <ele>490.41</ele>
        <time>2019-03-28T13:43:42Z</time>
      </trkpt>
      <trkpt lat="44.74205" lon="5.39658">
        <ele>488.01</ele>
        <time>2019-03-28T13:43:43Z</time>
      </trkpt>
      <trkpt lat="44.74204" lon="5.39643">
        <ele>486.08</ele>
        <time>2019-03-28T13:43:54Z</time>
      </trkpt>
      <trkpt lat="44.74197" lon="5.3964">
        <ele>485.12</ele>
        <time>2019-03-28T13:44:05Z</time>
      </trkpt>
      <trkpt lat="44.74197" lon="5.39636">
        <ele>484.16</ele>
        <time>2019-03-28T13:44:07Z</time>
      </trkpt>
      <trkpt lat="44.74199" lon="5.39617">
        <ele>482.24</ele>
        <time>2019-03-28T13:44:18Z</time>
      </trkpt>
      <trkpt lat="44.74198" lon="5.39605">
        <ele>481.28</ele>
        <time>2019-03-28T13:44:27Z</time>
      </trkpt>
      <trkpt lat="44.742" lon="5.396">
        <ele>482.72</ele>
        <time>2019-03-28T13:44:30Z</time>
      </trkpt>
      <trkpt lat="44.74205" lon="5.3959">
        <ele>479.35</ele>
        <time>2019-03-28T13:44:38Z</time>
      </trkpt>
      <trkpt lat="44.74208" lon="5.39587">
        <ele>478.39</ele>
        <time>2019-03-28T13:44:41Z</time>
      </trkpt>
      <trkpt lat="44.74208" lon="5.39586">
        <ele>477.91</ele>
        <time>2019-03-28T13:44:42Z</time>
      </trkpt>
      <trkpt lat="44.74216" lon="5.39575">
        <ele>475.99</ele>
        <time>2019-03-28T13:44:55Z</time>
      </trkpt>
      <trkpt lat="44.74217" lon="5.39568">
        <ele>474.07</ele>
        <time>2019-03-28T13:45:06Z</time>
      </trkpt>
      <trkpt lat="44.7422" lon="5.39564">
        <ele>471.66</ele>
        <time>2019-03-28T13:45:12Z</time>
      </trkpt>
      <trkpt lat="44.74226" lon="5.39555">
        <ele>468.3</ele>
        <time>2019-03-28T13:45:19Z</time>
      </trkpt>
      <trkpt lat="44.74233" lon="5.39544">
        <ele>469.74</ele>
        <time>2019-03-28T13:45:29Z</time>
      </trkpt>
      <trkpt lat="44.74233" lon="5.39545">
        <ele>465.9</ele>
        <time>2019-03-28T13:45:30Z</time>
      </trkpt>
      <trkpt lat="44.74233" lon="5.39544">
        <ele>469.26</ele>
        <time>2019-03-28T13:45:33Z</time>
      </trkpt>
      <trkpt lat="44.74234" lon="5.39541">
        <ele>467.34</ele>
        <time>2019-03-28T13:45:37Z</time>
      </trkpt>
      <trkpt lat="44.74237" lon="5.39536">
        <ele>466.86</ele>
        <time>2019-03-28T13:45:46Z</time>
      </trkpt>
      <trkpt lat="44.74236" lon="5.39536">
        <ele>470.7</ele>
        <time>2019-03-28T13:45:56Z</time>
      </trkpt>
      <trkpt lat="44.74238" lon="5.39528">
        <ele>468.78</ele>
        <time>2019-03-28T13:46:09Z</time>
      </trkpt>
      <trkpt lat="44.74239" lon="5.39529">
        <ele>468.78</ele>
        <time>2019-03-28T13:46:27Z</time>
      </trkpt>
      <trkpt lat="44.74241" lon="5.39525">
        <ele>465.42</ele>
        <time>2019-03-28T13:46:34Z</time>
      </trkpt>
      <trkpt lat="44.74241" lon="5.39525">
        <ele>469.26</ele>
        <time>2019-03-28T13:46:35Z</time>
      </trkpt>
      <trkpt lat="44.74244" lon="5.39528">
        <ele>467.82</ele>
        <time>2019-03-28T13:46:50Z</time>
      </trkpt>
      <trkpt lat="44.74245" lon="5.39528">
        <ele>467.82</ele>
        <time>2019-03-28T13:47:08Z</time>
      </trkpt>
      <trkpt lat="44.74244" lon="5.39529">
        <ele>467.82</ele>
        <time>2019-03-28T13:47:25Z</time>
      </trkpt>
      <trkpt lat="44.74242" lon="5.39528">
        <ele>467.34</ele>
        <time>2019-03-28T13:47:43Z</time>
      </trkpt>
      <trkpt lat="44.74242" lon="5.39527">
        <ele>467.82</ele>
        <time>2019-03-28T13:48:00Z</time>
      </trkpt>
      <trkpt lat="44.74241" lon="5.39527">
        <ele>467.34</ele>
        <time>2019-03-28T13:48:14Z</time>
      </trkpt>
      <trkpt lat="44.74242" lon="5.39527">
        <ele>468.78</ele>
        <time>2019-03-28T13:48:28Z</time>
      </trkpt>
      <trkpt lat="44.7424" lon="5.39528">
        <ele>467.82</ele>
        <time>2019-03-28T13:48:51Z</time>
      </trkpt>
      <trkpt lat="44.7424" lon="5.39529">
        <ele>466.86</ele>
        <time>2019-03-28T13:49:10Z</time>
      </trkpt>
      <trkpt lat="44.74241" lon="5.39529">
        <ele>467.34</ele>
        <time>2019-03-28T13:49:25Z</time>
      </trkpt>
      <trkpt lat="44.74241" lon="5.39528">
        <ele>466.86</ele>
        <time>2019-03-28T13:49:44Z</time>
      </trkpt>
      <trkpt lat="44.74242" lon="5.39529">
        <ele>466.86</ele>
        <time>2019-03-28T13:50:05Z</time>
      </trkpt>
      <trkpt lat="44.74242" lon="5.39529">
        <ele>466.38</ele>
        <time>2019-03-28T13:50:29Z</time>
      </trkpt>
      <trkpt lat="44.74242" lon="5.3953">
        <ele>465.42</ele>
        <time>2019-03-28T13:50:52Z</time>
      </trkpt>
      <trkpt lat="44.74242" lon="5.39529">
        <ele>466.86</ele>
        <time>2019-03-28T13:51:12Z</time>
      </trkpt>
      <trkpt lat="44.74241" lon="5.39529">
        <ele>465.9</ele>
        <time>2019-03-28T13:51:35Z</time>
      </trkpt>
      <trkpt lat="44.74241" lon="5.39529">
        <ele>466.38</ele>
        <time>2019-03-28T13:51:53Z</time>
      </trkpt>
      <trkpt lat="44.74241" lon="5.39529">
        <ele>466.86</ele>
        <time>2019-03-28T13:52:11Z</time>
      </trkpt>
      <trkpt lat="44.74244" lon="5.39528">
        <ele>465.9</ele>
        <time>2019-03-28T13:52:28Z</time>
      </trkpt>
      <trkpt lat="44.74244" lon="5.39528">
        <ele>466.38</ele>
        <time>2019-03-28T13:52:48Z</time>
      </trkpt>
      <trkpt lat="44.74244" lon="5.39528">
        <ele>465.42</ele>
        <time>2019-03-28T13:53:06Z</time>
      </trkpt>
      <trkpt lat="44.74245" lon="5.39529">
        <ele>465.9</ele>
        <time>2019-03-28T13:53:23Z</time>
      </trkpt>
      <trkpt lat="44.74245" lon="5.39528">
        <ele>466.38</ele>
        <time>2019-03-28T13:53:41Z</time>
      </trkpt>
      <trkpt lat="44.74245" lon="5.39528">
        <ele>466.86</ele>
        <time>2019-03-28T13:53:59Z</time>
      </trkpt>
      <trkpt lat="44.74245" lon="5.39528">
        <ele>466.38</ele>
        <time>2019-03-28T13:54:18Z</time>
      </trkpt>
      <trkpt lat="44.74245" lon="5.39528">
        <ele>465.9</ele>
        <time>2019-03-28T13:54:39Z</time>
      </trkpt>
      <trkpt lat="44.74243" lon="5.39525">
        <ele>464.93</ele>
        <time>2019-03-28T13:54:54Z</time>
      </trkpt>
      <trkpt lat="44.74238" lon="5.39513">
        <ele>463.97</ele>
        <time>2019-03-28T13:55:06Z</time>
      </trkpt>
      <trkpt lat="44.74233" lon="5.39504">
        <ele>462.53</ele>
        <time>2019-03-28T13:55:15Z</time>
      </trkpt>
      <trkpt lat="44.74231" lon="5.39494">
        <ele>462.53</ele>
        <time>2019-03-28T13:55:22Z</time>
      </trkpt>
      <trkpt lat="44.74224" lon="5.39479">
        <ele>460.61</ele>
        <time>2019-03-28T13:55:35Z</time>
      </trkpt>
      <trkpt lat="44.74219" lon="5.39466">
        <ele>459.65</ele>
        <time>2019-03-28T13:55:44Z</time>
      </trkpt>
      <trkpt lat="44.74219" lon="5.39458">
        <ele>458.69</ele>
        <time>2019-03-28T13:55:49Z</time>
      </trkpt>
      <trkpt lat="44.74219" lon="5.39447">
        <ele>458.21</ele>
        <time>2019-03-28T13:55:59Z</time>
      </trkpt>
      <trkpt lat="44.74213" lon="5.39436">
        <ele>459.65</ele>
        <time>2019-03-28T13:56:10Z</time>
      </trkpt>
      <trkpt lat="44.74212" lon="5.39422">
        <ele>456.76</ele>
        <time>2019-03-28T13:56:20Z</time>
      </trkpt>
      <trkpt lat="44.74208" lon="5.3941">
        <ele>457.72</ele>
        <time>2019-03-28T13:56:29Z</time>
      </trkpt>
      <trkpt lat="44.74205" lon="5.39401">
        <ele>456.28</ele>
        <time>2019-03-28T13:56:34Z</time>
      </trkpt>
      <trkpt lat="44.74202" lon="5.39392">
        <ele>453.88</ele>
        <time>2019-03-28T13:56:39Z</time>
      </trkpt>
      <trkpt lat="44.74199" lon="5.3938">
        <ele>455.32</ele>
        <time>2019-03-28T13:56:48Z</time>
      </trkpt>
      <trkpt lat="44.74195" lon="5.39363">
        <ele>452.92</ele>
        <time>2019-03-28T13:56:59Z</time>
      </trkpt>
      <trkpt lat="44.74191" lon="5.39351">
        <ele>453.4</ele>
        <time>2019-03-28T13:57:08Z</time>
      </trkpt>
      <trkpt lat="44.74188" lon="5.39341">
        <ele>453.4</ele>
        <time>2019-03-28T13:57:14Z</time>
      </trkpt>
      <trkpt lat="44.74183" lon="5.39327">
        <ele>451.48</ele>
        <time>2019-03-28T13:57:24Z</time>
      </trkpt>
      <trkpt lat="44.74182" lon="5.39325">
        <ele>450.52</ele>
        <time>2019-03-28T13:57:26Z</time>
      </trkpt>
      <trkpt lat="44.74176" lon="5.39307">
        <ele>452.44</ele>
        <time>2019-03-28T13:57:38Z</time>
      </trkpt>
      <trkpt lat="44.74171" lon="5.39294">
        <ele>451.96</ele>
        <time>2019-03-28T13:57:47Z</time>
      </trkpt>
      <trkpt lat="44.74166" lon="5.39276">
        <ele>449.55</ele>
        <time>2019-03-28T13:57:58Z</time>
      </trkpt>
      <trkpt lat="44.74161" lon="5.39264">
        <ele>449.55</ele>
        <time>2019-03-28T13:58:06Z</time>
      </trkpt>
      <trkpt lat="44.74157" lon="5.39247">
        <ele>448.59</ele>
        <time>2019-03-28T13:58:16Z</time>
      </trkpt>
      <trkpt lat="44.74149" lon="5.39231">
        <ele>448.59</ele>
        <time>2019-03-28T13:58:26Z</time>
      </trkpt>
      <trkpt lat="44.74141" lon="5.39217">
        <ele>446.67</ele>
        <time>2019-03-28T13:58:37Z</time>
      </trkpt>
      <trkpt lat="44.7414" lon="5.39208">
        <ele>446.67</ele>
        <time>2019-03-28T13:58:42Z</time>
      </trkpt>
      <trkpt lat="44.74148" lon="5.39185">
        <ele>444.75</ele>
        <time>2019-03-28T13:58:54Z</time>
      </trkpt>
      <trkpt lat="44.74154" lon="5.39177">
        <ele>444.27</ele>
        <time>2019-03-28T13:59:00Z</time>
      </trkpt>
      <trkpt lat="44.74157" lon="5.39174">
        <ele>446.67</ele>
        <time>2019-03-28T13:59:03Z</time>
      </trkpt>
      <trkpt lat="44.74163" lon="5.39167">
        <ele>444.27</ele>
        <time>2019-03-28T13:59:09Z</time>
      </trkpt>
      <trkpt lat="44.74171" lon="5.39159">
        <ele>445.23</ele>
        <time>2019-03-28T13:59:18Z</time>
      </trkpt>
      <trkpt lat="44.74176" lon="5.39153">
        <ele>443.31</ele>
        <time>2019-03-28T13:59:23Z</time>
      </trkpt>
      <trkpt lat="44.74178" lon="5.39149">
        <ele>445.71</ele>
        <time>2019-03-28T13:59:26Z</time>
      </trkpt>
      <trkpt lat="44.74179" lon="5.39148">
        <ele>444.75</ele>
        <time>2019-03-28T13:59:27Z</time>
      </trkpt>
      <trkpt lat="44.74192" lon="5.3914">
        <ele>442.82</ele>
        <time>2019-03-28T13:59:38Z</time>
      </trkpt>
      <trkpt lat="44.74203" lon="5.39131">
        <ele>444.27</ele>
        <time>2019-03-28T13:59:48Z</time>
      </trkpt>
      <trkpt lat="44.74206" lon="5.39129">
        <ele>442.34</ele>
        <time>2019-03-28T13:59:51Z</time>
      </trkpt>
      <trkpt lat="44.74216" lon="5.39121">
        <ele>443.31</ele>
        <time>2019-03-28T14:00:00Z</time>
      </trkpt>
      <trkpt lat="44.74219" lon="5.39118">
        <ele>442.34</ele>
        <time>2019-03-28T14:00:03Z</time>
      </trkpt>
      <trkpt lat="44.74225" lon="5.39114">
        <ele>443.31</ele>
        <time>2019-03-28T14:00:09Z</time>
      </trkpt>
      <trkpt lat="44.74231" lon="5.39109">
        <ele>441.38</ele>
        <time>2019-03-28T14:00:14Z</time>
      </trkpt>
      <trkpt lat="44.74236" lon="5.39106">
        <ele>441.86</ele>
        <time>2019-03-28T14:00:18Z</time>
      </trkpt>
      <trkpt lat="44.74249" lon="5.39094">
        <ele>442.34</ele>
        <time>2019-03-28T14:00:30Z</time>
      </trkpt>
      <trkpt lat="44.74259" lon="5.39085">
        <ele>438.98</ele>
        <time>2019-03-28T14:00:40Z</time>
      </trkpt>
      <trkpt lat="44.7426" lon="5.39085">
        <ele>439.46</ele>
        <time>2019-03-28T14:00:41Z</time>
      </trkpt>
      <trkpt lat="44.74271" lon="5.39078">
        <ele>442.34</ele>
        <time>2019-03-28T14:00:51Z</time>
      </trkpt>
      <trkpt lat="44.74272" lon="5.39077">
        <ele>441.86</ele>
        <time>2019-03-28T14:00:52Z</time>
      </trkpt>
      <trkpt lat="44.74279" lon="5.39072">
        <ele>440.9</ele>
        <time>2019-03-28T14:00:58Z</time>
      </trkpt>
      <trkpt lat="44.74282" lon="5.39068">
        <ele>440.42</ele>
        <time>2019-03-28T14:01:02Z</time>
      </trkpt>
      <trkpt lat="44.74294" lon="5.39058">
        <ele>440.42</ele>
        <time>2019-03-28T14:01:13Z</time>
      </trkpt>
      <trkpt lat="44.74299" lon="5.39055">
        <ele>440.9</ele>
        <time>2019-03-28T14:01:18Z</time>
      </trkpt>
      <trkpt lat="44.74303" lon="5.39051">
        <ele>439.94</ele>
        <time>2019-03-28T14:01:22Z</time>
      </trkpt>
      <trkpt lat="44.74306" lon="5.39047">
        <ele>438.98</ele>
        <time>2019-03-28T14:01:25Z</time>
      </trkpt>
      <trkpt lat="44.74313" lon="5.39042">
        <ele>438.02</ele>
        <time>2019-03-28T14:01:32Z</time>
      </trkpt>
      <trkpt lat="44.74319" lon="5.39037">
        <ele>437.54</ele>
        <time>2019-03-28T14:01:37Z</time>
      </trkpt>
      <trkpt lat="44.74331" lon="5.39028">
        <ele>438.5</ele>
        <time>2019-03-28T14:01:48Z</time>
      </trkpt>
      <trkpt lat="44.74344" lon="5.39016">
        <ele>437.06</ele>
        <time>2019-03-28T14:02:00Z</time>
      </trkpt>
      <trkpt lat="44.74344" lon="5.39014">
        <ele>436.58</ele>
        <time>2019-03-28T14:02:01Z</time>
      </trkpt>
      <trkpt lat="44.74354" lon="5.38999">
        <ele>436.1</ele>
        <time>2019-03-28T14:02:12Z</time>
      </trkpt>
      <trkpt lat="44.74361" lon="5.38983">
        <ele>434.65</ele>
        <time>2019-03-28T14:02:22Z</time>
      </trkpt>
      <trkpt lat="44.74364" lon="5.38976">
        <ele>434.65</ele>
        <time>2019-03-28T14:02:27Z</time>
      </trkpt>
      <trkpt lat="44.74366" lon="5.3897">
        <ele>433.69</ele>
        <time>2019-03-28T14:02:31Z</time>
      </trkpt>
      <trkpt lat="44.74375" lon="5.38953">
        <ele>433.21</ele>
        <time>2019-03-28T14:02:42Z</time>
      </trkpt>
      <trkpt lat="44.74382" lon="5.38936">
        <ele>432.73</ele>
        <time>2019-03-28T14:02:53Z</time>
      </trkpt>
      <trkpt lat="44.74387" lon="5.38926">
        <ele>432.25</ele>
        <time>2019-03-28T14:02:59Z</time>
      </trkpt>
      <trkpt lat="44.74392" lon="5.38913">
        <ele>430.81</ele>
        <time>2019-03-28T14:03:07Z</time>
      </trkpt>
      <trkpt lat="44.744" lon="5.389">
        <ele>430.81</ele>
        <time>2019-03-28T14:03:16Z</time>
      </trkpt>
      <trkpt lat="44.74404" lon="5.38895">
        <ele>429.37</ele>
        <time>2019-03-28T14:03:20Z</time>
      </trkpt>
      <trkpt lat="44.74411" lon="5.38886">
        <ele>431.29</ele>
        <time>2019-03-28T14:03:27Z</time>
      </trkpt>
      <trkpt lat="44.74413" lon="5.38884">
        <ele>431.29</ele>
        <time>2019-03-28T14:03:29Z</time>
      </trkpt>
      <trkpt lat="44.74415" lon="5.38882">
        <ele>430.81</ele>
        <time>2019-03-28T14:03:31Z</time>
      </trkpt>
      <trkpt lat="44.74427" lon="5.38869">
        <ele>430.81</ele>
        <time>2019-03-28T14:03:43Z</time>
      </trkpt>
      <trkpt lat="44.74437" lon="5.38856">
        <ele>431.29</ele>
        <time>2019-03-28T14:03:54Z</time>
      </trkpt>
      <trkpt lat="44.74444" lon="5.38848">
        <ele>430.81</ele>
        <time>2019-03-28T14:04:01Z</time>
      </trkpt>
      <trkpt lat="44.74454" lon="5.38839">
        <ele>431.29</ele>
        <time>2019-03-28T14:04:10Z</time>
      </trkpt>
      <trkpt lat="44.74462" lon="5.38828">
        <ele>429.85</ele>
        <time>2019-03-28T14:04:19Z</time>
      </trkpt>
      <trkpt lat="44.7447" lon="5.38816">
        <ele>429.37</ele>
        <time>2019-03-28T14:04:28Z</time>
      </trkpt>
      <trkpt lat="44.74478" lon="5.38802">
        <ele>430.81</ele>
        <time>2019-03-28T14:04:38Z</time>
      </trkpt>
      <trkpt lat="44.74479" lon="5.38801">
        <ele>429.85</ele>
        <time>2019-03-28T14:04:39Z</time>
      </trkpt>
      <trkpt lat="44.74487" lon="5.38786">
        <ele>430.81</ele>
        <time>2019-03-28T14:04:50Z</time>
      </trkpt>
      <trkpt lat="44.74493" lon="5.38775">
        <ele>429.85</ele>
        <time>2019-03-28T14:04:57Z</time>
      </trkpt>
      <trkpt lat="44.74502" lon="5.38761">
        <ele>429.37</ele>
        <time>2019-03-28T14:05:08Z</time>
      </trkpt>
      <trkpt lat="44.74509" lon="5.38749">
        <ele>427.44</ele>
        <time>2019-03-28T14:05:17Z</time>
      </trkpt>
      <trkpt lat="44.74514" lon="5.38738">
        <ele>426.96</ele>
        <time>2019-03-28T14:05:24Z</time>
      </trkpt>
      <trkpt lat="44.74518" lon="5.3873">
        <ele>427.44</ele>
        <time>2019-03-28T14:05:29Z</time>
      </trkpt>
      <trkpt lat="44.7452" lon="5.38728">
        <ele>426.96</ele>
        <time>2019-03-28T14:05:31Z</time>
      </trkpt>
      <trkpt lat="44.74529" lon="5.38715">
        <ele>425.52</ele>
        <time>2019-03-28T14:05:41Z</time>
      </trkpt>
      <trkpt lat="44.7454" lon="5.38703">
        <ele>425.52</ele>
        <time>2019-03-28T14:05:52Z</time>
      </trkpt>
      <trkpt lat="44.74547" lon="5.38695">
        <ele>424.08</ele>
        <time>2019-03-28T14:05:59Z</time>
      </trkpt>
      <trkpt lat="44.7455" lon="5.38691">
        <ele>423.6</ele>
        <time>2019-03-28T14:06:02Z</time>
      </trkpt>
      <trkpt lat="44.7456" lon="5.38682">
        <ele>423.12</ele>
        <time>2019-03-28T14:06:11Z</time>
      </trkpt>
      <trkpt lat="44.74573" lon="5.38668">
        <ele>421.68</ele>
        <time>2019-03-28T14:06:24Z</time>
      </trkpt>
      <trkpt lat="44.74584" lon="5.38656">
        <ele>421.19</ele>
        <time>2019-03-28T14:06:34Z</time>
      </trkpt>
      <trkpt lat="44.74594" lon="5.38638">
        <ele>419.75</ele>
        <time>2019-03-28T14:06:46Z</time>
      </trkpt>
      <trkpt lat="44.74599" lon="5.38625">
        <ele>419.27</ele>
        <time>2019-03-28T14:06:55Z</time>
      </trkpt>
      <trkpt lat="44.74603" lon="5.38616">
        <ele>419.27</ele>
        <time>2019-03-28T14:07:01Z</time>
      </trkpt>
      <trkpt lat="44.74606" lon="5.38604">
        <ele>418.31</ele>
        <time>2019-03-28T14:07:08Z</time>
      </trkpt>
      <trkpt lat="44.74608" lon="5.38585">
        <ele>417.83</ele>
        <time>2019-03-28T14:07:18Z</time>
      </trkpt>
      <trkpt lat="44.7461" lon="5.38564">
        <ele>417.83</ele>
        <time>2019-03-28T14:07:30Z</time>
      </trkpt>
      <trkpt lat="44.74613" lon="5.38547">
        <ele>418.31</ele>
        <time>2019-03-28T14:07:40Z</time>
      </trkpt>
      <trkpt lat="44.74614" lon="5.38537">
        <ele>414.95</ele>
        <time>2019-03-28T14:07:45Z</time>
      </trkpt>
      <trkpt lat="44.74614" lon="5.38536">
        <ele>416.39</ele>
        <time>2019-03-28T14:07:46Z</time>
      </trkpt>
      <trkpt lat="44.74614" lon="5.38532">
        <ele>419.75</ele>
        <time>2019-03-28T14:07:48Z</time>
      </trkpt>
      <trkpt lat="44.74614" lon="5.38519">
        <ele>416.39</ele>
        <time>2019-03-28T14:07:55Z</time>
      </trkpt>
      <trkpt lat="44.74613" lon="5.38513">
        <ele>417.35</ele>
        <time>2019-03-28T14:07:59Z</time>
      </trkpt>
      <trkpt lat="44.74613" lon="5.38494">
        <ele>415.91</ele>
        <time>2019-03-28T14:08:10Z</time>
      </trkpt>
      <trkpt lat="44.74613" lon="5.38489">
        <ele>415.91</ele>
        <time>2019-03-28T14:08:13Z</time>
      </trkpt>
      <trkpt lat="44.74614" lon="5.38471">
        <ele>414.95</ele>
        <time>2019-03-28T14:08:23Z</time>
      </trkpt>
      <trkpt lat="44.74614" lon="5.38469">
        <ele>414.95</ele>
        <time>2019-03-28T14:08:24Z</time>
      </trkpt>
      <trkpt lat="44.74614" lon="5.3846">
        <ele>413.98</ele>
        <time>2019-03-28T14:08:29Z</time>
      </trkpt>
      <trkpt lat="44.74616" lon="5.38447">
        <ele>413.98</ele>
        <time>2019-03-28T14:08:40Z</time>
      </trkpt>
      <trkpt lat="44.74617" lon="5.38447">
        <ele>411.58</ele>
        <time>2019-03-28T14:08:57Z</time>
      </trkpt>
      <trkpt lat="44.74617" lon="5.38446">
        <ele>414.95</ele>
        <time>2019-03-28T14:08:58Z</time>
      </trkpt>
      <trkpt lat="44.74619" lon="5.38445">
        <ele>413.02</ele>
        <time>2019-03-28T14:09:12Z</time>
      </trkpt>
      <trkpt lat="44.74619" lon="5.38445">
        <ele>413.98</ele>
        <time>2019-03-28T14:09:35Z</time>
      </trkpt>
      <trkpt lat="44.74619" lon="5.38444">
        <ele>414.47</ele>
        <time>2019-03-28T14:09:52Z</time>
      </trkpt>
      <trkpt lat="44.74619" lon="5.38443">
        <ele>411.1</ele>
        <time>2019-03-28T14:09:58Z</time>
      </trkpt>
      <trkpt lat="44.7462" lon="5.38432">
        <ele>413.02</ele>
        <time>2019-03-28T14:10:08Z</time>
      </trkpt>
      <trkpt lat="44.74628" lon="5.38418">
        <ele>413.02</ele>
        <time>2019-03-28T14:10:21Z</time>
      </trkpt>
      <trkpt lat="44.74631" lon="5.38412">
        <ele>412.54</ele>
        <time>2019-03-28T14:10:26Z</time>
      </trkpt>
      <trkpt lat="44.74639" lon="5.38399">
        <ele>412.06</ele>
        <time>2019-03-28T14:10:37Z</time>
      </trkpt>
      <trkpt lat="44.74646" lon="5.38387">
        <ele>413.02</ele>
        <time>2019-03-28T14:10:48Z</time>
      </trkpt>
      <trkpt lat="44.7465" lon="5.38382">
        <ele>413.02</ele>
        <time>2019-03-28T14:10:53Z</time>
      </trkpt>
      <trkpt lat="44.74656" lon="5.3837">
        <ele>413.02</ele>
        <time>2019-03-28T14:11:02Z</time>
      </trkpt>
      <trkpt lat="44.74663" lon="5.38357">
        <ele>411.58</ele>
        <time>2019-03-28T14:11:12Z</time>
      </trkpt>
      <trkpt lat="44.74664" lon="5.38354">
        <ele>412.54</ele>
        <time>2019-03-28T14:11:14Z</time>
      </trkpt>
      <trkpt lat="44.74669" lon="5.38344">
        <ele>413.5</ele>
        <time>2019-03-28T14:11:23Z</time>
      </trkpt>
      <trkpt lat="44.7467" lon="5.38329">
        <ele>411.58</ele>
        <time>2019-03-28T14:11:35Z</time>
      </trkpt>
      <trkpt lat="44.74678" lon="5.38315">
        <ele>411.1</ele>
        <time>2019-03-28T14:11:47Z</time>
      </trkpt>
      <trkpt lat="44.7468" lon="5.38311">
        <ele>411.58</ele>
        <time>2019-03-28T14:11:50Z</time>
      </trkpt>
      <trkpt lat="44.74683" lon="5.38306">
        <ele>412.54</ele>
        <time>2019-03-28T14:11:54Z</time>
      </trkpt>
      <trkpt lat="44.74691" lon="5.38292">
        <ele>411.1</ele>
        <time>2019-03-28T14:12:06Z</time>
      </trkpt>
      <trkpt lat="44.74697" lon="5.38281">
        <ele>412.06</ele>
        <time>2019-03-28T14:12:16Z</time>
      </trkpt>
      <trkpt lat="44.74698" lon="5.38278">
        <ele>412.06</ele>
        <time>2019-03-28T14:12:20Z</time>
      </trkpt>
      <trkpt lat="44.74696" lon="5.38278">
        <ele>411.1</ele>
        <time>2019-03-28T14:12:35Z</time>
      </trkpt>
      <trkpt lat="44.74693" lon="5.38275">
        <ele>410.62</ele>
        <time>2019-03-28T14:12:44Z</time>
      </trkpt>
      <trkpt lat="44.74692" lon="5.38273">
        <ele>409.66</ele>
        <time>2019-03-28T14:12:46Z</time>
      </trkpt>
      <trkpt lat="44.7469" lon="5.38269">
        <ele>409.18</ele>
        <time>2019-03-28T14:12:54Z</time>
      </trkpt>
      <trkpt lat="44.7469" lon="5.38269">
        <ele>408.7</ele>
        <time>2019-03-28T14:12:55Z</time>
      </trkpt>
      <trkpt lat="44.74687" lon="5.38269">
        <ele>410.62</ele>
        <time>2019-03-28T14:13:05Z</time>
      </trkpt>
      <trkpt lat="44.74686" lon="5.3827">
        <ele>411.1</ele>
        <time>2019-03-28T14:13:07Z</time>
      </trkpt>
      <trkpt lat="44.74678" lon="5.38283">
        <ele>410.14</ele>
        <time>2019-03-28T14:13:21Z</time>
      </trkpt>
      <trkpt lat="44.74675" lon="5.38284">
        <ele>410.14</ele>
        <time>2019-03-28T14:13:25Z</time>
      </trkpt>
      <trkpt lat="44.74674" lon="5.38282">
        <ele>412.54</ele>
        <time>2019-03-28T14:13:27Z</time>
      </trkpt>
      <trkpt lat="44.74671" lon="5.38282">
        <ele>409.66</ele>
        <time>2019-03-28T14:13:29Z</time>
      </trkpt>
      <trkpt lat="44.74656" lon="5.38275">
        <ele>407.74</ele>
        <time>2019-03-28T14:13:41Z</time>
      </trkpt>
      <trkpt lat="44.74656" lon="5.38274">
        <ele>408.7</ele>
        <time>2019-03-28T14:13:42Z</time>
      </trkpt>
      <trkpt lat="44.74648" lon="5.3827">
        <ele>408.7</ele>
        <time>2019-03-28T14:13:49Z</time>
      </trkpt>
      <trkpt lat="44.7464" lon="5.38263">
        <ele>407.26</ele>
        <time>2019-03-28T14:13:58Z</time>
      </trkpt>
      <trkpt lat="44.74635" lon="5.3826">
        <ele>407.26</ele>
        <time>2019-03-28T14:14:02Z</time>
      </trkpt>
      <trkpt lat="44.74628" lon="5.38244">
        <ele>406.77</ele>
        <time>2019-03-28T14:14:15Z</time>
      </trkpt>
      <trkpt lat="44.74625" lon="5.38237">
        <ele>407.26</ele>
        <time>2019-03-28T14:14:25Z</time>
      </trkpt>
      <trkpt lat="44.74625" lon="5.38233">
        <ele>406.77</ele>
        <time>2019-03-28T14:14:37Z</time>
      </trkpt>
      <trkpt lat="44.74625" lon="5.38226">
        <ele>406.29</ele>
        <time>2019-03-28T14:14:49Z</time>
      </trkpt>
      <trkpt lat="44.74628" lon="5.38214">
        <ele>407.26</ele>
        <time>2019-03-28T14:14:56Z</time>
      </trkpt>
      <trkpt lat="44.74629" lon="5.38206">
        <ele>407.74</ele>
        <time>2019-03-28T14:15:00Z</time>
      </trkpt>
      <trkpt lat="44.74633" lon="5.38201">
        <ele>408.22</ele>
        <time>2019-03-28T14:15:05Z</time>
      </trkpt>
      <trkpt lat="44.74639" lon="5.38179">
        <ele>407.74</ele>
        <time>2019-03-28T14:15:19Z</time>
      </trkpt>
      <trkpt lat="44.7464" lon="5.38173">
        <ele>407.74</ele>
        <time>2019-03-28T14:15:23Z</time>
      </trkpt>
      <trkpt lat="44.74644" lon="5.38166">
        <ele>406.29</ele>
        <time>2019-03-28T14:15:29Z</time>
      </trkpt>
      <trkpt lat="44.74646" lon="5.38158">
        <ele>407.74</ele>
        <time>2019-03-28T14:15:34Z</time>
      </trkpt>
      <trkpt lat="44.74651" lon="5.38144">
        <ele>405.33</ele>
        <time>2019-03-28T14:15:45Z</time>
      </trkpt>
      <trkpt lat="44.74651" lon="5.38143">
        <ele>408.7</ele>
        <time>2019-03-28T14:15:46Z</time>
      </trkpt>
      <trkpt lat="44.74652" lon="5.38138">
        <ele>407.74</ele>
        <time>2019-03-28T14:15:50Z</time>
      </trkpt>
      <trkpt lat="44.74653" lon="5.38134">
        <ele>406.29</ele>
        <time>2019-03-28T14:15:52Z</time>
      </trkpt>
      <trkpt lat="44.74656" lon="5.38127">
        <ele>407.26</ele>
        <time>2019-03-28T14:15:57Z</time>
      </trkpt>
      <trkpt lat="44.74663" lon="5.3811">
        <ele>406.77</ele>
        <time>2019-03-28T14:16:09Z</time>
      </trkpt>
      <trkpt lat="44.74667" lon="5.38102">
        <ele>407.74</ele>
        <time>2019-03-28T14:16:15Z</time>
      </trkpt>
      <trkpt lat="44.74672" lon="5.38087">
        <ele>407.74</ele>
        <time>2019-03-28T14:16:26Z</time>
      </trkpt>
      <trkpt lat="44.74678" lon="5.38072">
        <ele>406.29</ele>
        <time>2019-03-28T14:16:36Z</time>
      </trkpt>
      <trkpt lat="44.74684" lon="5.38058">
        <ele>405.81</ele>
        <time>2019-03-28T14:16:45Z</time>
      </trkpt>
      <trkpt lat="44.74689" lon="5.38047">
        <ele>406.29</ele>
        <time>2019-03-28T14:16:54Z</time>
      </trkpt>
      <trkpt lat="44.74694" lon="5.3803">
        <ele>405.81</ele>
        <time>2019-03-28T14:17:06Z</time>
      </trkpt>
      <trkpt lat="44.74695" lon="5.38025">
        <ele>405.33</ele>
        <time>2019-03-28T14:17:10Z</time>
      </trkpt>
      <trkpt lat="44.74703" lon="5.38007">
        <ele>405.33</ele>
        <time>2019-03-28T14:17:22Z</time>
      </trkpt>
      <trkpt lat="44.74706" lon="5.37998">
        <ele>404.37</ele>
        <time>2019-03-28T14:17:28Z</time>
      </trkpt>
      <trkpt lat="44.74709" lon="5.3799">
        <ele>404.85</ele>
        <time>2019-03-28T14:17:33Z</time>
      </trkpt>
      <trkpt lat="44.74711" lon="5.37986">
        <ele>404.85</ele>
        <time>2019-03-28T14:17:36Z</time>
      </trkpt>
      <trkpt lat="44.74716" lon="5.37975">
        <ele>404.85</ele>
        <time>2019-03-28T14:17:44Z</time>
      </trkpt>
      <trkpt lat="44.74719" lon="5.3797">
        <ele>404.85</ele>
        <time>2019-03-28T14:17:48Z</time>
      </trkpt>
      <trkpt lat="44.7472" lon="5.37968">
        <ele>403.89</ele>
        <time>2019-03-28T14:17:50Z</time>
      </trkpt>
      <trkpt lat="44.74723" lon="5.37961">
        <ele>403.89</ele>
        <time>2019-03-28T14:17:55Z</time>
      </trkpt>
      <trkpt lat="44.74725" lon="5.37958">
        <ele>404.37</ele>
        <time>2019-03-28T14:17:57Z</time>
      </trkpt>
      <trkpt lat="44.74726" lon="5.37953">
        <ele>403.89</ele>
        <time>2019-03-28T14:18:01Z</time>
      </trkpt>
      <trkpt lat="44.74728" lon="5.37949">
        <ele>405.81</ele>
        <time>2019-03-28T14:18:04Z</time>
      </trkpt>
      <trkpt lat="44.74729" lon="5.37946">
        <ele>403.89</ele>
        <time>2019-03-28T14:18:06Z</time>
      </trkpt>
      <trkpt lat="44.74733" lon="5.37932">
        <ele>403.89</ele>
        <time>2019-03-28T14:18:16Z</time>
      </trkpt>
      <trkpt lat="44.74735" lon="5.37926">
        <ele>404.85</ele>
        <time>2019-03-28T14:18:20Z</time>
      </trkpt>
      <trkpt lat="44.74742" lon="5.3791">
        <ele>402.45</ele>
        <time>2019-03-28T14:18:33Z</time>
      </trkpt>
      <trkpt lat="44.74744" lon="5.37906">
        <ele>404.37</ele>
        <time>2019-03-28T14:18:36Z</time>
      </trkpt>
      <trkpt lat="44.7475" lon="5.37891">
        <ele>403.89</ele>
        <time>2019-03-28T14:18:47Z</time>
      </trkpt>
      <trkpt lat="44.74754" lon="5.37883">
        <ele>405.33</ele>
        <time>2019-03-28T14:18:52Z</time>
      </trkpt>
      <trkpt lat="44.74756" lon="5.37876">
        <ele>401.97</ele>
        <time>2019-03-28T14:18:57Z</time>
      </trkpt>
      <trkpt lat="44.74756" lon="5.37872">
        <ele>404.37</ele>
        <time>2019-03-28T14:19:00Z</time>
      </trkpt>
      <trkpt lat="44.74762" lon="5.37854">
        <ele>404.37</ele>
        <time>2019-03-28T14:19:12Z</time>
      </trkpt>
      <trkpt lat="44.74764" lon="5.37848">
        <ele>404.85</ele>
        <time>2019-03-28T14:19:17Z</time>
      </trkpt>
      <trkpt lat="44.74765" lon="5.37846">
        <ele>404.37</ele>
        <time>2019-03-28T14:19:18Z</time>
      </trkpt>
      <trkpt lat="44.74766" lon="5.37839">
        <ele>404.37</ele>
        <time>2019-03-28T14:19:22Z</time>
      </trkpt>
      <trkpt lat="44.74769" lon="5.37833">
        <ele>403.41</ele>
        <time>2019-03-28T14:19:26Z</time>
      </trkpt>
      <trkpt lat="44.74778" lon="5.37818">
        <ele>404.37</ele>
        <time>2019-03-28T14:19:38Z</time>
      </trkpt>
      <trkpt lat="44.74778" lon="5.37815">
        <ele>402.93</ele>
        <time>2019-03-28T14:19:40Z</time>
      </trkpt>
      <trkpt lat="44.74779" lon="5.37812">
        <ele>404.37</ele>
        <time>2019-03-28T14:19:42Z</time>
      </trkpt>
      <trkpt lat="44.74781" lon="5.37809">
        <ele>402.93</ele>
        <time>2019-03-28T14:19:44Z</time>
      </trkpt>
      <trkpt lat="44.74781" lon="5.37808">
        <ele>404.37</ele>
        <time>2019-03-28T14:19:45Z</time>
      </trkpt>
      <trkpt lat="44.74785" lon="5.37803">
        <ele>403.41</ele>
        <time>2019-03-28T14:19:50Z</time>
      </trkpt>
      <trkpt lat="44.74793" lon="5.37787">
        <ele>403.41</ele>
        <time>2019-03-28T14:20:02Z</time>
      </trkpt>
      <trkpt lat="44.74798" lon="5.37768">
        <ele>403.89</ele>
        <time>2019-03-28T14:20:14Z</time>
      </trkpt>
      <trkpt lat="44.74802" lon="5.37753">
        <ele>403.41</ele>
        <time>2019-03-28T14:20:24Z</time>
      </trkpt>
      <trkpt lat="44.74808" lon="5.3774">
        <ele>403.41</ele>
        <time>2019-03-28T14:20:34Z</time>
      </trkpt>
      <trkpt lat="44.74813" lon="5.37728">
        <ele>402.93</ele>
        <time>2019-03-28T14:20:44Z</time>
      </trkpt>
      <trkpt lat="44.74814" lon="5.37725">
        <ele>404.37</ele>
        <time>2019-03-28T14:20:46Z</time>
      </trkpt>
      <trkpt lat="44.7482" lon="5.37712">
        <ele>403.41</ele>
        <time>2019-03-28T14:20:57Z</time>
      </trkpt>
      <trkpt lat="44.74822" lon="5.37705">
        <ele>403.89</ele>
        <time>2019-03-28T14:21:00Z</time>
      </trkpt>
      <trkpt lat="44.74828" lon="5.37687">
        <ele>403.41</ele>
        <time>2019-03-28T14:21:12Z</time>
      </trkpt>
      <trkpt lat="44.74834" lon="5.37672">
        <ele>403.41</ele>
        <time>2019-03-28T14:21:22Z</time>
      </trkpt>
      <trkpt lat="44.74838" lon="5.37659">
        <ele>402.93</ele>
        <time>2019-03-28T14:21:31Z</time>
      </trkpt>
      <trkpt lat="44.74843" lon="5.37646">
        <ele>402.93</ele>
        <time>2019-03-28T14:21:41Z</time>
      </trkpt>
      <trkpt lat="44.74849" lon="5.37633">
        <ele>403.41</ele>
        <time>2019-03-28T14:21:52Z</time>
      </trkpt>
      <trkpt lat="44.74855" lon="5.37624">
        <ele>403.89</ele>
        <time>2019-03-28T14:22:03Z</time>
      </trkpt>
      <trkpt lat="44.74856" lon="5.37625">
        <ele>402.45</ele>
        <time>2019-03-28T14:22:16Z</time>
      </trkpt>
      <trkpt lat="44.74856" lon="5.37625">
        <ele>403.41</ele>
        <time>2019-03-28T14:22:18Z</time>
      </trkpt>
      <trkpt lat="44.74859" lon="5.37619">
        <ele>404.85</ele>
        <time>2019-03-28T14:22:33Z</time>
      </trkpt>
      <trkpt lat="44.74861" lon="5.37606">
        <ele>402.93</ele>
        <time>2019-03-28T14:22:44Z</time>
      </trkpt>
      <trkpt lat="44.74863" lon="5.37603">
        <ele>403.41</ele>
        <time>2019-03-28T14:22:56Z</time>
      </trkpt>
      <trkpt lat="44.74865" lon="5.37594">
        <ele>402.93</ele>
        <time>2019-03-28T14:23:10Z</time>
      </trkpt>
      <trkpt lat="44.74868" lon="5.37582">
        <ele>403.41</ele>
        <time>2019-03-28T14:23:18Z</time>
      </trkpt>
      <trkpt lat="44.74872" lon="5.37567">
        <ele>401.97</ele>
        <time>2019-03-28T14:23:29Z</time>
      </trkpt>
      <trkpt lat="44.74875" lon="5.37553">
        <ele>401.49</ele>
        <time>2019-03-28T14:23:39Z</time>
      </trkpt>
      <trkpt lat="44.74876" lon="5.37552">
        <ele>401.49</ele>
        <time>2019-03-28T14:23:40Z</time>
      </trkpt>
      <trkpt lat="44.74876" lon="5.37538">
        <ele>401.49</ele>
        <time>2019-03-28T14:23:50Z</time>
      </trkpt>
      <trkpt lat="44.74877" lon="5.37536">
        <ele>402.45</ele>
        <time>2019-03-28T14:23:52Z</time>
      </trkpt>
      <trkpt lat="44.74878" lon="5.37518">
        <ele>401.97</ele>
        <time>2019-03-28T14:24:03Z</time>
      </trkpt>
      <trkpt lat="44.7488" lon="5.37499">
        <ele>401.49</ele>
        <time>2019-03-28T14:24:14Z</time>
      </trkpt>
      <trkpt lat="44.7488" lon="5.37486">
        <ele>400.53</ele>
        <time>2019-03-28T14:24:23Z</time>
      </trkpt>
      <trkpt lat="44.74879" lon="5.37484">
        <ele>401.97</ele>
        <time>2019-03-28T14:24:25Z</time>
      </trkpt>
      <trkpt lat="44.74881" lon="5.37467">
        <ele>401.01</ele>
        <time>2019-03-28T14:24:34Z</time>
      </trkpt>
      <trkpt lat="44.74885" lon="5.37449">
        <ele>401.97</ele>
        <time>2019-03-28T14:24:45Z</time>
      </trkpt>
      <trkpt lat="44.74884" lon="5.37441">
        <ele>401.49</ele>
        <time>2019-03-28T14:24:56Z</time>
      </trkpt>
      <trkpt lat="44.74882" lon="5.37434">
        <ele>401.97</ele>
        <time>2019-03-28T14:25:11Z</time>
      </trkpt>
      <trkpt lat="44.74881" lon="5.37431">
        <ele>398.6</ele>
        <time>2019-03-28T14:25:14Z</time>
      </trkpt>
      <trkpt lat="44.74881" lon="5.37417">
        <ele>398.6</ele>
        <time>2019-03-28T14:25:22Z</time>
      </trkpt>
      <trkpt lat="44.74881" lon="5.37416">
        <ele>402.93</ele>
        <time>2019-03-28T14:25:23Z</time>
      </trkpt>
      <trkpt lat="44.74881" lon="5.37408">
        <ele>399.57</ele>
        <time>2019-03-28T14:25:29Z</time>
      </trkpt>
      <trkpt lat="44.74882" lon="5.37404">
        <ele>401.01</ele>
        <time>2019-03-28T14:25:31Z</time>
      </trkpt>
      <trkpt lat="44.74881" lon="5.37403">
        <ele>399.57</ele>
        <time>2019-03-28T14:25:32Z</time>
      </trkpt>
      <trkpt lat="44.74881" lon="5.37396">
        <ele>401.49</ele>
        <time>2019-03-28T14:25:36Z</time>
      </trkpt>
      <trkpt lat="44.74882" lon="5.37389">
        <ele>399.57</ele>
        <time>2019-03-28T14:25:39Z</time>
      </trkpt>
      <trkpt lat="44.74884" lon="5.37383">
        <ele>401.01</ele>
        <time>2019-03-28T14:25:42Z</time>
      </trkpt>
      <trkpt lat="44.74885" lon="5.37378">
        <ele>399.08</ele>
        <time>2019-03-28T14:25:45Z</time>
      </trkpt>
      <trkpt lat="44.74886" lon="5.37364">
        <ele>400.05</ele>
        <time>2019-03-28T14:25:55Z</time>
      </trkpt>
      <trkpt lat="44.74885" lon="5.37356">
        <ele>401.49</ele>
        <time>2019-03-28T14:26:02Z</time>
      </trkpt>
      <trkpt lat="44.74884" lon="5.37348">
        <ele>399.57</ele>
        <time>2019-03-28T14:26:07Z</time>
      </trkpt>
      <trkpt lat="44.74885" lon="5.37333">
        <ele>400.05</ele>
        <time>2019-03-28T14:26:19Z</time>
      </trkpt>
      <trkpt lat="44.74885" lon="5.37321">
        <ele>400.53</ele>
        <time>2019-03-28T14:26:25Z</time>
      </trkpt>
      <trkpt lat="44.74886" lon="5.37299">
        <ele>399.08</ele>
        <time>2019-03-28T14:26:37Z</time>
      </trkpt>
      <trkpt lat="44.74886" lon="5.37287">
        <ele>398.12</ele>
        <time>2019-03-28T14:26:47Z</time>
      </trkpt>
      <trkpt lat="44.74889" lon="5.37268">
        <ele>398.6</ele>
        <time>2019-03-28T14:26:56Z</time>
      </trkpt>
      <trkpt lat="44.7489" lon="5.37256">
        <ele>397.64</ele>
        <time>2019-03-28T14:27:03Z</time>
      </trkpt>
      <trkpt lat="44.74889" lon="5.37236">
        <ele>397.16</ele>
        <time>2019-03-28T14:27:16Z</time>
      </trkpt>
      <trkpt lat="44.74886" lon="5.37223">
        <ele>396.2</ele>
        <time>2019-03-28T14:27:27Z</time>
      </trkpt>
      <trkpt lat="44.74885" lon="5.37215">
        <ele>397.16</ele>
        <time>2019-03-28T14:27:35Z</time>
      </trkpt>
      <trkpt lat="44.74885" lon="5.37206">
        <ele>398.12</ele>
        <time>2019-03-28T14:27:45Z</time>
      </trkpt>
      <trkpt lat="44.74885" lon="5.37203">
        <ele>400.05</ele>
        <time>2019-03-28T14:27:47Z</time>
      </trkpt>
      <trkpt lat="44.7488" lon="5.3719">
        <ele>396.68</ele>
        <time>2019-03-28T14:27:56Z</time>
      </trkpt>
      <trkpt lat="44.74879" lon="5.37189">
        <ele>398.6</ele>
        <time>2019-03-28T14:27:57Z</time>
      </trkpt>
      <trkpt lat="44.74876" lon="5.37181">
        <ele>398.6</ele>
        <time>2019-03-28T14:28:02Z</time>
      </trkpt>
      <trkpt lat="44.74875" lon="5.37171">
        <ele>399.08</ele>
        <time>2019-03-28T14:28:07Z</time>
      </trkpt>
      <trkpt lat="44.74872" lon="5.37154">
        <ele>399.08</ele>
        <time>2019-03-28T14:28:17Z</time>
      </trkpt>
      <trkpt lat="44.74871" lon="5.37147">
        <ele>398.6</ele>
        <time>2019-03-28T14:28:21Z</time>
      </trkpt>
      <trkpt lat="44.7487" lon="5.37143">
        <ele>398.12</ele>
        <time>2019-03-28T14:28:24Z</time>
      </trkpt>
      <trkpt lat="44.74866" lon="5.37124">
        <ele>398.12</ele>
        <time>2019-03-28T14:28:35Z</time>
      </trkpt>
      <trkpt lat="44.74866" lon="5.37123">
        <ele>399.08</ele>
        <time>2019-03-28T14:28:36Z</time>
      </trkpt>
      <trkpt lat="44.74864" lon="5.37116">
        <ele>397.64</ele>
        <time>2019-03-28T14:28:41Z</time>
      </trkpt>
      <trkpt lat="44.74865" lon="5.37104">
        <ele>398.6</ele>
        <time>2019-03-28T14:28:50Z</time>
      </trkpt>
      <trkpt lat="44.7486" lon="5.37089">
        <ele>400.05</ele>
        <time>2019-03-28T14:29:01Z</time>
      </trkpt>
      <trkpt lat="44.7486" lon="5.37087">
        <ele>396.68</ele>
        <time>2019-03-28T14:29:02Z</time>
      </trkpt>
      <trkpt lat="44.7486" lon="5.37084">
        <ele>399.57</ele>
        <time>2019-03-28T14:29:04Z</time>
      </trkpt>
      <trkpt lat="44.7486" lon="5.37083">
        <ele>398.12</ele>
        <time>2019-03-28T14:29:05Z</time>
      </trkpt>
      <trkpt lat="44.74859" lon="5.37075">
        <ele>398.6</ele>
        <time>2019-03-28T14:29:10Z</time>
      </trkpt>
      <trkpt lat="44.74855" lon="5.37052">
        <ele>400.05</ele>
        <time>2019-03-28T14:29:23Z</time>
      </trkpt>
      <trkpt lat="44.74853" lon="5.3704">
        <ele>395.72</ele>
        <time>2019-03-28T14:29:31Z</time>
      </trkpt>
      <trkpt lat="44.74852" lon="5.37036">
        <ele>399.08</ele>
        <time>2019-03-28T14:29:33Z</time>
      </trkpt>
      <trkpt lat="44.74852" lon="5.37033">
        <ele>398.12</ele>
        <time>2019-03-28T14:29:35Z</time>
      </trkpt>
      <trkpt lat="44.7485" lon="5.37027">
        <ele>400.05</ele>
        <time>2019-03-28T14:29:39Z</time>
      </trkpt>
      <trkpt lat="44.74849" lon="5.37022">
        <ele>397.16</ele>
        <time>2019-03-28T14:29:42Z</time>
      </trkpt>
      <trkpt lat="44.74843" lon="5.37007">
        <ele>397.64</ele>
        <time>2019-03-28T14:29:53Z</time>
      </trkpt>
      <trkpt lat="44.74842" lon="5.37006">
        <ele>398.6</ele>
        <time>2019-03-28T14:29:54Z</time>
      </trkpt>
      <trkpt lat="44.74844" lon="5.36998">
        <ele>394.28</ele>
        <time>2019-03-28T14:29:58Z</time>
      </trkpt>
      <trkpt lat="44.74845" lon="5.36996">
        <ele>399.08</ele>
        <time>2019-03-28T14:29:59Z</time>
      </trkpt>
      <trkpt lat="44.74845" lon="5.36989">
        <ele>397.16</ele>
        <time>2019-03-28T14:30:03Z</time>
      </trkpt>
      <trkpt lat="44.74844" lon="5.36972">
        <ele>396.68</ele>
        <time>2019-03-28T14:30:14Z</time>
      </trkpt>
      <trkpt lat="44.74844" lon="5.36967">
        <ele>399.08</ele>
        <time>2019-03-28T14:30:17Z</time>
      </trkpt>
      <trkpt lat="44.74843" lon="5.36956">
        <ele>398.6</ele>
        <time>2019-03-28T14:30:22Z</time>
      </trkpt>
      <trkpt lat="44.74846" lon="5.36944">
        <ele>398.12</ele>
        <time>2019-03-28T14:30:29Z</time>
      </trkpt>
      <trkpt lat="44.74848" lon="5.36941">
        <ele>394.28</ele>
        <time>2019-03-28T14:30:31Z</time>
      </trkpt>
      <trkpt lat="44.74848" lon="5.3694">
        <ele>397.64</ele>
        <time>2019-03-28T14:30:32Z</time>
      </trkpt>
      <trkpt lat="44.74857" lon="5.36926">
        <ele>398.12</ele>
        <time>2019-03-28T14:30:42Z</time>
      </trkpt>
      <trkpt lat="44.74858" lon="5.36923">
        <ele>396.2</ele>
        <time>2019-03-28T14:30:44Z</time>
      </trkpt>
      <trkpt lat="44.74859" lon="5.36921">
        <ele>398.12</ele>
        <time>2019-03-28T14:30:46Z</time>
      </trkpt>
      <trkpt lat="44.74867" lon="5.36905">
        <ele>395.72</ele>
        <time>2019-03-28T14:30:59Z</time>
      </trkpt>
      <trkpt lat="44.74875" lon="5.36889">
        <ele>396.2</ele>
        <time>2019-03-28T14:31:10Z</time>
      </trkpt>
      <trkpt lat="44.7488" lon="5.36875">
        <ele>397.16</ele>
        <time>2019-03-28T14:31:20Z</time>
      </trkpt>
      <trkpt lat="44.74881" lon="5.36873">
        <ele>395.72</ele>
        <time>2019-03-28T14:31:21Z</time>
      </trkpt>
      <trkpt lat="44.74883" lon="5.36868">
        <ele>397.64</ele>
        <time>2019-03-28T14:31:24Z</time>
      </trkpt>
      <trkpt lat="44.74884" lon="5.36867">
        <ele>397.64</ele>
        <time>2019-03-28T14:31:25Z</time>
      </trkpt>
      <trkpt lat="44.74889" lon="5.36854">
        <ele>397.16</ele>
        <time>2019-03-28T14:31:35Z</time>
      </trkpt>
      <trkpt lat="44.74896" lon="5.36836">
        <ele>398.12</ele>
        <time>2019-03-28T14:31:47Z</time>
      </trkpt>
      <trkpt lat="44.74898" lon="5.36834">
        <ele>394.28</ele>
        <time>2019-03-28T14:31:49Z</time>
      </trkpt>
      <trkpt lat="44.74901" lon="5.36831">
        <ele>398.12</ele>
        <time>2019-03-28T14:31:52Z</time>
      </trkpt>
      <trkpt lat="44.74903" lon="5.36829">
        <ele>393.8</ele>
        <time>2019-03-28T14:31:54Z</time>
      </trkpt>
      <trkpt lat="44.74904" lon="5.36828">
        <ele>396.68</ele>
        <time>2019-03-28T14:31:55Z</time>
      </trkpt>
      <trkpt lat="44.74915" lon="5.36818">
        <ele>394.76</ele>
        <time>2019-03-28T14:32:05Z</time>
      </trkpt>
      <trkpt lat="44.74919" lon="5.36806">
        <ele>396.68</ele>
        <time>2019-03-28T14:32:14Z</time>
      </trkpt>
      <trkpt lat="44.74921" lon="5.36802">
        <ele>393.8</ele>
        <time>2019-03-28T14:32:17Z</time>
      </trkpt>
      <trkpt lat="44.74924" lon="5.36799">
        <ele>396.2</ele>
        <time>2019-03-28T14:32:20Z</time>
      </trkpt>
      <trkpt lat="44.74927" lon="5.36794">
        <ele>395.24</ele>
        <time>2019-03-28T14:32:24Z</time>
      </trkpt>
      <trkpt lat="44.7493" lon="5.36788">
        <ele>395.24</ele>
        <time>2019-03-28T14:32:29Z</time>
      </trkpt>
      <trkpt lat="44.74937" lon="5.36774">
        <ele>394.76</ele>
        <time>2019-03-28T14:32:40Z</time>
      </trkpt>
      <trkpt lat="44.74943" lon="5.36763">
        <ele>395.24</ele>
        <time>2019-03-28T14:32:50Z</time>
      </trkpt>
      <trkpt lat="44.74944" lon="5.3676">
        <ele>399.08</ele>
        <time>2019-03-28T14:32:52Z</time>
      </trkpt>
      <trkpt lat="44.74945" lon="5.36759">
        <ele>394.76</ele>
        <time>2019-03-28T14:32:53Z</time>
      </trkpt>
      <trkpt lat="44.74949" lon="5.36752">
        <ele>394.76</ele>
        <time>2019-03-28T14:33:00Z</time>
      </trkpt>
      <trkpt lat="44.74952" lon="5.36748">
        <ele>395.72</ele>
        <time>2019-03-28T14:33:09Z</time>
      </trkpt>
      <trkpt lat="44.74954" lon="5.36743">
        <ele>397.16</ele>
        <time>2019-03-28T14:33:23Z</time>
      </trkpt>
      <trkpt lat="44.74957" lon="5.3674">
        <ele>396.68</ele>
        <time>2019-03-28T14:33:35Z</time>
      </trkpt>
      <trkpt lat="44.74958" lon="5.36742">
        <ele>397.64</ele>
        <time>2019-03-28T14:33:37Z</time>
      </trkpt>
      <trkpt lat="44.74958" lon="5.36745">
        <ele>395.24</ele>
        <time>2019-03-28T14:33:40Z</time>
      </trkpt>
      <trkpt lat="44.74958" lon="5.36759">
        <ele>394.76</ele>
        <time>2019-03-28T14:33:52Z</time>
      </trkpt>
      <trkpt lat="44.74959" lon="5.36759">
        <ele>394.28</ele>
        <time>2019-03-28T14:34:07Z</time>
      </trkpt>
      <trkpt lat="44.74959" lon="5.3676">
        <ele>396.68</ele>
        <time>2019-03-28T14:34:08Z</time>
      </trkpt>
      <trkpt lat="44.74963" lon="5.36761">
        <ele>396.2</ele>
        <time>2019-03-28T14:34:12Z</time>
      </trkpt>
      <trkpt lat="44.74969" lon="5.36755">
        <ele>396.2</ele>
        <time>2019-03-28T14:34:23Z</time>
      </trkpt>
      <trkpt lat="44.74978" lon="5.36744">
        <ele>395.72</ele>
        <time>2019-03-28T14:34:35Z</time>
      </trkpt>
      <trkpt lat="44.7498" lon="5.36742">
        <ele>395.24</ele>
        <time>2019-03-28T14:34:39Z</time>
      </trkpt>
      <trkpt lat="44.74982" lon="5.36742">
        <ele>397.64</ele>
        <time>2019-03-28T14:34:41Z</time>
      </trkpt>
      <trkpt lat="44.74985" lon="5.36744">
        <ele>398.12</ele>
        <time>2019-03-28T14:34:44Z</time>
      </trkpt>
      <trkpt lat="44.74991" lon="5.3675">
        <ele>396.68</ele>
        <time>2019-03-28T14:34:50Z</time>
      </trkpt>
      <trkpt lat="44.74993" lon="5.3675">
        <ele>398.12</ele>
        <time>2019-03-28T14:34:52Z</time>
      </trkpt>
      <trkpt lat="44.75001" lon="5.36752">
        <ele>398.6</ele>
        <time>2019-03-28T14:35:02Z</time>
      </trkpt>
      <trkpt lat="44.75006" lon="5.36753">
        <ele>398.12</ele>
        <time>2019-03-28T14:35:06Z</time>
      </trkpt>
      <trkpt lat="44.75012" lon="5.36751">
        <ele>399.08</ele>
        <time>2019-03-28T14:35:15Z</time>
      </trkpt>
      <trkpt lat="44.75022" lon="5.3675">
        <ele>398.6</ele>
        <time>2019-03-28T14:35:23Z</time>
      </trkpt>
      <trkpt lat="44.75034" lon="5.36751">
        <ele>399.57</ele>
        <time>2019-03-28T14:35:32Z</time>
      </trkpt>
      <trkpt lat="44.7504" lon="5.36751">
        <ele>400.53</ele>
        <time>2019-03-28T14:35:42Z</time>
      </trkpt>
      <trkpt lat="44.7505" lon="5.36752">
        <ele>401.49</ele>
        <time>2019-03-28T14:35:52Z</time>
      </trkpt>
      <trkpt lat="44.75068" lon="5.36752">
        <ele>402.93</ele>
        <time>2019-03-28T14:36:05Z</time>
      </trkpt>
      <trkpt lat="44.7507" lon="5.36755">
        <ele>401.49</ele>
        <time>2019-03-28T14:36:09Z</time>
      </trkpt>
      <trkpt lat="44.75084" lon="5.36769">
        <ele>402.45</ele>
        <time>2019-03-28T14:36:22Z</time>
      </trkpt>
      <trkpt lat="44.75095" lon="5.36783">
        <ele>402.93</ele>
        <time>2019-03-28T14:36:34Z</time>
      </trkpt>
      <trkpt lat="44.75102" lon="5.36798">
        <ele>404.37</ele>
        <time>2019-03-28T14:36:45Z</time>
      </trkpt>
      <trkpt lat="44.7511" lon="5.36815">
        <ele>403.89</ele>
        <time>2019-03-28T14:36:58Z</time>
      </trkpt>
      <trkpt lat="44.75116" lon="5.36826">
        <ele>405.33</ele>
        <time>2019-03-28T14:37:08Z</time>
      </trkpt>
      <trkpt lat="44.75123" lon="5.36836">
        <ele>404.85</ele>
        <time>2019-03-28T14:37:19Z</time>
      </trkpt>
      <trkpt lat="44.75124" lon="5.36839">
        <ele>405.81</ele>
        <time>2019-03-28T14:37:31Z</time>
      </trkpt>
      <trkpt lat="44.75125" lon="5.36838">
        <ele>405.81</ele>
        <time>2019-03-28T14:37:52Z</time>
      </trkpt>
      <trkpt lat="44.75125" lon="5.36841">
        <ele>405.81</ele>
        <time>2019-03-28T14:38:08Z</time>
      </trkpt>
      <trkpt lat="44.75125" lon="5.36841">
        <ele>405.81</ele>
        <time>2019-03-28T14:38:28Z</time>
      </trkpt>
      <trkpt lat="44.75124" lon="5.36841">
        <ele>405.33</ele>
        <time>2019-03-28T14:38:48Z</time>
      </trkpt>
      <trkpt lat="44.75125" lon="5.36841">
        <ele>405.81</ele>
        <time>2019-03-28T14:39:01Z</time>
      </trkpt>
      <trkpt lat="44.75125" lon="5.36842">
        <ele>406.77</ele>
        <time>2019-03-28T14:39:19Z</time>
      </trkpt>
      <trkpt lat="44.75125" lon="5.36845">
        <ele>405.81</ele>
        <time>2019-03-28T14:39:28Z</time>
      </trkpt>
      <trkpt lat="44.75126" lon="5.36845">
        <ele>406.29</ele>
        <time>2019-03-28T14:39:40Z</time>
      </trkpt>
      <trkpt lat="44.75127" lon="5.36853">
        <ele>406.29</ele>
        <time>2019-03-28T14:39:46Z</time>
      </trkpt>
      <trkpt lat="44.75128" lon="5.3686">
        <ele>406.77</ele>
        <time>2019-03-28T14:39:50Z</time>
      </trkpt>
      <trkpt lat="44.75129" lon="5.36863">
        <ele>406.77</ele>
        <time>2019-03-28T14:39:52Z</time>
      </trkpt>
      <trkpt lat="44.7513" lon="5.36866">
        <ele>407.26</ele>
        <time>2019-03-28T14:39:54Z</time>
      </trkpt>
      <trkpt lat="44.7513" lon="5.3687">
        <ele>406.77</ele>
        <time>2019-03-28T14:39:57Z</time>
      </trkpt>
      <trkpt lat="44.75132" lon="5.36873">
        <ele>407.26</ele>
        <time>2019-03-28T14:40:00Z</time>
      </trkpt>
      <trkpt lat="44.75133" lon="5.36878">
        <ele>407.74</ele>
        <time>2019-03-28T14:40:03Z</time>
      </trkpt>
      <trkpt lat="44.75134" lon="5.3689">
        <ele>408.22</ele>
        <time>2019-03-28T14:40:13Z</time>
      </trkpt>
      <trkpt lat="44.75136" lon="5.36903">
        <ele>409.66</ele>
        <time>2019-03-28T14:40:23Z</time>
      </trkpt>
      <trkpt lat="44.75135" lon="5.36906">
        <ele>410.14</ele>
        <time>2019-03-28T14:40:32Z</time>
      </trkpt>
      <trkpt lat="44.75136" lon="5.36906">
        <ele>409.66</ele>
        <time>2019-03-28T14:40:34Z</time>
      </trkpt>
      <trkpt lat="44.75146" lon="5.36908">
        <ele>410.62</ele>
        <time>2019-03-28T14:40:43Z</time>
      </trkpt>
      <trkpt lat="44.75147" lon="5.36913">
        <ele>412.06</ele>
        <time>2019-03-28T14:40:51Z</time>
      </trkpt>
      <trkpt lat="44.75146" lon="5.36927">
        <ele>411.1</ele>
        <time>2019-03-28T14:40:59Z</time>
      </trkpt>
      <trkpt lat="44.75148" lon="5.36944">
        <ele>412.54</ele>
        <time>2019-03-28T14:41:09Z</time>
      </trkpt>
      <trkpt lat="44.75149" lon="5.36949">
        <ele>413.02</ele>
        <time>2019-03-28T14:41:12Z</time>
      </trkpt>
      <trkpt lat="44.7515" lon="5.36956">
        <ele>412.54</ele>
        <time>2019-03-28T14:41:16Z</time>
      </trkpt>
      <trkpt lat="44.7515" lon="5.36962">
        <ele>410.14</ele>
        <time>2019-03-28T14:41:20Z</time>
      </trkpt>
      <trkpt lat="44.7515" lon="5.3697">
        <ele>413.02</ele>
        <time>2019-03-28T14:41:25Z</time>
      </trkpt>
      <trkpt lat="44.75152" lon="5.36978">
        <ele>413.5</ele>
        <time>2019-03-28T14:41:31Z</time>
      </trkpt>
      <trkpt lat="44.75153" lon="5.36997">
        <ele>413.5</ele>
        <time>2019-03-28T14:41:44Z</time>
      </trkpt>
      <trkpt lat="44.7516" lon="5.37004">
        <ele>413.5</ele>
        <time>2019-03-28T14:41:52Z</time>
      </trkpt>
      <trkpt lat="44.75162" lon="5.37004">
        <ele>413.98</ele>
        <time>2019-03-28T14:41:53Z</time>
      </trkpt>
      <trkpt lat="44.75164" lon="5.37006">
        <ele>414.95</ele>
        <time>2019-03-28T14:41:55Z</time>
      </trkpt>
      <trkpt lat="44.75164" lon="5.37011">
        <ele>413.98</ele>
        <time>2019-03-28T14:41:57Z</time>
      </trkpt>
      <trkpt lat="44.75165" lon="5.37013">
        <ele>414.47</ele>
        <time>2019-03-28T14:41:59Z</time>
      </trkpt>
      <trkpt lat="44.75167" lon="5.37014">
        <ele>413.5</ele>
        <time>2019-03-28T14:42:01Z</time>
      </trkpt>
      <trkpt lat="44.75169" lon="5.37016">
        <ele>414.47</ele>
        <time>2019-03-28T14:42:03Z</time>
      </trkpt>
      <trkpt lat="44.75175" lon="5.37021">
        <ele>414.47</ele>
        <time>2019-03-28T14:42:15Z</time>
      </trkpt>
      <trkpt lat="44.75173" lon="5.37019">
        <ele>413.98</ele>
        <time>2019-03-28T14:42:38Z</time>
      </trkpt>
      <trkpt lat="44.75172" lon="5.37018">
        <ele>415.91</ele>
        <time>2019-03-28T14:42:41Z</time>
      </trkpt>
      <trkpt lat="44.75174" lon="5.37021">
        <ele>413.5</ele>
        <time>2019-03-28T14:42:59Z</time>
      </trkpt>
      <trkpt lat="44.7518" lon="5.37024">
        <ele>414.95</ele>
        <time>2019-03-28T14:43:10Z</time>
      </trkpt>
      <trkpt lat="44.75191" lon="5.37034">
        <ele>415.91</ele>
        <time>2019-03-28T14:43:23Z</time>
      </trkpt>
      <trkpt lat="44.75194" lon="5.37037">
        <ele>415.91</ele>
        <time>2019-03-28T14:43:27Z</time>
      </trkpt>
      <trkpt lat="44.75199" lon="5.37045">
        <ele>414.47</ele>
        <time>2019-03-28T14:43:41Z</time>
      </trkpt>
      <trkpt lat="44.75205" lon="5.37049">
        <ele>415.43</ele>
        <time>2019-03-28T14:43:49Z</time>
      </trkpt>
      <trkpt lat="44.75211" lon="5.37047">
        <ele>414.95</ele>
        <time>2019-03-28T14:43:53Z</time>
      </trkpt>
      <trkpt lat="44.75223" lon="5.37055">
        <ele>413.98</ele>
        <time>2019-03-28T14:44:02Z</time>
      </trkpt>
      <trkpt lat="44.75227" lon="5.37054">
        <ele>417.35</ele>
        <time>2019-03-28T14:44:04Z</time>
      </trkpt>
      <trkpt lat="44.75231" lon="5.37053">
        <ele>415.91</ele>
        <time>2019-03-28T14:44:08Z</time>
      </trkpt>
      <trkpt lat="44.75254" lon="5.37051">
        <ele>416.39</ele>
        <time>2019-03-28T14:44:26Z</time>
      </trkpt>
      <trkpt lat="44.75243" lon="5.37055">
        <ele>417.83</ele>
        <time>2019-03-28T14:45:54Z</time>
      </trkpt>
      <trkpt lat="44.75252" lon="5.37069">
        <ele>416.39</ele>
        <time>2019-03-28T14:46:02Z</time>
      </trkpt>
      <trkpt lat="44.75254" lon="5.37077">
        <ele>417.35</ele>
        <time>2019-03-28T14:46:05Z</time>
      </trkpt>
      <trkpt lat="44.75253" lon="5.3709">
        <ele>416.87</ele>
        <time>2019-03-28T14:46:13Z</time>
      </trkpt>
      <trkpt lat="44.75252" lon="5.37093">
        <ele>418.31</ele>
        <time>2019-03-28T14:46:15Z</time>
      </trkpt>
      <trkpt lat="44.75255" lon="5.37102">
        <ele>419.27</ele>
        <time>2019-03-28T14:46:26Z</time>
      </trkpt>
      <trkpt lat="44.75256" lon="5.37103">
        <ele>416.87</ele>
        <time>2019-03-28T14:46:28Z</time>
      </trkpt>
      <trkpt lat="44.75253" lon="5.37112">
        <ele>418.31</ele>
        <time>2019-03-28T14:46:40Z</time>
      </trkpt>
      <trkpt lat="44.75252" lon="5.37115">
        <ele>417.35</ele>
        <time>2019-03-28T14:46:42Z</time>
      </trkpt>
      <trkpt lat="44.75254" lon="5.37125">
        <ele>418.31</ele>
        <time>2019-03-28T14:46:51Z</time>
      </trkpt>
      <trkpt lat="44.75254" lon="5.37127">
        <ele>417.83</ele>
        <time>2019-03-28T14:46:52Z</time>
      </trkpt>
      <trkpt lat="44.75249" lon="5.37146">
        <ele>417.83</ele>
        <time>2019-03-28T14:47:05Z</time>
      </trkpt>
      <trkpt lat="44.7524" lon="5.37157">
        <ele>417.83</ele>
        <time>2019-03-28T14:47:15Z</time>
      </trkpt>
      <trkpt lat="44.75233" lon="5.3716">
        <ele>416.87</ele>
        <time>2019-03-28T14:47:20Z</time>
      </trkpt>
      <trkpt lat="44.75224" lon="5.37165">
        <ele>417.83</ele>
        <time>2019-03-28T14:47:27Z</time>
      </trkpt>
      <trkpt lat="44.75221" lon="5.37168">
        <ele>416.87</ele>
        <time>2019-03-28T14:47:30Z</time>
      </trkpt>
      <trkpt lat="44.75211" lon="5.37181">
        <ele>415.91</ele>
        <time>2019-03-28T14:47:42Z</time>
      </trkpt>
      <trkpt lat="44.7521" lon="5.37184">
        <ele>417.35</ele>
        <time>2019-03-28T14:47:44Z</time>
      </trkpt>
      <trkpt lat="44.75208" lon="5.37187">
        <ele>416.87</ele>
        <time>2019-03-28T14:47:47Z</time>
      </trkpt>
      <trkpt lat="44.75191" lon="5.37206">
        <ele>416.87</ele>
        <time>2019-03-28T14:48:03Z</time>
      </trkpt>
      <trkpt lat="44.75185" lon="5.37195">
        <ele>413.98</ele>
        <time>2019-03-28T14:48:15Z</time>
      </trkpt>
      <trkpt lat="44.75183" lon="5.37206">
        <ele>413.02</ele>
        <time>2019-03-28T14:48:24Z</time>
      </trkpt>
      <trkpt lat="44.75183" lon="5.37208">
        <ele>412.54</ele>
        <time>2019-03-28T14:48:25Z</time>
      </trkpt>
      <trkpt lat="44.75184" lon="5.37216">
        <ele>412.06</ele>
        <time>2019-03-28T14:48:30Z</time>
      </trkpt>
      <trkpt lat="44.75184" lon="5.3722">
        <ele>412.06</ele>
        <time>2019-03-28T14:48:33Z</time>
      </trkpt>
      <trkpt lat="44.75185" lon="5.37247">
        <ele>410.62</ele>
        <time>2019-03-28T14:48:49Z</time>
      </trkpt>
      <trkpt lat="44.75189" lon="5.37258">
        <ele>409.18</ele>
        <time>2019-03-28T14:48:56Z</time>
      </trkpt>
      <trkpt lat="44.75198" lon="5.37268">
        <ele>409.66</ele>
        <time>2019-03-28T14:49:05Z</time>
      </trkpt>
      <trkpt lat="44.75206" lon="5.3727">
        <ele>407.74</ele>
        <time>2019-03-28T14:49:11Z</time>
      </trkpt>
      <trkpt lat="44.75209" lon="5.37273">
        <ele>409.18</ele>
        <time>2019-03-28T14:49:14Z</time>
      </trkpt>
      <trkpt lat="44.75213" lon="5.37277">
        <ele>408.7</ele>
        <time>2019-03-28T14:49:18Z</time>
      </trkpt>
      <trkpt lat="44.75219" lon="5.37282">
        <ele>407.74</ele>
        <time>2019-03-28T14:49:23Z</time>
      </trkpt>
      <trkpt lat="44.75222" lon="5.37295">
        <ele>407.74</ele>
        <time>2019-03-28T14:49:31Z</time>
      </trkpt>
      <trkpt lat="44.75218" lon="5.37305">
        <ele>407.26</ele>
        <time>2019-03-28T14:49:36Z</time>
      </trkpt>
      <trkpt lat="44.75212" lon="5.37317">
        <ele>406.29</ele>
        <time>2019-03-28T14:49:48Z</time>
      </trkpt>
      <trkpt lat="44.75207" lon="5.37324">
        <ele>406.29</ele>
        <time>2019-03-28T14:49:55Z</time>
      </trkpt>
      <trkpt lat="44.75205" lon="5.37325">
        <ele>406.77</ele>
        <time>2019-03-28T14:49:56Z</time>
      </trkpt>
      <trkpt lat="44.75198" lon="5.37326">
        <ele>405.81</ele>
        <time>2019-03-28T14:50:02Z</time>
      </trkpt>
      <trkpt lat="44.75185" lon="5.37331">
        <ele>405.33</ele>
        <time>2019-03-28T14:50:15Z</time>
      </trkpt>
      <trkpt lat="44.75183" lon="5.3733">
        <ele>404.37</ele>
        <time>2019-03-28T14:50:16Z</time>
      </trkpt>
      <trkpt lat="44.75173" lon="5.37326">
        <ele>405.33</ele>
        <time>2019-03-28T14:50:25Z</time>
      </trkpt>
      <trkpt lat="44.75167" lon="5.37325">
        <ele>406.29</ele>
        <time>2019-03-28T14:50:31Z</time>
      </trkpt>
      <trkpt lat="44.75158" lon="5.37334">
        <ele>402.45</ele>
        <time>2019-03-28T14:50:40Z</time>
      </trkpt>
      <trkpt lat="44.75143" lon="5.37336">
        <ele>402.45</ele>
        <time>2019-03-28T14:50:55Z</time>
      </trkpt>
      <trkpt lat="44.75134" lon="5.37334">
        <ele>402.45</ele>
        <time>2019-03-28T14:51:05Z</time>
      </trkpt>
      <trkpt lat="44.75128" lon="5.37321">
        <ele>402.45</ele>
        <time>2019-03-28T14:51:17Z</time>
      </trkpt>
      <trkpt lat="44.75129" lon="5.37319">
        <ele>403.41</ele>
        <time>2019-03-28T14:51:33Z</time>
      </trkpt>
      <trkpt lat="44.7513" lon="5.37321">
        <ele>404.85</ele>
        <time>2019-03-28T14:51:44Z</time>
      </trkpt>
      <trkpt lat="44.75131" lon="5.37322">
        <ele>401.49</ele>
        <time>2019-03-28T14:51:51Z</time>
      </trkpt>
      <trkpt lat="44.75131" lon="5.37321">
        <ele>402.93</ele>
        <time>2019-03-28T14:52:04Z</time>
      </trkpt>
      <trkpt lat="44.75131" lon="5.37321">
        <ele>403.89</ele>
        <time>2019-03-28T14:52:05Z</time>
      </trkpt>
      <trkpt lat="44.75131" lon="5.3732">
        <ele>402.93</ele>
        <time>2019-03-28T14:52:14Z</time>
      </trkpt>
      <trkpt lat="44.75133" lon="5.37318">
        <ele>402.93</ele>
        <time>2019-03-28T14:52:28Z</time>
      </trkpt>
      <trkpt lat="44.75132" lon="5.37318">
        <ele>401.97</ele>
        <time>2019-03-28T14:52:37Z</time>
      </trkpt>
      <trkpt lat="44.75132" lon="5.37318">
        <ele>402.93</ele>
        <time>2019-03-28T14:52:58Z</time>
      </trkpt>
      <trkpt lat="44.75132" lon="5.37319">
        <ele>399.08</ele>
        <time>2019-03-28T14:53:02Z</time>
      </trkpt>
      <trkpt lat="44.75132" lon="5.37319">
        <ele>406.77</ele>
        <time>2019-03-28T14:53:03Z</time>
      </trkpt>
      <trkpt lat="44.75132" lon="5.37318">
        <ele>401.97</ele>
        <time>2019-03-28T14:53:04Z</time>
      </trkpt>
      <trkpt lat="44.75132" lon="5.37318">
        <ele>406.29</ele>
        <time>2019-03-28T14:53:05Z</time>
      </trkpt>
      <trkpt lat="44.75132" lon="5.37318">
        <ele>402.93</ele>
        <time>2019-03-28T14:53:06Z</time>
      </trkpt>
      <trkpt lat="44.75131" lon="5.37319">
        <ele>393.32</ele>
        <time>2019-03-28T14:53:11Z</time>
      </trkpt>
      <trkpt lat="44.75131" lon="5.37319">
        <ele>404.37</ele>
        <time>2019-03-28T14:53:12Z</time>
      </trkpt>
      <trkpt lat="44.75131" lon="5.37319">
        <ele>400.53</ele>
        <time>2019-03-28T14:53:14Z</time>
      </trkpt>
      <trkpt lat="44.75131" lon="5.37319">
        <ele>403.89</ele>
        <time>2019-03-28T14:53:15Z</time>
      </trkpt>
      <trkpt lat="44.75132" lon="5.37318">
        <ele>403.41</ele>
        <time>2019-03-28T14:53:28Z</time>
      </trkpt>
      <trkpt lat="44.75132" lon="5.37318">
        <ele>407.74</ele>
        <time>2019-03-28T14:53:29Z</time>
      </trkpt>
      <trkpt lat="44.75132" lon="5.37318">
        <ele>403.41</ele>
        <time>2019-03-28T14:53:30Z</time>
      </trkpt>
    </trkseg>
  </trk>
</gpx>